GFSSW_sfc_temp_000.txt.gz
Temp
62 62 63 63 63 63 63 63 63 63 63 63 63 63 63 62 63 59 60 71 69 70 69 65 63 61 60 58 56 52 46 40 45 45 51 53 51 55 54 53 52 58 56 55 49
62 62 63 63 63 63 63 63 62 62 63 63 63 63 62 62 57 59 70 72 71 70 66 64 60 60 56 55 54 51 43 47 51 49 52 54 54 56 52 54 52 55 57 50 48
62 62 62 62 62 63 63 62 62 62 62 62 62 62 62 59 59 65 72 72 71 70 66 64 62 61 53 52 53 50 48 50 55 56 55 55 53 55 52 54 56 58 60 54 49
62 62 62 62 62 63 63 63 62 62 62 62 62 62 61 55 54 64 70 71 70 67 65 62 59 54 51 51 54 47 53 54 55 57 54 54 55 54 55 65 63 61 60 53 51
62 61 61 61 62 62 63 63 62 62 62 62 61 61 57 55 62 64 67 67 64 64 62 60 57 54 50 50 51 48 51 55 56 53 55 55 56 54 53 61 60 59 57 56 53
62 61 61 61 62 62 62 63 62 62 62 62 61 60 55 52 65 64 62 62 62 61 59 60 59 58 53 52 52 51 52 53 53 55 55 55 59 54 59 56 60 55 56 55 53
62 61 61 61 61 62 62 62 62 61 61 61 61 57 53 61 62 62 63 60 61 61 59 58 59 56 53 50 52 51 50 50 50 52 51 51 50 48 61 52 58 57 55 54 54
61 61 60 60 61 61 61 61 61 61 61 61 61 52 56 62 59 61 60 59 59 59 60 59 60 57 53 53 52 45 42 41 49 47 50 53 45 60 59 52 55 56 56 56 58
60 60 60 60 60 60 61 60 59 60 60 60 52 53 56 62 58 60 60 59 59 57 57 64 58 52 50 44 42 39 38 38 44 52 50 48 45 55 54 52 54 55 57 57 63
60 60 60 60 60 60 60 60 59 58 57 58 61 52 59 59 58 58 57 60 56 56 55 53 48 45 41 42 37 38 35 38 39 50 45 43 45 54 56 54 53 55 59 61 62
60 60 60 60 60 61 55 52 53 52 50 55 53 55 57 55 58 56 58 58 55 52 46 46 42 41 49 46 46 40 39 39 43 50 43 50 51 53 56 53 57 60 59 59 62
60 60 60 60 60 60 52 49 45 46 46 53 52 55 56 56 53 53 58 55 50 46 44 41 38 49 47 45 44 41 41 43 48 50 43 45 46 53 55 56 58 59 61 61 61
60 60 60 60 59 55 48 47 50 47 41 50 52 51 54 57 53 53 56 50 47 43 43 45 49 48 46 42 43 39 38 43 42 43 41 39 43 42 49 50 55 56 60 56 56
59 59 59 59 56 50 49 50 50 47 39 45 49 51 52 51 47 50 50 50 44 45 42 41 46 47 40 42 44 42 46 45 42 37 34 39 35 40 48 51 53 56 52 53 55
58 59 59 60 52 50 52 50 48 46 30 47 47 55 50 49 46 46 49 48 43 43 42 43 40 39 39 44 44 43 45 42 37 35 31 32 30 37 42 46 50 53 54 52 54
57 58 58 56 53 54 52 50 49 40 32 44 47 45 44 45 44 45 46 48 45 41 39 42 42 45 46 45 45 43 39 37 33 33 27 36 35 45 40 44 46 54 62 56 55
56 57 57 58 54 54 53 52 42 34 46 43 42 43 42 43 43 42 42 40 41 36 35 38 41 42 45 40 39 40 35 27 24 21 27 33 31 46 51 55 52 53 53 53 52
55 56 56 58 56 55 53 47 34 40 41 45 44 42 41 44 44 41 38 38 40 39 35 35 38 41 43 45 42 37 40 28 23 21 33 28 30 46 52 53 53 50 50 48 50
55 55 54 56 56 55 49 38 39 40 45 44 44 37 37 40 42 37 36 37 42 43 41 34 35 40 42 43 45 37 35 42 33 35 26 38 41 49 54 48 47 45 46 47 50
46 50 52 56 56 52 44 40 41 46 46 46 41 44 36 37 40 40 39 39 42 43 45 44 37 42 40 40 41 42 42 32 30 24 23 32 36 40 49 54 50 48 46 49 48
46 45 50 53 54 46 38 41 47 52 52 46 43 43 42 42 43 42 42 44 44 42 43 44 39 37 36 36 39 36 35 35 36 33 29 28 36 50 53 55 45 44 47 47 43
47 38 51 54 43 44 40 44 47 49 51 46 47 46 43 43 41 41 41 45 47 48 42 44 40 33 38 40 43 41 42 40 33 31 33 33 33 51 50 51 43 35 36 38 39
41 40 51 51 37 39 44 43 47 45 46 45 44 45 48 42 38 42 43 47 48 46 42 43 35 29 31 36 35 33 37 40 39 32 29 26 30 50 46 32 35 34 35 37 39
40 31 41 45 44 41 40 41 41 47 46 47 45 46 42 40 43 40 39 42 41 42 45 44 35 33 28 33 37 34 36 37 35 30 30 30 34 41 28 28 28 34 35 36 38
34 32 37 29 36 39 40 39 36 36 43 46 42 41 39 35 36 36 39 39 38 41 39 39 32 35 37 37 34 32 31 32 30 33 27 32 32 30 23 25 28 32 34 35 36
30 32 34 31 34 33 35 36 37 39 40 39 38 40 40 36 36 33 34 32 33 34 35 37 28 29 25 31 32 29 31 31 32 32 32 32 29 26 28 32 32 33 31 32 34
33 34 35 32 29 27 27 31 33 34 34 35 33 34 33 33 34 33 35 34 34 30 29 30 28 25 21 28 26 20 27 30 32 36 28 23 21 23 24 29 32 33 31 32 31

GFSSW_sfc_temp_003.txt.gz
Temp
63 63 63 63 63 63 63 63 63 63 63 63 63 63 63 63 63 59 60 70 68 70 69 65 65 63 63 60 59 57 50 44 49 48 55 59 58 60 61 62 60 63 63 66 55
62 62 63 63 63 63 63 63 62 62 62 62 63 62 62 62 56 59 70 72 70 70 66 64 60 61 58 57 57 54 46 49 54 53 55 58 58 60 60 61 59 61 63 60 54
62 62 63 63 63 63 63 63 62 62 62 62 62 62 62 58 60 65 72 72 70 70 66 64 62 61 56 55 55 52 50 53 56 57 57 57 56 59 58 57 60 61 64 62 56
62 62 62 62 62 63 63 63 62 62 62 62 62 62 61 55 55 64 71 71 70 67 66 62 60 56 53 53 55 50 54 55 57 58 55 56 56 56 58 66 66 63 64 62 58
62 61 61 62 62 63 63 63 63 62 62 62 62 61 56 54 62 63 67 67 65 65 64 60 58 55 52 52 52 50 52 56 55 55 56 56 57 55 56 62 63 61 59 60 59
62 61 61 61 62 62 63 63 62 62 62 62 62 61 54 52 65 63 61 62 62 62 60 61 59 58 54 53 53 52 53 53 53 56 55 56 59 55 59 60 62 58 62 60 57
61 61 61 61 61 62 62 62 62 61 61 62 61 56 53 61 61 60 62 60 60 61 58 58 60 58 56 51 54 52 51 52 51 53 53 52 50 50 62 55 59 63 60 60 58
61 61 60 61 61 61 61 61 61 60 60 61 61 52 56 60 58 60 59 58 58 59 60 59 59 58 55 54 52 47 45 43 52 49 51 54 49 59 62 56 58 58 62 58 64
60 60 60 60 60 60 61 60 59 60 60 60 51 53 56 61 57 57 58 58 57 57 58 62 58 52 50 46 43 41 39 39 44 52 51 49 47 54 55 54 55 58 61 64 66
60 59 60 60 60 60 60 60 59 57 57 57 60 52 59 57 56 57 57 59 56 55 55 53 48 46 41 43 39 40 36 38 40 52 46 45 45 54 55 56 58 60 62 61 61
60 60 60 60 60 60 56 53 54 52 51 55 54 54 56 55 56 55 58 58 55 53 46 45 43 41 47 46 45 42 40 39 43 49 44 50 50 52 56 53 57 60 61 61 61
60 60 60 60 60 60 52 50 46 47 45 53 52 54 55 56 52 53 58 54 50 46 44 41 40 50 48 45 44 41 40 41 45 49 43 44 47 54 56 57 59 59 60 57 58
59 59 60 60 59 55 49 48 49 48 40 49 51 50 52 56 52 52 55 50 47 43 42 43 47 47 46 42 42 39 39 42 41 42 43 40 41 43 52 50 53 56 56 56 55
59 59 59 60 56 50 49 50 49 47 38 44 48 50 51 51 46 50 50 49 44 44 42 42 45 46 41 43 43 39 45 43 40 37 34 42 34 40 50 52 52 54 53 54 55
58 58 59 60 53 51 51 49 48 46 33 47 46 53 49 48 45 47 48 47 42 42 43 44 42 39 39 44 44 43 43 40 39 36 33 34 31 39 44 47 50 54 56 56 54
56 57 58 56 55 52 51 49 48 42 33 43 46 44 43 44 44 45 45 47 45 40 40 42 43 45 46 43 44 43 40 37 34 35 28 36 36 39 42 47 48 53 57 54 54
55 56 56 59 55 53 52 52 40 35 47 42 41 43 41 41 42 41 40 39 40 36 35 37 40 41 44 39 39 41 37 29 26 23 27 33 32 41 49 55 51 54 52 50 51
55 56 56 58 55 53 53 46 34 41 41 44 43 41 41 44 43 41 40 39 40 39 34 35 38 41 43 44 41 37 39 31 24 24 33 28 32 45 49 53 51 48 48 47 46
54 52 53 55 55 54 49 37 37 40 45 43 44 37 35 39 42 38 37 37 40 42 42 35 34 39 40 42 45 36 34 41 33 29 28 38 40 50 53 48 43 40 37 36 38
46 48 50 55 55 52 44 40 41 46 47 46 38 43 35 39 42 40 40 39 40 43 48 41 34 40 39 39 40 41 42 32 29 22 24 33 37 40 46 35 32 33 33 36 38
45 43 49 54 55 46 37 40 45 50 50 47 44 43 44 41 43 39 40 42 43 42 43 42 39 36 38 36 38 35 35 35 36 31 28 27 34 44 29 29 29 32 34 36 38
44 37 51 55 43 43 40 44 46 46 49 47 47 44 41 42 40 40 39 42 46 45 41 44 38 29 34 42 41 40 40 40 29 29 31 33 31 30 28 30 32 32 35 37 38
39 39 51 51 36 38 41 42 46 44 44 45 44 45 43 41 36 41 42 45 46 44 41 41 33 27 29 36 35 35 36 39 37 32 29 26 31 31 28 30 32 33 34 35 37
36 31 40 45 42 40 38 39 39 44 43 45 44 44 40 38 41 39 39 43 41 43 44 44 35 33 28 32 35 32 34 34 34 29 30 31 33 36 26 26 30 32 33 34 35
32 30 36 33 33 35 38 37 35 34 41 42 39 40 37 35 33 34 37 37 39 41 38 39 31 33 33 35 33 30 29 29 27 30 25 30 29 35 22 25 29 33 33 33 34
29 28 32 33 35 32 36 33 34 37 37 36 35 38 37 33 35 32 35 34 35 33 32 35 29 26 21 30 30 28 30 31 30 31 30 31 30 26 28 29 29 32 33 32 32
31 33 32 29 28 26 26 31 30 32 32 31 31 31 30 30 32 33 34 33 32 30 30 29 28 23 22 26 25 19 24 29 31 33 29 24 22 21 22 27 29 29 31 31 31

GFSSW_sfc_temp_006.txt.gz
Temp
63 63 64 64 64 64 64 63 63 63 63 63 63 63 63 63 63 68 72 78 76 70 72 77 77 76 76 72 72 72 67 63 64 62 69 72 70 72 75 75 74 76 79 86 72
63 63 63 63 63 63 63 63 63 63 63 63 63 63 63 62 67 70 76 72 71 70 77 77 74 74 74 70 71 70 64 66 70 71 71 73 71 73 72 75 76 76 81 80 73
63 63 63 63 63 63 63 63 63 63 63 63 62 62 62 63 72 78 72 72 70 73 79 77 77 75 70 70 69 66 65 71 70 72 71 70 70 72 72 70 77 76 81 83 77
62 62 62 62 63 63 63 63 63 63 63 62 62 62 61 68 67 78 71 71 70 78 78 74 73 70 67 65 68 62 68 69 71 69 67 67 71 68 71 75 81 82 82 78 78
62 62 62 62 62 63 63 63 63 63 62 62 62 62 68 70 74 73 68 70 76 76 76 73 71 70 65 66 64 61 67 68 69 66 67 69 66 68 70 77 80 80 76 73 76
62 61 61 61 62 63 63 63 63 62 62 62 62 61 70 63 75 73 70 69 75 75 73 74 74 73 68 66 64 66 64 66 66 66 67 64 69 69 74 78 77 78 78 81 79
62 61 61 61 62 62 62 62 62 62 61 62 62 63 66 71 73 72 71 70 71 74 69 70 72 71 69 64 65 63 61 67 68 66 64 65 61 62 75 74 72 76 79 80 79
61 61 61 61 61 61 61 61 61 60 59 61 62 64 68 68 73 69 71 68 70 72 71 70 71 70 67 66 64 60 59 56 69 61 63 64 59 71 76 71 71 74 77 78 80
60 60 61 61 60 60 61 61 60 61 61 62 62 66 67 65 67 67 70 68 67 68 69 69 71 66 64 60 58 58 55 57 59 64 61 60 59 69 73 70 69 72 74 76 77
60 59 60 60 60 60 60 60 60 60 61 62 67 65 70 66 64 65 67 68 65 65 65 65 65 62 59 59 52 57 56 56 54 65 63 59 58 64 68 66 66 69 72 73 74
60 60 61 60 60 61 63 67 67 65 64 66 67 65 65 64 65 63 66 65 66 64 59 58 58 56 63 62 64 58 55 54 59 64 58 57 59 62 66 67 66 68 70 72 73
60 60 61 61 60 60 64 63 60 58 57 63 60 62 62 65 62 60 65 62 59 57 55 55 53 63 59 57 55 55 52 53 59 61 54 57 56 61 64 65 67 68 69 70 70
59 59 60 60 60 63 60 59 58 59 53 58 59 58 61 64 60 59 62 60 58 52 52 56 61 59 55 56 52 54 51 54 53 55 58 53 56 58 67 63 66 67 68 68 67
59 59 59 60 60 60 60 58 58 58 53 54 56 58 59 61 56 57 59 59 56 54 52 53 55 53 51 51 55 49 58 53 50 49 47 54 45 58 63 64 64 66 67 66 63
58 58 60 60 63 61 60 58 57 56 39 55 56 63 58 57 56 54 59 60 54 52 53 56 49 48 48 52 54 54 52 49 47 47 45 49 45 57 57 57 62 64 60 60 58
57 57 58 60 60 58 59 57 56 51 37 52 56 54 54 54 53 54 55 60 56 52 51 54 53 54 57 53 53 51 50 48 46 47 41 50 47 53 57 59 60 57 52 51 51
56 57 58 62 60 59 59 58 47 36 54 51 51 53 52 51 50 52 52 51 53 49 52 53 50 53 53 51 50 51 48 42 39 39 39 47 43 52 60 54 53 49 48 48 50
55 56 56 58 57 58 58 52 35 48 50 52 51 50 50 53 52 49 50 52 51 50 50 46 44 50 53 54 54 48 49 42 31 35 42 37 40 53 56 49 47 47 47 47 47
55 56 56 57 57 57 52 39 43 48 53 50 50 48 50 49 50 48 48 50 51 52 47 47 46 50 48 52 54 46 43 51 40 36 35 45 52 59 55 44 44 43 45 44 45
50 52 53 57 58 54 46 42 47 51 52 52 45 49 44 48 46 45 45 50 49 51 53 48 38 49 50 50 51 49 52 41 41 29 28 39 44 47 49 42 41 40 41 43 44
49 47 53 56 56 47 38 42 48 53 54 49 47 46 47 45 47 45 43 51 52 53 51 51 44 45 46 47 47 47 43 43 42 39 30 28 38 48 42 37 37 38 40 41 43
49 42 53 56 43 46 41 45 48 49 51 49 49 48 46 47 44 44 43 49 54 53 46 50 40 34 42 52 50 49 46 46 36 33 39 36 36 40 38 37 37 37 38 40 42
44 45 52 51 38 40 45 46 49 47 48 47 46 48 48 43 38 45 46 51 51 48 46 45 36 31 34 42 41 40 44 45 45 36 31 28 32 38 38 37 37 38 38 38 40
42 38 44 46 48 44 42 43 43 49 48 49 47 48 45 42 45 42 43 46 46 47 45 44 37 34 30 38 43 38 40 42 40 30 32 34 39 47 39 39 38 39 39 39 40
39 37 41 37 39 41 44 43 39 39 45 47 44 44 41 37 38 38 42 41 43 43 44 41 32 36 36 37 37 36 35 37 35 34 27 35 34 40 43 38 37 38 39 38 39
36 36 39 37 39 39 40 39 38 40 41 40 39 43 42 36 39 34 38 38 37 42 40 41 31 34 30 38 36 31 35 36 35 34 34 35 34 46 36 36 36 37 38 37 38
38 40 39 34 34 34 35 38 35 38 36 36 36 36 34 37 37 37 38 37 37 33 34 33 31 29 24 33 31 23 28 33 36 40 39 32 35 31 31 34 36 37 37 38 38

GFSSW_sfc_temp_009.txt.gz
Temp
63 64 64 64 64 64 64 64 64 63 63 63 63 63 63 63 64 73 77 80 78 71 72 82 82 81 81 77 78 79 69 66 69 69 73 78 74 80 83 78 82 83 81 86 83
63 63 63 63 63 63 64 64 63 63 63 63 63 63 63 62 73 77 78 73 71 71 82 80 78 79 78 75 76 72 68 69 77 78 75 78 77 77 76 78 80 83 88 89 88
63 63 63 63 63 63 63 63 63 63 63 63 63 63 62 65 75 82 72 72 70 73 85 85 83 79 73 75 75 74 67 76 77 78 78 75 74 79 73 72 80 80 84 87 87
63 62 62 63 63 63 63 63 63 63 63 63 63 62 62 75 68 80 71 71 70 83 82 79 78 73 70 69 77 66 74 74 75 76 72 71 77 74 74 75 82 83 84 84 83
62 62 62 62 63 63 63 63 63 63 63 63 62 62 70 74 77 78 69 70 79 80 79 77 75 74 69 73 72 66 70 74 75 74 72 73 70 72 73 80 84 84 83 82 82
62 62 62 62 62 63 63 63 63 62 62 62 62 61 73 67 79 80 78 75 80 79 79 79 77 79 72 71 69 72 68 70 73 72 72 68 70 73 76 82 81 81 81 83 84
62 62 61 61 62 62 62 62 62 62 61 60 62 67 71 74 79 78 76 77 78 79 76 80 78 73 74 69 73 68 63 69 72 74 70 69 64 67 79 81 79 78 81 82 83
62 61 61 61 61 61 61 61 61 61 61 61 62 69 70 72 79 74 76 73 76 77 76 76 77 73 70 71 68 63 65 58 71 69 68 66 59 72 78 76 74 77 79 80 81
61 61 61 61 61 60 61 61 60 61 61 62 67 69 70 67 71 72 76 72 73 73 73 74 74 70 68 62 61 65 56 60 63 73 67 63 60 69 74 73 72 74 76 77 78
61 60 61 61 61 60 60 61 60 60 64 68 72 67 70 69 68 69 72 74 69 68 67 68 68 64 64 63 52 59 60 62 60 69 65 64 63 68 73 73 72 75 76 77 76
60 61 61 61 61 61 65 72 69 67 68 69 70 70 74 68 69 67 70 69 70 67 61 64 59 56 65 67 65 63 60 58 63 69 64 61 62 65 71 72 73 75 75 74 72
60 60 61 61 61 61 67 68 63 61 59 71 69 68 70 70 65 64 69 64 62 59 62 57 54 65 67 61 60 60 57 57 63 67 59 60 59 64 68 71 72 71 71 68 68
60 60 60 61 61 66 67 63 65 65 58 65 65 63 65 67 64 65 66 65 61 59 58 57 63 66 62 60 57 58 55 56 56 61 62 58 56 64 69 72 70 70 69 65 61
60 60 60 60 60 69 66 64 65 64 56 60 59 61 63 64 59 62 65 63 61 57 61 59 63 57 56 55 59 52 63 58 55 51 48 57 45 58 67 68 65 63 61 59 57
59 59 60 59 67 67 63 65 64 61 40 59 58 66 63 60 59 57 63 62 57 58 57 57 54 52 52 56 60 57 56 55 53 49 49 52 47 57 64 62 61 58 56 56 55
57 58 59 63 67 64 65 63 62 52 39 55 59 57 56 58 57 58 59 63 61 57 58 58 58 57 59 59 58 55 54 55 53 50 41 52 52 53 59 61 56 53 53 53 54
56 57 57 63 63 65 65 63 49 39 58 54 54 56 56 55 54 55 55 54 55 51 53 58 57 58 57 54 54 53 50 42 41 41 39 55 48 54 62 57 59 53 51 52 53
56 57 57 59 58 58 59 51 35 48 52 56 54 54 51 55 54 53 54 54 60 55 52 48 47 56 56 55 53 53 52 42 32 36 43 43 42 53 54 53 52 52 51 51 50
56 60 59 63 62 61 56 38 43 52 56 54 54 49 51 53 52 54 55 53 55 57 48 48 48 56 54 57 56 51 45 50 37 38 35 44 53 61 50 48 49 48 48 47 48
55 54 55 59 60 57 47 41 49 56 54 53 47 53 48 52 49 50 48 55 52 55 56 51 41 54 52 53 54 52 54 37 37 26 27 41 45 48 55 50 46 45 46 47 48
50 44 52 56 57 50 38 43 51 57 55 51 49 48 50 48 49 46 47 54 56 55 54 51 45 46 52 49 47 47 44 46 46 41 31 30 40 56 50 49 46 45 44 45 46
53 45 56 57 45 48 44 50 50 52 55 53 52 49 46 48 46 46 46 51 58 55 47 52 42 34 43 54 55 50 47 47 36 32 39 35 34 57 47 46 44 43 42 43 44
50 51 53 52 39 42 50 49 51 49 50 50 48 51 53 48 41 47 49 55 53 50 46 47 37 30 35 45 45 42 47 47 46 41 33 29 35 51 44 41 42 43 43 43 42
49 42 46 46 50 48 45 46 46 51 49 51 50 52 48 45 49 44 46 50 49 50 45 47 41 36 31 37 44 37 41 41 37 31 33 35 40 47 47 44 46 45 44 44 43
45 44 47 38 40 44 47 47 44 43 49 50 47 47 46 41 43 43 48 48 48 45 46 45 33 38 38 41 41 39 37 38 36 38 31 36 36 42 45 46 47 46 44 43 42
41 40 42 44 47 44 43 41 41 45 44 43 43 47 46 40 41 37 41 41 41 46 43 45 31 35 29 36 36 33 37 37 38 38 38 39 38 49 49 42 41 42 41 41 42
43 44 42 40 40 40 41 41 42 45 42 42 43 41 39 42 42 41 42 42 41 37 36 36 33 28 23 33 32 25 32 35 38 41 40 33 35 34 37 38 39 40 41 40 42

GFSSW_sfc_temp_012.txt.gz
Temp
64 64 64 64 64 64 64 64 64 64 64 64 64 63 63 63 63 67 73 77 77 70 70 79 78 77 76 72 72 69 56 54 60 59 62 69 65 69 71 67 69 72 69 73 72
63 63 64 64 64 64 64 64 64 64 64 64 63 63 63 63 70 74 74 72 71 71 77 75 73 74 69 69 68 61 55 59 68 66 63 69 67 67 67 66 67 69 75 75 73
63 63 63 63 63 64 64 64 63 63 64 63 63 63 62 62 70 75 72 72 71 72 80 80 78 74 67 68 66 63 57 66 68 70 68 66 65 69 65 61 67 67 71 74 72
63 63 63 63 63 64 64 63 63 63 63 63 63 63 62 70 62 75 71 71 70 77 78 75 73 65 63 62 70 60 67 68 68 69 65 62 66 63 65 66 72 72 73 71 70
62 62 62 62 63 63 64 63 63 63 63 63 63 62 67 69 72 74 68 69 74 75 74 73 69 67 62 66 67 62 64 68 69 67 66 67 62 61 64 70 74 74 73 71 71
62 62 62 62 62 63 63 63 63 62 62 62 62 61 66 62 76 78 75 71 77 74 73 74 71 70 66 64 61 64 63 64 65 66 66 63 61 61 66 70 70 72 70 70 71
62 62 62 62 62 62 62 62 62 62 61 61 62 64 67 68 77 76 75 72 74 75 71 74 73 66 66 62 65 63 56 61 65 65 62 62 55 58 67 69 68 68 68 70 71
62 62 61 61 61 61 62 62 61 61 61 61 62 65 63 70 74 74 74 71 72 74 72 71 71 66 63 65 62 56 55 48 62 63 57 61 50 62 68 65 66 66 65 67 69
61 61 61 61 61 61 61 61 61 61 62 62 63 65 64 68 69 71 73 70 70 70 69 74 67 62 61 53 50 53 46 51 56 64 58 55 51 62 66 65 65 64 65 65 63
61 61 61 61 61 61 61 61 61 61 61 69 71 61 66 66 65 68 69 70 66 64 63 62 59 54 53 51 42 48 49 53 50 59 57 52 52 61 65 64 61 63 62 61 58
61 61 61 61 61 61 63 65 62 60 64 65 65 66 69 66 67 65 67 66 66 61 53 57 50 47 53 57 58 55 52 50 54 61 54 54 53 58 63 64 59 57 60 58 56
60 60 61 61 61 61 62 65 60 59 54 68 68 69 70 69 62 62 66 59 57 52 57 50 46 57 61 59 54 52 49 48 55 59 52 53 52 58 62 62 59 59 55 54 53
60 60 61 61 61 62 66 61 66 64 53 62 65 64 63 65 61 59 63 60 56 53 54 51 57 62 58 55 53 51 48 49 49 54 51 49 47 52 60 60 61 58 55 53 50
61 61 60 61 58 67 63 64 65 63 49 56 57 60 63 62 55 61 63 58 57 52 54 53 59 55 51 51 52 47 54 53 50 44 37 48 36 49 57 54 53 52 48 48 48
60 60 60 59 62 64 63 65 63 57 35 58 56 65 61 57 56 54 60 57 51 54 50 50 49 47 48 52 54 49 50 47 46 42 39 41 35 45 52 48 48 48 48 47 47
58 59 59 61 64 64 65 62 58 47 34 53 57 55 54 56 55 56 56 57 55 52 53 53 51 51 52 53 53 51 47 47 44 41 29 42 43 41 46 49 44 46 47 48 47
55 57 57 61 58 63 63 58 46 37 56 51 51 55 53 51 52 53 51 47 47 42 42 48 50 51 52 46 47 47 43 31 29 26 29 44 39 45 49 51 49 45 44 45 45
54 57 56 58 57 58 55 48 35 46 50 54 52 52 50 54 52 52 49 48 54 48 43 42 40 50 51 49 46 46 45 33 26 24 30 38 32 44 46 47 47 46 44 45 43
55 56 56 60 61 59 52 38 40 45 54 53 51 46 48 50 51 49 49 49 52 52 44 44 44 47 51 51 51 44 39 45 33 28 26 35 44 49 44 43 43 43 43 41 42
52 52 54 59 59 55 46 41 46 53 53 53 45 49 43 48 45 46 46 49 49 51 52 47 38 49 47 49 47 46 48 33 32 24 20 31 35 39 41 40 41 40 40 41 42
48 45 53 55 56 49 37 41 49 55 55 49 47 46 48 47 48 46 45 47 51 49 51 47 42 41 46 44 43 42 38 40 41 34 24 25 31 45 43 43 40 41 41 40 40
46 39 53 55 42 43 39 46 50 51 53 51 50 47 45 46 44 43 43 48 53 51 43 46 40 30 38 48 49 44 42 41 32 31 34 33 32 51 44 42 42 40 41 39 40
45 46 53 52 38 40 46 48 50 48 49 49 46 48 49 45 40 44 45 51 51 48 43 44 33 26 28 37 38 37 40 41 40 33 29 26 29 48 39 38 40 40 40 40 41
47 39 44 46 48 44 43 44 44 50 48 50 48 49 46 42 46 41 43 46 46 48 46 46 37 30 25 32 39 33 36 38 35 29 29 29 34 39 43 43 43 41 40 39 39
44 41 45 35 39 41 43 45 42 42 48 49 45 45 43 39 40 40 44 45 45 43 43 42 28 32 35 37 37 34 33 35 32 34 28 32 32 38 42 38 36 39 41 40 39
40 37 40 38 44 41 41 39 40 43 45 41 41 44 45 39 41 33 36 37 37 40 39 41 23 29 22 31 31 28 31 32 32 33 33 34 33 41 36 37 37 38 39 37 37
40 42 39 40 37 38 38 39 40 43 44 42 42 40 39 39 39 39 39 38 37 34 32 30 24 15 18 27 26 15 27 30 33 36 35 28 30 26 29 34 33 33 36 36 35

GFSSW_sfc_temp_015.txt.gz
Temp
64 64 64 64 64 64 64 64 64 64 64 64 64 63 63 63 63 63 65 73 72 70 70 71 68 68 68 64 64 61 50 46 51 54 55 62 60 64 65 61 62 68 64 67 65
63 63 63 64 64 64 64 64 64 64 64 64 64 63 63 63 61 65 72 72 71 70 71 68 64 67 60 62 61 55 47 52 58 55 56 61 58 58 60 61 61 61 64 66 64
63 63 63 63 63 64 64 63 63 63 63 63 63 63 62 61 63 68 71 72 71 70 72 71 70 67 58 59 58 56 51 58 62 62 61 60 61 61 57 55 63 62 63 68 64
63 62 63 63 63 64 64 63 63 63 63 63 63 63 62 61 55 68 71 71 71 70 71 68 64 58 55 55 62 53 61 61 62 64 61 58 60 59 58 62 66 65 66 63 66
62 62 62 62 63 63 63 63 63 63 63 63 63 62 62 59 64 69 68 69 69 69 66 66 61 59 54 57 60 55 57 62 63 62 60 62 59 57 60 65 65 66 67 64 66
62 62 61 62 62 63 63 63 63 62 62 62 62 61 59 56 71 70 69 67 70 67 65 66 64 64 58 57 55 56 56 58 61 62 60 59 56 57 62 62 64 65 63 63 59
62 62 61 61 62 62 62 62 62 62 62 62 62 61 59 63 70 71 71 67 68 68 64 66 67 63 59 57 60 58 53 56 58 58 58 59 53 55 62 62 62 58 62 57 56
61 61 61 61 61 62 62 62 62 61 62 62 61 57 58 66 64 69 68 65 67 68 66 65 66 62 58 59 58 52 48 44 57 58 56 56 48 59 63 60 63 58 57 53 53
61 60 61 61 61 61 61 61 61 61 62 62 56 54 57 66 64 65 65 64 64 65 64 71 64 57 56 49 44 45 41 45 51 58 55 52 48 59 62 60 57 56 52 52 51
60 60 61 61 61 61 61 62 61 60 60 64 66 54 60 61 61 63 62 66 61 59 59 57 54 48 46 44 38 42 41 46 45 54 52 49 49 55 59 61 56 50 48 49 48
61 61 61 61 61 61 59 57 56 55 55 58 59 59 63 61 63 60 63 62 60 54 47 51 45 41 47 49 49 46 45 43 48 57 49 52 49 54 58 58 54 49 49 48 47
61 61 61 61 61 61 56 56 54 55 51 61 62 62 64 63 57 58 63 55 53 48 50 45 41 51 53 52 50 48 45 43 49 54 50 50 49 53 57 56 53 49 46 46 46
61 60 61 61 60 58 57 56 60 57 47 56 59 59 59 61 56 54 59 55 50 48 48 43 51 55 53 50 48 46 44 43 45 49 48 44 42 49 54 51 51 49 48 47 45
61 60 60 60 56 59 56 59 60 56 42 50 53 55 58 57 51 58 58 54 51 48 47 46 54 52 48 48 49 42 50 48 47 41 36 44 32 44 49 45 45 45 43 43 44
60 60 60 60 55 56 58 60 57 52 30 52 52 60 57 53 52 51 56 53 46 48 47 46 46 45 45 48 50 46 48 45 43 39 35 36 33 39 44 40 41 41 42 42 42
58 59 59 59 57 60 60 57 53 43 32 47 51 50 49 51 50 51 51 52 51 46 46 46 49 48 49 50 50 49 45 43 42 38 27 37 36 37 40 43 40 42 42 43 42
57 58 58 60 56 61 60 55 43 35 51 46 46 49 48 46 47 48 46 43 42 37 37 44 46 47 50 45 47 46 42 31 27 24 27 38 34 40 42 45 44 41 39 40 40
56 57 56 57 56 58 55 47 34 44 43 49 48 48 45 49 47 47 44 41 46 44 39 38 36 46 49 48 44 42 43 33 26 23 27 36 31 40 40 42 42 42 40 42 42
55 54 55 57 57 56 50 37 38 46 52 48 46 42 43 47 49 44 42 42 49 49 43 39 41 47 48 49 50 42 38 42 33 23 24 33 38 41 41 40 40 40 40 39 39
51 50 51 57 56 53 45 40 43 50 51 49 41 45 39 44 43 41 42 44 45 48 48 43 35 45 45 47 46 45 46 33 31 19 17 27 31 33 37 37 38 37 36 37 39
48 45 51 55 55 48 38 41 47 53 53 47 42 41 41 42 44 41 44 44 47 45 47 45 41 38 43 40 40 40 37 38 38 31 22 19 28 40 41 39 38 37 38 37 37
46 41 52 54 41 42 39 44 49 48 51 49 47 44 42 43 43 41 41 46 50 47 41 42 38 27 36 43 44 42 40 39 32 27 28 32 31 40 37 38 38 37 39 38 38
43 44 52 51 36 38 44 44 48 47 48 47 44 46 46 43 39 41 43 46 50 46 43 44 33 23 28 36 38 35 38 38 39 33 29 26 29 38 36 37 39 38 38 40 40
44 37 43 46 42 40 41 41 40 47 46 47 45 46 42 39 43 39 40 43 45 43 46 47 37 30 27 29 34 31 33 35 35 28 25 28 31 38 39 36 36 37 39 37 38
41 38 42 35 38 40 42 42 40 40 45 46 42 42 41 38 38 38 42 41 42 44 41 41 27 32 33 34 32 31 31 32 29 31 25 31 30 36 38 31 32 34 36 36 36
37 36 38 38 41 40 40 37 39 40 42 40 40 42 43 38 39 32 37 37 36 37 37 39 24 28 21 31 31 27 30 30 30 30 29 30 30 41 32 34 33 35 36 35 36
37 39 38 37 35 36 37 38 39 42 41 41 42 40 37 35 37 37 37 36 36 34 32 32 24 16 16 27 25 14 26 30 31 33 30 25 30 24 28 32 31 31 32 32 34

GFSSW_sfc_temp_018.txt.gz
Temp
63 63 64 64 64 64 64 64 64 64 64 64 64 63 63 63 63 61 63 72 71 70 69 68 67 67 66 62 62 57 48 44 48 50 53 59 59 62 60 58 58 63 60 62 63
63 63 63 64 64 64 64 64 63 64 64 64 63 63 63 63 59 61 72 72 71 70 69 66 61 63 59 59 59 53 45 50 55 53 52 58 55 56 58 58 56 57 64 64 59
63 63 63 63 63 64 64 63 63 63 63 63 63 63 62 60 62 65 71 72 71 70 70 68 66 63 55 56 55 52 49 54 58 58 57 58 59 56 53 55 60 59 61 64 60
62 62 62 63 63 63 64 63 63 63 63 63 63 62 62 59 53 65 70 71 70 69 68 66 62 57 53 53 58 50 58 58 60 59 57 55 59 58 56 60 64 61 59 60 60
62 62 62 62 62 63 63 63 63 63 63 63 63 62 60 58 63 67 68 68 67 67 64 63 60 58 52 54 55 52 55 59 61 59 57 58 58 56 58 62 62 62 59 54 53
62 61 61 62 62 63 63 63 63 63 63 62 62 61 58 54 67 68 67 66 68 66 63 63 61 62 56 55 54 55 56 58 59 59 57 58 53 54 62 58 60 62 53 50 51
62 61 61 61 62 62 62 63 63 62 62 62 62 60 57 62 67 67 68 64 65 65 62 62 63 59 56 53 58 55 53 55 55 55 55 56 51 54 62 59 58 53 47 49 49
61 61 61 61 61 62 62 62 62 61 62 62 62 56 56 64 62 66 65 63 65 66 64 63 63 61 56 56 56 48 46 43 54 54 53 54 48 59 62 57 53 47 44 46 47
60 60 61 61 61 61 61 61 61 62 62 62 55 54 56 66 61 63 63 62 62 63 63 69 62 55 54 47 43 42 39 42 49 55 53 51 47 58 61 56 49 45 45 46 45
60 60 60 61 61 61 61 62 61 60 60 62 63 52 57 58 59 61 61 63 59 58 58 56 51 46 44 43 37 40 39 43 43 50 49 47 49 54 59 54 47 44 43 43 43
60 60 61 61 61 61 60 56 56 54 53 57 57 56 60 58 61 58 61 60 58 54 47 48 44 41 46 48 47 44 42 42 46 53 48 49 47 51 56 49 45 43 43 43 43
60 60 61 61 61 61 56 55 53 54 51 58 58 59 61 61 55 56 62 55 51 47 48 44 41 50 50 48 47 44 41 42 46 51 48 47 47 52 51 51 48 45 42 42 42
60 60 61 62 61 57 55 56 59 56 47 54 57 57 57 60 54 54 58 53 49 46 45 43 49 52 50 46 45 42 41 41 44 46 46 41 41 48 45 45 46 44 43 43 41
60 60 60 61 56 57 54 58 58 56 41 48 51 54 56 57 49 56 56 53 48 46 45 44 51 50 45 46 46 40 48 47 44 39 35 40 31 40 45 41 41 40 38 38 39
59 59 60 60 55 55 56 57 55 54 31 50 50 58 55 52 51 49 54 51 46 47 46 44 44 43 44 46 48 45 45 44 41 37 33 35 32 37 41 37 38 37 38 38 39
59 59 59 58 55 57 57 57 54 45 32 45 49 48 48 49 48 49 49 50 49 45 44 45 47 48 48 47 46 47 44 41 37 35 27 36 36 33 38 41 37 38 38 39 38
58 58 58 61 55 59 59 55 43 35 48 44 44 47 46 44 44 45 44 41 41 37 37 42 44 46 49 44 43 43 39 29 27 24 27 35 31 37 40 40 42 38 36 37 38
58 58 57 59 57 59 56 48 34 43 42 47 47 46 44 46 44 44 42 40 44 41 36 37 35 44 47 47 43 41 42 32 26 22 27 32 30 38 37 38 40 39 38 38 40
58 57 55 56 57 56 50 38 40 45 49 46 45 40 40 44 45 41 40 39 45 45 41 35 37 44 45 46 48 40 36 41 33 22 22 31 34 37 38 36 37 37 38 37 38
53 52 53 56 57 54 46 41 43 50 50 48 41 44 37 40 42 39 39 42 44 46 47 41 35 42 43 44 44 42 45 32 30 21 16 27 29 32 34 34 35 35 35 36 37
49 46 51 55 55 48 40 41 46 52 53 48 43 42 41 40 43 38 41 43 46 44 46 44 41 36 41 39 39 38 36 37 36 30 22 17 27 37 38 38 36 35 36 36 36
48 42 51 54 44 44 41 45 49 49 50 48 46 45 42 43 40 40 40 44 48 46 41 43 37 27 35 40 42 40 39 37 29 26 27 27 30 40 40 39 38 37 38 38 39
44 43 51 51 39 38 43 45 47 46 46 45 44 45 45 42 39 40 41 45 47 45 41 43 32 21 29 36 37 35 36 36 36 30 22 23 27 38 35 37 38 37 37 38 38
43 37 43 46 44 43 41 41 41 47 45 47 45 45 43 40 42 38 38 41 43 46 47 47 36 32 30 31 34 31 33 33 35 25 24 27 29 34 34 36 37 37 38 36 36
41 38 43 35 38 40 43 42 40 40 45 46 42 42 41 36 36 36 40 39 41 43 41 42 29 32 33 34 33 33 32 31 29 31 25 32 30 36 35 34 35 36 36 35 34
38 36 39 38 41 39 39 37 37 41 42 41 40 42 41 39 39 34 39 38 38 38 38 38 27 28 21 32 32 27 30 30 31 31 30 31 30 40 35 32 32 34 34 32 33
38 39 39 38 36 36 36 38 39 42 40 42 43 41 39 42 40 38 39 38 38 35 32 32 26 19 16 26 25 16 23 31 33 33 31 26 30 24 29 32 31 31 33 33 33

GFSSW_sfc_temp_021.txt.gz
Temp
63 63 64 64 64 64 64 64 64 64 64 64 64 63 63 63 63 60 62 69 69 70 69 65 66 65 63 60 60 54 47 43 45 47 51 57 57 58 58 55 58 60 57 61 63
63 63 63 63 63 63 64 64 63 63 64 63 63 63 63 63 57 60 71 72 71 70 66 63 59 62 58 57 57 51 44 49 53 52 50 55 53 55 57 57 53 55 63 63 62
62 62 63 63 63 63 63 63 63 63 63 63 63 63 62 60 60 63 71 72 71 69 67 65 64 61 53 54 52 49 49 52 55 58 56 55 53 55 52 55 56 55 59 59 55
62 62 62 62 63 63 63 63 63 63 63 63 63 62 62 57 52 63 70 71 70 67 67 64 60 54 50 50 55 48 54 55 57 57 55 54 55 55 54 60 58 55 54 51 50
62 61 61 62 62 63 63 63 63 63 63 63 63 62 59 56 62 65 67 68 66 65 63 61 58 55 51 52 54 51 53 56 59 57 55 55 55 54 57 59 58 55 52 49 48
61 61 61 61 62 63 63 63 63 63 63 62 62 61 57 53 65 66 65 65 65 63 61 63 61 60 55 52 52 53 53 55 57 57 55 55 51 52 59 57 55 52 47 46 46
61 61 61 61 62 62 62 62 63 62 62 62 62 59 56 60 64 65 66 63 64 64 60 60 61 58 55 51 55 53 50 52 54 53 53 54 48 52 58 56 52 46 43 45 45
61 61 61 61 61 61 62 61 61 61 62 62 62 55 56 63 61 64 63 62 64 64 63 61 61 59 54 54 53 48 45 42 51 51 51 53 47 56 58 54 48 43 41 43 44
60 60 60 60 61 61 61 61 61 61 62 62 54 53 55 65 59 61 61 61 61 61 61 67 60 52 53 46 43 42 38 39 47 52 50 49 46 56 55 53 44 41 42 43 42
60 60 60 60 60 60 61 61 61 60 60 61 62 51 56 56 58 60 59 62 58 57 57 56 49 45 42 43 37 39 37 40 42 48 48 45 47 52 55 52 45 40 40 40 41
60 60 60 60 60 61 59 55 55 53 53 56 55 55 57 56 59 57 59 59 56 54 46 47 44 41 45 47 45 43 41 41 43 50 45 46 45 50 50 46 41 39 39 39 40
60 60 60 61 61 61 56 53 54 54 51 57 56 57 59 59 53 55 60 54 50 46 46 43 40 50 49 46 45 41 38 40 44 48 46 45 45 50 47 44 44 40 39 39 39
59 60 60 60 61 57 54 55 58 54 47 53 55 55 56 58 53 54 58 52 48 44 44 42 48 50 49 44 43 40 39 38 42 44 43 40 39 45 41 41 42 41 40 39 38
60 59 59 60 57 56 54 58 57 55 40 47 50 53 55 55 49 55 55 52 46 45 43 42 48 48 42 44 44 39 45 45 43 38 34 38 31 38 42 37 38 37 36 36 37
59 59 59 61 54 54 57 57 55 55 30 48 48 56 53 51 49 48 53 50 45 45 44 43 43 41 42 44 47 43 43 42 39 36 32 34 31 36 39 35 35 34 36 35 36
59 59 59 58 57 56 56 56 55 42 31 43 48 47 47 47 46 48 47 50 48 43 42 44 45 45 47 45 46 46 42 40 35 34 26 36 35 32 37 39 35 35 36 36 36
58 58 58 60 55 58 57 55 43 35 46 42 42 45 43 43 43 44 42 40 39 35 35 39 42 44 47 42 42 42 38 29 26 24 26 33 30 37 38 37 39 36 35 35 35
58 58 58 61 58 59 55 47 34 43 41 46 44 43 42 44 42 42 39 38 42 38 35 36 34 43 46 46 41 39 40 30 23 22 26 31 29 37 35 35 39 39 37 36 35
58 58 58 59 59 58 51 38 40 43 47 45 44 39 39 43 43 39 38 38 43 43 40 34 36 41 44 45 46 38 35 40 32 18 21 31 33 34 35 33 34 34 34 34 35
57 56 56 59 59 54 47 43 45 51 50 48 40 44 37 40 40 38 38 42 43 45 45 41 34 41 41 43 42 40 43 32 29 20 17 27 29 32 32 33 33 33 34 34 35
54 49 52 57 56 49 42 43 46 51 52 47 44 41 40 40 40 36 39 41 44 43 46 42 39 34 38 38 37 37 34 35 35 30 23 18 29 36 36 35 34 35 36 35 35
50 45 52 55 45 46 44 45 48 49 51 49 47 46 43 42 37 37 39 42 46 45 42 43 37 27 34 38 37 36 37 37 31 27 26 27 32 38 39 38 37 36 37 36 37
46 44 50 51 42 40 42 44 47 46 46 45 44 46 44 42 39 38 39 43 45 45 41 43 33 22 31 35 35 33 34 34 34 31 25 25 29 38 36 37 38 37 36 37 37
43 38 43 45 44 45 41 41 41 47 45 46 45 46 43 41 42 39 38 42 41 42 47 47 36 34 31 32 34 31 33 33 33 25 31 32 32 30 35 36 37 37 37 37 36
41 39 41 36 38 42 44 42 41 39 45 46 41 43 42 37 37 37 40 39 40 42 39 42 31 31 32 34 34 33 32 31 30 30 27 30 29 33 36 35 35 37 37 35 35
38 37 39 38 43 40 41 39 40 43 42 41 40 42 43 40 40 35 39 38 37 35 36 37 27 28 25 32 33 31 32 33 34 31 29 30 31 40 34 34 31 34 34 33 33
39 39 39 36 37 38 38 40 40 43 40 42 43 40 38 41 43 40 40 40 40 36 33 32 27 26 28 27 26 22 24 29 32 33 32 28 34 24 30 32 31 31 33 33 33

GFSSW_sfc_temp_024.txt.gz
Temp
63 63 63 64 63 64 64 64 64 64 64 64 64 63 63 63 63 59 60 67 67 70 69 63 65 63 62 58 57 52 46 42 45 47 49 53 53 55 55 53 57 58 55 57 61
63 63 63 63 63 63 64 63 63 63 64 63 63 63 63 63 57 58 69 72 71 70 64 61 58 60 57 55 55 50 44 47 50 49 48 53 51 53 55 54 52 54 58 57 54
62 62 63 63 63 63 63 63 63 63 63 63 63 63 62 59 60 61 70 72 70 68 65 64 62 60 53 52 51 47 47 49 53 55 53 52 51 52 50 50 52 54 54 52 50
62 62 62 62 63 63 63 63 63 63 63 63 63 62 62 57 50 62 70 70 70 66 64 62 60 53 49 48 53 46 52 53 55 55 53 51 53 51 52 53 54 50 49 47 47
61 61 61 62 62 63 63 63 63 63 63 63 63 62 58 56 60 64 67 67 64 63 61 59 55 53 48 50 52 49 50 53 55 55 54 53 52 52 55 54 52 51 49 46 45
61 61 61 61 62 63 63 63 63 63 62 63 63 62 56 52 63 64 64 63 63 62 58 60 58 58 54 50 50 50 51 53 55 53 52 53 49 50 51 52 50 48 44 43 44
61 61 61 61 61 62 62 62 62 62 62 63 62 59 55 60 62 62 64 61 61 62 59 59 60 57 54 50 53 51 48 51 52 50 52 52 47 49 53 52 47 43 41 42 43
61 60 60 60 61 61 61 61 61 61 62 62 62 55 55 61 60 62 62 60 62 63 61 59 60 58 53 53 52 47 44 41 49 50 49 50 47 52 53 52 45 42 39 41 42
60 60 60 60 60 60 61 61 61 62 62 62 54 53 55 64 58 59 60 60 59 60 60 65 58 51 51 46 42 41 38 38 46 50 48 47 47 50 50 49 42 39 40 41 40
60 59 60 60 60 60 61 61 61 60 60 60 61 51 56 55 56 58 58 60 57 56 56 55 48 44 41 42 37 38 36 39 40 45 45 42 47 52 52 50 42 38 37 38 38
60 59 60 60 60 61 59 54 54 52 51 55 54 53 56 55 58 55 57 57 55 53 46 45 43 41 44 46 44 42 39 40 41 47 43 46 45 50 50 43 38 36 37 37 38
60 60 60 60 61 60 57 51 53 54 50 56 54 56 57 58 52 53 58 53 49 45 44 42 40 48 47 45 44 40 38 39 43 45 45 43 43 48 44 41 41 38 37 37 37
59 59 59 60 60 58 54 54 57 54 47 53 53 53 55 58 53 53 57 51 46 43 43 41 47 48 47 42 41 39 39 37 41 42 41 37 38 43 39 39 39 39 38 37 36
59 59 59 59 57 55 53 58 57 54 41 46 49 52 53 55 48 54 54 52 45 45 42 42 46 47 41 42 43 37 43 43 41 37 33 37 29 37 38 35 36 35 35 34 35
59 59 59 60 55 53 57 56 56 56 29 47 47 55 52 50 48 48 52 50 44 44 44 42 42 40 41 43 45 42 42 41 38 34 31 33 30 36 38 36 33 33 34 33 33
58 59 59 58 56 55 56 56 57 43 30 42 46 46 47 47 45 47 47 50 48 43 40 42 43 45 45 43 44 44 41 38 33 33 25 35 35 32 35 38 33 34 34 35 34
58 58 58 60 56 57 56 56 43 34 45 41 41 44 43 42 43 43 41 40 38 34 34 37 41 43 45 41 40 40 37 29 26 23 26 32 29 36 36 36 37 36 34 34 34
58 58 58 60 58 58 54 47 34 42 41 44 43 41 41 42 41 41 38 36 40 37 33 34 33 41 45 45 40 38 38 30 23 21 26 30 28 37 34 34 35 38 35 34 33
58 57 57 59 59 58 49 39 40 41 47 43 42 37 37 41 41 38 36 36 41 41 40 34 36 40 42 43 46 37 34 38 30 15 20 30 33 34 34 32 32 32 33 32 33
56 55 55 62 59 53 45 43 43 49 47 45 42 43 36 38 38 37 36 41 42 44 44 41 34 39 39 42 40 40 42 32 29 21 18 27 28 33 34 33 31 31 32 33 34
55 50 56 61 56 48 41 44 48 51 52 47 45 41 39 38 40 35 39 41 44 41 44 40 39 33 38 37 36 35 33 34 35 30 25 19 29 35 36 34 32 33 35 34 34
54 46 56 57 46 47 43 47 49 49 51 50 48 45 43 42 38 37 38 43 46 45 41 42 36 27 34 36 37 36 36 36 32 27 25 27 33 35 34 35 36 35 36 35 35
47 46 53 56 43 43 45 47 48 46 48 46 45 48 45 42 40 38 39 45 45 45 42 43 34 23 28 34 33 33 34 34 33 31 25 28 30 36 33 34 36 36 36 36 36
44 39 43 45 47 48 45 44 42 46 47 46 45 45 43 41 43 39 38 40 43 44 47 47 35 32 31 32 34 31 32 33 36 32 34 33 36 32 35 37 37 37 36 36 35
42 39 41 38 42 44 48 45 42 39 44 46 40 44 45 37 38 38 39 38 40 42 41 44 30 32 33 34 34 34 33 31 31 35 34 37 33 34 38 37 36 36 36 34 35
39 38 39 38 42 42 44 43 42 43 41 39 39 42 44 40 40 35 39 39 39 36 39 38 32 31 25 32 32 30 33 31 35 35 32 30 30 39 37 35 32 35 35 34 34
39 40 40 37 38 39 39 42 42 44 39 42 43 41 40 43 42 39 41 41 41 38 35 34 29 24 27 25 27 26 29 31 32 31 35 30 36 28 30 32 32 32 32 34 34

GFSSW_sfc_temp_027.txt.gz
Temp
63 63 63 63 63 64 64 64 64 63 64 64 64 63 63 63 63 59 60 66 67 70 69 65 67 65 63 60 59 56 49 45 49 50 55 59 59 61 62 62 63 64 62 58 57
63 63 63 63 63 63 63 63 63 64 64 63 63 63 63 63 58 60 68 72 71 70 65 63 60 62 58 58 57 53 47 51 54 55 55 57 57 58 60 59 61 62 60 56 55
62 62 63 63 63 63 63 63 63 63 64 63 63 63 62 59 59 60 70 72 70 69 66 64 63 61 56 56 54 51 51 53 56 58 58 57 56 58 57 55 60 59 58 53 52
62 62 62 62 63 63 63 63 63 63 63 63 63 63 62 58 50 61 69 70 70 66 65 62 61 55 52 51 54 51 53 54 57 57 56 54 57 57 57 58 56 52 51 50 49
61 61 61 62 62 63 63 63 63 63 63 63 63 62 59 57 60 63 67 67 64 64 62 60 57 55 52 53 53 51 52 55 56 56 55 54 55 56 56 52 51 50 48 47 47
61 61 61 61 62 62 63 63 63 62 62 63 63 62 56 52 62 63 64 64 63 62 59 60 59 59 55 52 52 53 52 54 55 55 54 54 52 54 54 50 48 47 45 45 45
61 61 61 61 61 62 62 62 62 62 62 63 63 59 55 60 62 62 63 60 61 62 60 59 61 58 56 52 54 52 50 53 53 52 54 54 48 51 55 52 46 44 44 44 44
60 60 60 60 61 61 61 61 61 62 62 62 62 54 55 60 60 62 61 60 62 62 61 60 61 58 55 54 52 48 47 44 51 51 51 53 49 53 53 53 47 44 43 43 43
60 60 60 60 60 60 61 61 60 62 62 62 53 52 54 63 58 59 60 60 59 59 60 64 58 51 52 47 44 43 41 41 47 51 50 50 49 53 52 51 45 43 43 43 42
59 59 60 60 60 60 61 62 61 60 59 60 60 51 55 55 56 58 57 60 57 56 56 55 49 45 43 44 39 40 39 40 42 47 47 45 49 52 52 50 45 41 41 41 41
59 59 60 60 60 61 60 54 53 51 50 55 53 52 54 54 57 54 57 57 55 53 46 46 45 42 45 46 45 43 41 43 43 48 46 46 46 52 50 45 40 39 40 40 40
61 60 60 60 60 61 58 51 52 53 49 55 53 54 57 57 52 52 58 53 49 45 44 43 40 47 47 45 45 42 40 40 44 46 46 44 44 50 48 45 43 40 39 39 40
60 59 60 60 60 58 56 53 56 53 47 52 52 53 54 57 53 52 57 51 46 42 42 41 46 47 47 42 41 40 40 38 42 42 42 40 40 43 42 41 40 40 40 39 39
59 59 59 59 56 57 54 58 57 54 40 45 49 52 53 55 48 53 54 52 45 45 42 42 46 46 42 42 43 37 43 43 41 39 35 40 32 40 40 38 37 36 36 37 37
59 59 59 59 54 55 57 56 55 55 29 47 46 54 51 51 48 48 52 51 44 44 44 43 42 41 40 42 45 42 42 41 39 37 35 36 33 38 38 40 36 35 36 36 37
59 59 59 58 56 55 56 57 57 42 29 41 45 45 46 46 45 47 48 51 48 43 41 42 44 45 46 43 44 43 40 38 35 34 27 35 36 35 38 41 36 36 36 36 36
58 58 57 61 55 56 57 55 42 33 44 40 40 43 42 42 42 44 42 39 38 34 35 38 41 42 45 40 41 39 38 30 27 25 27 32 31 38 42 40 40 38 36 36 36
58 58 58 61 58 59 54 46 34 42 40 41 41 41 40 42 40 40 38 36 40 37 33 33 33 41 45 43 39 37 38 31 24 23 28 29 29 38 38 36 36 38 37 36 35
58 57 57 59 59 59 49 38 39 41 46 42 42 37 36 40 40 38 37 36 42 41 40 33 35 39 41 42 45 38 35 38 30 16 23 32 35 40 36 35 34 33 34 34 35
55 54 54 61 59 55 45 41 43 48 46 44 42 42 35 37 38 36 36 41 42 44 45 41 34 38 39 42 40 40 42 33 30 21 17 28 31 36 35 36 33 32 33 34 34
55 50 57 61 56 50 41 43 48 50 50 45 44 41 38 36 39 34 38 40 44 41 47 42 40 34 39 37 37 36 34 34 36 31 24 20 29 37 40 38 35 34 35 36 36
54 46 57 57 46 47 44 46 50 51 51 49 47 45 43 42 40 37 37 43 45 45 41 43 38 28 34 36 37 36 37 37 31 27 26 27 32 37 37 38 37 36 36 36 38
50 49 56 55 42 43 47 46 50 47 50 50 47 47 46 43 41 39 38 45 45 45 43 43 35 26 30 34 33 33 35 35 34 31 25 26 29 36 35 35 36 36 35 37 37
45 41 44 50 52 48 44 44 43 50 49 49 47 47 44 43 47 38 38 41 43 44 48 49 36 34 36 34 35 31 33 34 36 26 29 34 37 33 36 38 36 36 37 36 36
44 40 42 40 42 47 48 46 43 43 48 50 42 47 46 41 42 41 40 38 40 44 42 45 34 32 34 35 35 35 33 32 32 37 34 37 35 35 38 38 38 37 36 35 36
39 38 40 38 41 42 44 44 43 46 42 41 43 45 48 45 45 40 42 39 39 38 39 39 33 31 28 33 33 31 33 33 36 36 34 36 34 40 40 36 35 36 36 35 35
39 41 41 39 38 38 40 43 44 48 43 47 46 46 43 47 44 39 45 42 42 38 36 35 31 31 30 26 30 27 31 32 34 33 37 29 39 33 33 35 35 35 35 35 35

GFSSW_sfc_temp_030.txt.gz
Temp
63 63 64 64 64 64 64 64 64 64 64 64 64 64 64 64 64 69 74 74 74 70 70 79 80 78 79 73 72 72 70 64 64 64 68 71 71 73 74 74 74 73 71 66 67
63 63 63 63 63 64 64 64 64 64 64 64 64 64 64 63 71 73 72 72 71 70 78 78 76 76 75 71 72 73 69 65 70 71 70 71 71 71 71 71 71 70 67 67 68
62 62 63 63 63 63 63 63 63 63 64 63 63 63 63 65 74 73 70 72 71 73 78 77 77 75 70 71 68 66 68 67 68 70 71 69 69 72 70 69 71 70 67 64 65
62 62 62 62 63 63 63 63 63 63 63 63 63 63 63 71 65 74 70 71 71 77 77 75 75 71 68 66 67 66 66 67 67 68 67 67 70 69 70 70 65 65 63 62 62
61 61 61 62 62 63 63 63 63 63 63 63 63 63 70 72 72 73 67 70 76 76 75 73 72 70 67 67 66 65 65 65 67 66 66 65 67 69 69 64 63 61 60 60 60
61 61 61 61 62 63 63 63 63 62 63 63 63 62 73 66 72 73 72 72 75 76 73 74 72 72 67 66 65 66 64 66 67 66 65 64 66 65 65 63 61 61 60 58 57
61 61 61 61 61 62 62 62 62 62 62 63 63 67 69 71 73 74 73 72 73 75 72 72 74 71 69 63 65 63 63 67 68 65 65 65 59 62 65 62 60 58 57 55 55
61 60 60 60 61 61 61 61 61 62 63 63 63 69 68 70 74 71 73 71 73 74 72 72 74 69 67 66 64 61 61 59 64 62 61 63 62 65 63 62 61 58 57 55 53
60 60 60 60 60 60 61 62 61 62 63 63 67 68 66 68 67 70 72 71 70 71 71 71 71 64 65 63 60 58 58 56 59 62 61 61 62 63 64 64 61 60 58 56 54
59 59 60 60 60 60 62 62 61 62 64 65 67 63 64 63 65 67 70 70 68 67 68 66 65 62 61 61 54 56 54 54 57 60 59 60 61 63 62 63 64 60 56 55 53
59 59 60 60 60 61 63 64 62 60 60 65 65 64 62 64 67 64 68 68 68 66 60 59 59 55 61 63 61 58 56 57 58 59 57 60 60 66 65 61 60 58 55 54 50
59 60 60 60 60 61 63 60 62 63 58 62 61 61 64 66 59 62 67 64 62 58 57 56 54 63 58 57 57 55 55 56 57 56 56 58 56 64 63 61 62 60 55 53 50
60 60 60 60 60 59 61 60 64 64 58 59 60 60 60 63 62 59 64 61 59 53 55 57 57 57 56 52 52 53 53 55 54 53 54 53 55 58 59 52 51 54 55 52 52
60 59 59 59 56 60 57 64 65 64 54 55 55 59 59 63 57 60 64 62 56 56 54 56 56 53 52 53 55 51 56 54 51 50 47 52 48 55 57 52 48 48 50 50 50
60 59 59 59 61 57 62 65 64 64 37 55 51 61 58 59 55 53 60 60 54 52 55 55 49 49 51 54 55 53 52 52 50 49 46 48 46 54 50 51 49 48 49 50 50
59 59 59 57 58 61 60 61 64 49 37 47 51 50 52 52 51 53 55 60 57 52 52 54 54 54 55 50 54 50 49 48 47 46 39 47 48 51 55 55 51 49 48 48 48
58 58 57 61 55 59 60 59 46 40 54 45 46 49 49 46 46 50 49 49 49 44 45 48 50 52 52 48 49 51 49 41 37 36 37 42 42 53 58 52 52 49 48 47 47
58 58 57 60 60 60 58 49 37 51 52 48 46 47 46 47 46 44 46 46 50 48 45 43 42 48 52 53 49 48 51 44 32 34 41 36 38 50 47 46 46 48 49 47 46
58 56 56 58 58 59 49 39 44 51 57 47 46 44 44 46 47 45 44 48 52 50 48 43 43 48 48 51 55 46 42 50 38 28 36 45 46 52 43 44 44 44 45 45 46
55 54 55 60 58 54 44 42 48 57 56 51 47 50 43 44 44 45 43 51 47 51 54 52 44 45 46 51 49 49 52 40 42 31 31 41 42 50 43 46 43 41 43 45 46
54 50 57 60 56 48 40 43 50 55 55 51 50 49 50 45 48 44 47 49 53 48 53 51 47 41 45 45 46 43 44 43 46 42 36 37 44 53 54 51 47 47 46 46 46
53 46 57 58 45 47 42 47 52 54 54 55 54 55 49 48 46 45 45 54 54 50 44 50 45 38 42 45 45 51 49 47 42 34 38 36 43 46 49 52 51 51 47 48 49
49 50 57 56 41 42 47 48 52 50 53 52 49 53 54 49 45 48 48 54 53 51 48 48 41 35 37 41 41 41 43 48 50 40 36 35 42 44 45 46 48 50 48 47 47
48 43 48 51 52 47 44 44 44 52 52 53 52 54 50 48 50 47 46 47 49 53 49 53 44 43 39 45 47 39 41 43 45 39 41 40 45 43 46 46 48 47 48 48 46
45 42 43 41 45 47 48 48 44 43 50 52 46 50 49 44 46 46 49 43 44 47 47 50 39 45 48 47 45 44 43 41 42 46 41 47 44 47 48 47 52 52 48 46 45
39 39 41 39 42 46 46 44 44 46 45 44 45 48 49 45 49 45 48 48 45 42 42 45 39 43 37 42 42 39 43 42 43 46 46 47 45 54 53 52 48 47 45 44 45
41 42 41 40 38 38 44 45 45 49 50 52 49 48 45 49 54 54 52 52 50 44 39 39 38 33 32 36 33 30 37 40 42 46 46 39 46 44 44 44 47 47 46 46 47

GFSSW_sfc_temp_033.txt.gz
Temp
63 63 64 64 64 64 64 64 64 64 64 64 64 64 64 64 64 74 78 75 76 72 70 84 84 84 85 79 79 80 72 68 70 71 73 76 75 79 80 78 78 77 76 72 74
63 63 63 63 63 64 64 64 64 64 64 64 64 64 64 63 75 78 73 72 72 72 81 81 80 82 80 77 78 76 71 71 76 78 75 76 76 76 75 76 76 73 73 73 75
63 63 63 63 63 64 64 63 63 64 64 64 64 63 63 66 75 77 71 72 72 73 82 82 82 80 75 77 75 74 71 73 73 75 77 75 74 77 75 72 77 75 73 71 72
62 62 63 63 63 63 63 63 63 63 64 63 63 63 63 76 66 77 70 72 71 81 82 80 80 76 73 71 74 70 72 73 72 72 71 71 76 73 75 74 74 73 73 71 69
62 62 62 62 62 63 63 63 63 63 63 63 63 63 74 75 76 78 68 71 80 80 80 78 76 75 71 72 71 70 71 71 72 70 71 71 71 72 74 71 70 68 68 67 66
61 61 61 61 62 63 63 63 63 63 63 63 63 62 74 68 76 79 77 76 81 80 79 79 77 77 73 71 69 71 69 71 72 71 71 67 71 69 75 71 68 68 67 66 64
61 61 61 61 62 62 62 62 62 62 63 64 64 72 72 74 79 80 77 77 78 79 76 78 79 75 74 68 70 69 65 71 71 70 68 69 64 63 75 69 67 67 66 64 62
61 60 60 61 61 61 62 62 61 61 63 64 64 73 70 74 81 75 78 76 78 79 78 77 78 74 72 71 69 65 66 62 68 67 66 66 63 72 69 67 66 67 67 63 59
60 60 60 60 60 60 61 62 61 62 63 64 70 71 69 70 71 76 78 74 75 76 75 76 76 71 69 66 63 64 60 62 65 68 65 64 65 67 68 68 68 67 66 64 61
60 59 59 60 60 60 61 63 62 63 66 70 71 66 69 67 69 72 76 77 72 71 70 70 71 65 66 64 56 61 59 63 61 65 63 63 63 67 67 68 69 69 66 63 61
60 59 59 60 60 60 62 67 65 63 63 68 69 70 67 67 70 69 73 72 72 70 62 66 62 57 64 66 68 65 61 61 67 65 60 63 65 69 69 66 67 70 66 63 60
60 60 59 60 60 60 65 65 67 64 60 68 68 69 69 71 62 65 72 66 64 60 66 59 55 67 69 66 64 61 58 59 65 63 59 61 61 67 71 67 68 70 67 63 58
59 59 59 60 60 60 63 65 69 69 61 66 67 65 65 67 66 63 67 67 62 60 59 59 63 63 61 59 57 58 57 59 59 58 59 58 56 60 67 70 70 66 69 64 59
60 59 59 59 56 65 59 68 69 69 55 61 58 64 64 68 61 68 69 66 60 59 61 61 66 58 57 58 60 55 64 59 57 54 49 58 47 61 65 60 59 59 61 60 59
59 59 59 59 66 59 64 68 69 65 39 63 56 64 64 63 60 56 66 63 59 58 59 58 54 54 54 58 62 57 59 57 56 52 51 53 46 57 64 61 58 57 57 58 58
59 59 59 58 61 66 64 65 65 49 39 50 54 52 54 59 55 56 58 63 64 58 56 59 57 59 59 54 59 57 54 52 52 51 40 48 49 53 58 56 62 57 56 56 55
58 58 58 64 56 63 63 59 44 41 62 51 49 52 54 51 51 54 51 51 52 47 49 54 54 57 57 52 53 55 51 43 39 37 38 48 47 54 62 57 60 56 55 55 54
58 58 57 62 65 61 59 50 35 50 54 56 53 52 49 51 50 49 49 49 55 56 55 48 46 54 56 56 53 50 52 44 34 37 43 41 40 52 60 57 54 60 56 54 52
57 56 56 58 62 59 50 37 42 51 60 55 51 48 46 49 50 47 48 52 56 57 50 50 50 56 56 58 59 49 46 55 42 32 37 47 51 59 49 48 50 53 53 50 50
55 54 54 60 59 54 45 40 47 59 63 63 49 53 47 47 45 46 48 56 55 57 60 58 48 51 51 54 54 53 57 41 43 32 33 46 49 50 45 49 49 48 49 49 50
54 49 56 60 55 48 39 40 49 61 64 59 54 54 55 51 49 45 52 58 58 55 57 58 52 44 47 47 48 46 46 48 50 46 39 38 48 62 59 57 51 49 50 51 51
52 45 56 58 45 46 41 48 53 53 60 57 59 57 55 56 48 48 50 58 60 55 47 55 52 45 47 52 55 55 51 50 42 36 41 42 46 54 63 63 56 53 52 53 52
47 49 56 55 41 41 46 47 51 50 53 54 53 57 60 55 46 53 55 63 59 54 51 52 44 36 41 44 45 44 49 50 50 42 38 37 45 52 52 56 56 55 53 52 51
47 43 49 51 51 46 43 44 43 52 52 55 55 56 54 53 56 54 54 55 57 56 51 54 46 42 40 48 50 42 44 47 47 39 42 43 49 47 49 51 53 54 53 52 51
46 42 43 42 44 46 47 49 44 43 51 53 49 52 51 46 50 49 54 49 48 50 51 51 39 46 47 50 51 48 46 45 42 46 42 48 49 55 53 53 55 55 54 52 49
39 39 42 40 42 44 45 43 46 49 49 45 45 51 52 47 50 47 51 51 47 46 45 46 38 43 38 46 47 44 47 47 45 46 48 50 50 63 59 58 56 55 53 51 50
42 45 42 37 38 38 42 44 45 51 51 54 50 49 47 51 58 59 58 52 54 47 40 40 37 34 32 40 39 31 39 45 48 49 50 44 51 49 53 52 53 53 50 49 50

GFSSW_sfc_temp_036.txt.gz
Temp
64 64 64 64 64 64 64 64 64 64 65 65 65 64 64 64 65 71 76 72 74 72 70 80 80 78 79 73 72 69 58 56 58 60 63 69 66 67 67 67 68 68 62 63 67
63 63 64 64 64 64 64 64 64 64 64 64 64 64 64 63 72 76 70 72 72 72 78 76 75 75 71 70 69 63 57 60 67 67 64 68 66 68 64 67 62 62 64 66 66
63 63 63 63 64 64 64 64 63 64 64 64 64 64 63 63 71 72 71 72 72 72 79 79 78 75 67 68 66 63 58 65 67 68 69 68 63 66 62 61 64 64 62 64 64
63 63 63 63 63 64 64 63 63 63 64 63 63 63 63 72 62 74 70 71 71 75 79 76 74 67 64 62 68 59 65 68 67 65 65 63 67 62 65 59 66 65 65 64 61
62 62 62 62 63 63 63 63 63 63 63 63 63 63 71 70 71 75 69 70 76 76 75 74 70 68 62 65 65 61 64 66 67 63 62 66 61 63 62 63 64 64 64 61 59
61 61 61 61 62 63 63 63 63 61 63 63 64 62 71 64 75 79 75 73 77 76 73 73 71 72 67 64 60 64 64 65 66 65 64 60 61 62 64 63 60 62 60 58 58
62 61 61 61 62 62 62 62 61 61 62 64 64 70 69 69 78 77 76 73 74 75 72 73 73 67 68 62 65 63 57 62 64 64 61 61 56 59 64 63 60 60 58 57 57
61 61 60 60 61 61 62 62 61 61 62 63 64 69 64 73 75 75 77 73 75 75 73 73 72 68 64 64 63 57 56 50 60 63 58 57 51 62 63 60 59 59 55 55 55
60 60 60 60 60 60 61 61 61 62 63 64 67 66 63 69 70 75 75 72 72 72 70 76 69 63 61 55 52 55 47 52 54 62 58 55 52 58 61 60 58 57 56 56 54
60 60 60 60 60 60 60 61 63 62 64 70 70 61 66 65 67 71 72 73 68 66 65 64 62 55 55 53 44 49 48 54 51 57 57 53 52 59 60 60 58 57 56 55 54
60 60 60 60 60 60 60 60 59 57 62 62 64 65 66 66 68 66 70 69 68 63 55 59 52 48 55 58 60 57 53 51 56 57 54 54 55 60 59 58 57 57 56 54 54
60 60 60 60 60 60 60 61 60 61 55 64 65 67 69 67 60 64 69 61 59 53 58 51 47 59 62 61 57 56 51 50 56 57 52 52 53 59 61 59 60 61 58 55 51
59 59 59 60 60 59 60 63 67 66 55 62 65 64 63 65 61 59 64 61 56 54 55 52 56 62 60 54 53 51 49 50 51 52 50 47 45 53 59 64 62 61 60 58 51
59 59 59 59 56 60 57 65 67 65 49 56 58 61 62 63 57 65 66 61 57 53 56 54 61 56 54 53 55 48 55 55 52 45 39 48 35 49 56 57 61 57 53 52 51
59 59 59 60 62 57 63 66 66 60 32 57 56 64 62 59 57 54 62 58 54 53 55 51 51 50 50 53 57 50 53 50 48 44 40 41 38 45 55 54 55 50 51 51 50
58 58 58 57 59 64 63 64 60 46 33 50 52 51 52 56 53 54 53 58 57 54 52 51 52 53 53 51 53 53 49 47 44 42 31 42 42 41 51 55 54 52 51 51 49
58 58 57 60 54 63 63 57 41 35 57 49 47 51 51 49 49 51 48 47 47 42 42 48 49 51 53 46 49 49 44 33 29 27 29 41 39 46 51 51 53 53 51 50 48
58 57 57 60 61 62 58 46 30 42 48 54 52 50 46 49 48 47 46 43 50 50 47 42 39 49 51 51 45 44 46 34 28 27 30 34 32 43 48 49 50 54 52 49 47
57 56 55 57 60 57 49 33 36 43 53 53 50 45 44 48 47 45 45 47 51 51 46 47 45 52 52 52 52 43 39 50 36 26 26 36 41 50 45 44 45 48 48 47 47
54 53 54 59 58 53 45 36 41 52 56 56 47 49 43 44 42 42 43 50 51 55 56 52 42 48 46 50 50 46 49 35 35 22 23 34 39 42 39 43 43 45 46 47 47
53 48 56 60 56 48 36 37 45 54 56 50 51 50 51 47 44 41 45 50 55 54 56 51 45 38 44 41 43 41 40 43 43 36 28 27 36 49 50 49 44 46 48 47 47
50 44 56 57 45 45 41 44 49 51 57 55 56 56 54 54 45 44 43 51 58 56 48 51 47 32 38 45 47 46 44 44 34 32 37 31 40 49 50 51 49 47 48 48 47
46 47 56 54 41 41 45 45 47 49 50 53 52 55 58 53 48 48 49 55 57 54 49 50 40 33 34 38 40 40 44 48 48 38 37 31 38 47 47 48 49 47 46 47 47
47 41 47 50 50 46 41 41 42 51 49 54 54 55 51 50 55 48 49 52 53 54 51 53 43 41 37 41 44 36 40 45 45 36 36 40 44 39 44 44 47 47 48 48 47
46 43 45 40 43 46 47 45 42 42 49 52 48 50 47 43 47 48 50 45 47 49 49 50 36 41 46 49 45 40 40 42 41 43 38 43 44 51 48 45 48 48 47 47 46
40 39 42 41 42 41 45 43 44 45 47 43 45 49 50 46 48 45 51 48 43 44 44 45 37 41 38 44 41 40 45 42 43 44 45 46 45 52 54 52 47 49 47 46 45
43 43 41 41 41 39 36 40 43 48 50 52 49 48 46 49 54 56 54 52 50 43 40 38 36 33 33 39 37 33 38 43 44 46 46 39 48 51 52 49 49 48 48 47 46

GFSSW_sfc_temp_039.txt.gz
Temp
64 64 64 64 64 64 64 64 64 64 64 64 64 64 64 64 65 67 67 69 69 71 70 71 71 70 70 65 65 61 51 48 52 55 57 61 60 63 64 64 61 60 57 58 64
63 63 64 64 64 64 64 64 64 64 64 64 64 64 64 64 65 68 70 72 72 71 71 69 67 68 63 62 62 56 48 52 57 57 57 63 60 63 60 59 56 55 59 61 61
63 63 63 63 63 64 64 63 63 63 64 63 63 64 63 62 64 66 70 72 72 70 71 71 70 67 60 60 58 56 52 58 59 60 63 63 60 63 60 55 58 58 58 60 58
62 62 62 62 63 63 63 63 63 63 63 63 63 63 62 63 54 67 70 71 71 71 71 69 66 59 56 55 61 52 59 60 62 62 61 58 61 58 59 57 59 59 59 57 56
62 61 61 62 62 63 63 63 63 62 61 63 64 63 64 61 64 70 68 69 70 70 68 66 63 60 54 58 59 54 57 61 61 59 58 61 57 58 55 56 59 60 59 55 54
62 61 61 61 61 62 63 63 63 61 61 63 64 63 61 55 71 73 70 68 71 68 67 68 62 63 58 58 56 57 58 59 61 60 59 58 55 56 57 56 57 58 54 53 54
62 62 60 61 61 62 62 62 62 61 61 63 64 65 60 63 70 71 71 67 68 68 66 66 66 63 60 56 60 58 53 56 59 59 57 58 54 56 57 56 55 54 51 52 53
62 62 61 60 60 61 61 61 61 61 62 63 64 59 57 67 65 70 70 67 69 69 67 66 66 62 60 59 57 52 49 45 55 58 56 56 48 58 57 55 53 52 49 51 52
61 60 62 60 60 60 60 61 60 62 63 63 59 56 56 67 64 68 67 66 66 66 66 72 64 58 57 50 46 46 41 45 52 56 55 52 49 55 56 56 52 50 49 50 49
60 60 60 61 60 60 60 61 61 60 63 65 66 54 60 59 62 66 65 68 63 61 61 59 55 49 49 46 39 43 43 48 47 54 52 48 49 54 56 55 54 51 49 49 49
60 60 60 60 60 60 58 56 54 52 54 57 57 58 60 61 64 61 65 65 63 57 49 52 46 43 49 51 52 49 46 45 49 54 51 49 50 54 56 53 51 50 50 50 50
60 60 60 61 60 60 56 52 56 56 50 60 60 61 63 63 56 59 65 57 55 49 51 47 43 52 54 53 52 49 46 45 50 53 50 49 49 53 55 54 56 56 54 52 46
59 59 60 60 60 57 54 56 62 59 48 56 59 59 60 61 57 55 61 57 52 49 49 45 51 56 53 51 50 48 46 45 48 48 47 45 42 48 54 57 56 58 58 55 49
59 59 59 59 55 55 52 60 62 59 41 48 54 58 59 60 53 61 62 59 53 49 50 48 56 54 51 50 52 44 50 51 48 43 37 44 34 44 51 52 52 57 53 53 48
59 58 58 60 56 53 59 62 62 57 28 52 51 61 58 58 54 52 58 56 50 51 52 47 49 49 48 50 53 47 50 47 46 40 36 37 35 42 50 50 56 55 54 49 48
58 58 58 57 57 59 61 63 59 42 29 46 49 49 50 52 50 51 53 57 56 51 49 48 50 51 51 48 51 50 47 45 42 39 28 39 39 37 47 52 54 48 47 47 46
58 58 57 60 53 61 62 57 36 31 50 44 43 47 47 46 46 48 46 45 45 41 39 44 46 48 51 46 48 47 43 31 28 26 30 38 35 45 49 52 53 52 47 46 46
57 57 57 59 60 58 55 41 29 37 42 48 46 44 42 46 44 45 43 41 47 45 41 41 35 46 50 48 44 41 43 32 26 25 28 34 31 41 49 50 48 52 51 46 44
56 56 55 57 58 57 46 31 36 39 47 46 45 39 39 44 43 42 40 40 46 48 44 40 40 47 48 51 53 41 39 46 35 21 24 33 39 46 45 45 43 45 46 45 45
52 53 54 59 58 53 43 36 38 51 51 51 44 44 36 40 40 39 39 45 48 52 52 50 39 44 43 50 46 45 47 36 33 22 20 30 33 41 41 45 43 43 44 45 45
50 47 56 59 55 47 38 36 42 50 54 49 46 45 42 39 40 37 40 44 50 49 54 50 45 36 42 40 41 41 39 42 43 34 27 25 36 45 50 50 44 45 46 46 45
47 42 55 57 44 45 41 43 47 46 51 50 50 49 48 46 42 38 39 47 52 51 45 52 44 29 36 42 45 45 43 40 34 33 31 30 41 46 47 49 47 47 47 47 47
43 46 54 54 40 41 45 44 46 46 49 48 48 49 51 48 44 45 45 50 51 51 46 49 41 31 33 37 38 39 42 48 46 35 34 30 40 45 44 46 46 43 44 45 45
42 39 46 49 49 45 43 41 41 46 48 52 49 52 49 48 52 43 43 48 50 52 50 54 41 42 39 39 41 37 41 45 46 33 36 40 45 42 43 45 44 43 45 44 44
42 40 44 39 40 43 45 46 41 41 47 49 45 47 47 42 44 43 47 45 47 49 51 50 37 39 44 43 43 40 40 42 40 43 38 45 44 50 51 47 48 46 43 43 43
40 39 42 40 39 41 43 36 44 44 46 42 42 45 47 45 46 44 47 47 45 44 48 46 38 41 39 40 40 38 41 42 43 44 44 46 45 51 53 53 46 46 45 44 44
43 43 41 38 38 38 39 38 39 45 47 50 47 46 45 48 54 54 53 52 47 43 40 39 38 34 34 39 37 32 39 43 42 46 45 39 48 49 52 53 46 45 46 46 46

GFSSW_sfc_temp_042.txt.gz
Temp
63 63 64 64 64 64 64 64 64 64 64 64 64 64 64 64 65 65 64 68 68 71 69 69 69 68 67 63 63 56 49 46 47 51 54 57 58 59 61 61 56 57 55 56 61
63 63 63 63 63 63 64 64 63 63 64 64 64 64 64 63 64 65 70 71 72 71 68 66 63 65 61 60 59 53 46 51 54 53 54 59 59 61 58 56 52 52 55 58 60
62 62 62 63 63 63 63 63 63 63 63 63 63 64 63 61 63 64 70 72 72 70 67 67 66 64 58 57 55 53 50 55 56 57 59 60 56 59 57 52 57 56 57 57 55
62 62 62 62 62 63 63 63 63 62 60 62 63 63 62 61 52 65 70 71 72 68 68 66 63 57 54 53 58 51 55 57 59 58 59 59 58 57 57 57 59 59 57 55 54
61 61 61 61 62 62 63 63 62 61 60 61 63 63 62 59 63 68 68 69 68 67 65 63 60 57 53 54 56 52 54 58 58 58 55 58 55 56 55 52 55 57 57 54 53
62 61 61 61 61 62 62 62 62 62 62 61 63 63 59 53 67 69 67 66 68 65 63 64 60 61 58 55 54 56 55 57 58 57 57 56 53 54 55 53 54 55 53 52 52
62 62 61 60 61 61 61 62 62 62 62 62 63 62 57 61 67 67 67 65 66 65 63 63 63 61 57 54 57 55 51 54 55 56 55 56 52 54 55 53 53 52 50 50 51
61 61 61 61 60 60 61 61 61 61 62 63 63 56 55 65 63 67 66 64 67 67 65 63 64 62 58 56 56 49 48 44 53 55 54 54 46 55 53 52 50 50 47 49 50
60 60 61 61 60 60 60 60 60 61 62 63 57 54 54 66 62 66 65 64 63 64 64 70 63 56 56 48 44 44 40 42 50 54 52 51 47 53 50 51 50 48 47 48 48
60 60 60 60 61 59 60 60 60 60 62 63 63 52 57 57 61 63 63 65 61 59 59 58 52 47 46 44 38 41 40 44 44 51 48 45 48 52 52 51 52 48 47 47 48
60 60 60 60 61 60 57 55 54 52 51 55 55 56 57 59 62 60 63 62 60 56 48 50 46 43 47 49 49 46 43 43 46 53 49 48 48 52 53 50 49 48 48 48 49
60 60 60 60 61 60 55 51 55 56 49 57 56 58 61 61 55 58 63 56 53 48 49 45 43 51 52 50 48 45 43 42 48 51 49 48 46 50 51 52 54 55 51 51 46
59 59 60 60 60 57 52 54 60 58 47 53 56 56 58 60 56 55 60 55 50 47 47 43 50 53 52 48 46 45 43 42 46 45 45 42 41 47 53 52 54 54 58 55 51
59 58 58 59 55 54 51 58 59 57 41 47 52 56 57 58 52 59 60 57 50 48 47 46 52 52 47 47 49 42 50 49 46 42 36 42 35 41 48 50 51 55 53 54 50
58 58 58 59 56 53 58 60 59 58 27 49 50 59 55 56 52 50 56 54 48 49 49 46 47 47 47 48 52 47 49 46 43 38 35 35 33 39 45 46 52 59 53 52 49
57 58 58 56 56 58 60 60 58 42 29 44 48 47 49 50 48 50 52 55 53 49 47 47 49 50 51 49 51 49 45 42 38 37 29 39 38 36 44 50 51 52 50 50 47
56 56 56 59 53 59 59 52 34 29 45 42 42 47 46 44 45 46 46 45 45 40 41 44 45 47 49 46 46 46 42 31 28 26 30 35 32 45 49 51 53 55 52 45 45
56 56 56 59 59 58 55 41 28 37 38 46 43 42 41 45 44 44 42 41 47 44 40 40 36 45 48 49 45 43 42 31 25 24 28 33 30 40 48 53 48 49 49 43 41
55 52 54 57 58 57 46 32 37 37 45 44 44 38 37 42 42 39 38 40 46 46 44 37 37 43 44 47 53 40 38 45 34 18 23 33 38 45 46 47 46 46 43 39 40
48 47 52 59 58 53 41 37 39 45 49 50 44 45 37 38 39 38 37 43 45 49 50 47 37 40 42 47 44 44 47 34 31 22 20 30 31 39 40 45 49 46 42 41 40
47 43 51 58 55 48 36 36 41 47 51 47 45 45 44 39 41 36 39 44 48 46 53 50 44 35 41 39 40 40 38 39 39 32 26 22 34 43 50 49 48 48 46 42 42
45 38 52 56 43 44 41 44 46 44 50 46 48 49 44 44 41 39 39 44 49 49 44 48 45 31 36 40 40 39 40 40 32 30 30 29 41 46 46 48 47 49 46 43 44
41 40 51 53 38 39 45 45 48 45 47 44 45 47 48 45 41 42 41 47 49 49 44 48 39 28 32 36 36 37 41 47 41 33 35 30 39 43 44 45 47 47 45 42 42
41 34 40 47 47 43 42 42 43 49 48 49 49 48 47 46 48 41 40 46 48 50 49 53 42 39 36 39 39 34 37 41 45 37 37 38 45 42 44 48 48 45 43 41 42
40 37 38 36 38 42 42 44 42 41 47 49 45 47 45 41 42 43 46 44 46 47 48 50 38 43 46 42 41 37 41 41 40 43 38 46 45 51 51 48 48 48 43 40 40
35 35 38 39 39 40 42 39 34 44 46 42 42 46 48 44 46 43 46 46 45 44 47 45 39 42 38 43 39 39 38 41 43 44 44 46 45 51 49 48 45 47 44 42 42
40 44 40 39 37 36 36 40 41 43 42 45 46 44 45 46 51 53 50 51 48 47 43 39 40 36 33 40 35 32 39 40 41 46 44 39 48 46 49 50 50 47 45 45 45

GFSSW_sfc_temp_045.txt.gz
Temp
63 63 63 63 63 64 64 64 64 63 64 64 64 64 64 64 64 63 62 66 66 70 68 67 67 66 64 60 59 53 48 44 48 49 52 56 55 56 56 57 53 54 53 55 59
63 63 63 63 63 63 63 63 63 63 62 62 63 64 64 63 61 62 69 71 71 71 66 64 61 63 59 58 57 51 45 50 54 52 52 56 55 59 56 53 49 49 52 54 56
62 62 62 62 63 63 63 63 62 62 60 61 62 63 63 60 60 62 70 71 72 69 65 64 63 61 56 55 52 49 49 53 54 55 57 57 54 55 55 51 56 56 55 54 53
61 61 62 62 62 63 63 62 62 62 62 61 62 63 62 59 51 63 70 71 71 66 65 63 62 55 52 51 55 50 53 54 56 57 56 56 57 54 55 57 55 58 57 54 53
61 61 61 61 62 62 62 62 62 62 62 62 63 63 61 57 59 66 68 68 66 65 63 61 58 55 51 52 54 50 52 55 56 55 54 56 53 54 56 52 52 55 55 54 52
61 61 60 60 61 62 62 62 62 62 62 62 63 63 57 51 65 67 65 65 66 63 61 61 59 58 56 53 52 53 53 54 55 54 54 54 52 51 55 50 50 53 53 51 52
62 61 61 60 60 61 61 61 61 61 62 62 63 61 55 59 64 65 66 63 63 63 61 61 61 59 56 52 55 53 50 52 53 54 53 54 51 53 52 51 51 51 49 50 50
61 61 61 61 61 60 60 61 61 61 62 62 63 56 54 63 62 65 64 63 65 65 63 61 62 60 56 55 54 48 46 43 50 52 51 53 45 55 52 51 50 49 47 48 50
60 60 60 60 60 60 60 60 60 61 62 62 55 53 54 65 60 63 62 61 61 62 63 68 61 53 53 47 43 43 39 39 48 52 49 49 46 51 48 49 50 47 47 47 47
60 60 60 60 60 60 59 60 60 59 61 62 62 51 55 55 58 61 61 63 59 58 59 57 50 46 43 44 38 39 38 40 41 48 47 44 46 51 49 48 50 47 47 46 47
60 60 60 60 60 60 57 54 53 51 51 55 54 53 55 57 60 58 61 60 58 56 47 48 45 42 46 47 46 44 41 41 44 50 47 46 46 52 51 47 47 48 47 48 49
59 60 60 60 60 60 54 50 52 54 49 56 54 56 59 59 53 55 62 55 51 46 47 45 42 50 49 47 46 43 40 41 45 48 47 46 46 50 48 50 52 52 52 51 51
58 59 59 60 60 57 53 52 58 56 47 52 54 54 56 59 55 54 59 53 48 45 46 43 49 50 50 45 44 42 41 41 44 44 43 41 40 45 52 50 51 53 57 57 54
58 58 58 58 54 54 50 56 57 55 40 46 50 54 55 57 51 58 59 55 47 47 45 45 50 49 45 44 47 40 47 46 43 40 35 40 33 41 46 50 49 54 55 55 53
57 57 58 59 55 52 56 58 58 55 31 48 48 57 54 54 50 49 54 53 47 47 47 45 45 46 44 46 49 44 46 44 41 37 33 34 33 40 41 46 51 56 56 53 52
56 56 57 56 55 57 58 58 57 39 29 42 47 46 47 48 46 49 50 53 52 48 44 45 46 48 49 47 49 48 44 41 36 36 29 38 37 38 42 48 50 53 55 52 49
56 56 55 58 53 57 58 50 35 30 43 41 41 45 44 42 43 44 44 44 44 39 40 41 44 46 49 45 45 45 41 30 28 25 30 33 32 47 48 50 53 57 54 49 43
56 56 53 57 58 58 53 41 29 36 39 43 41 42 41 44 42 42 41 39 45 41 37 38 36 45 48 49 45 42 42 32 25 24 28 32 29 40 46 50 49 50 50 45 42
55 48 51 54 57 57 47 33 35 37 42 42 42 36 37 41 42 39 38 39 45 46 44 37 37 42 44 46 52 40 36 44 35 18 23 34 39 44 46 46 46 48 46 44 43
47 46 46 56 57 53 42 38 42 45 46 47 42 44 37 37 40 36 36 42 43 48 49 46 36 39 41 45 42 43 45 34 30 22 18 29 31 39 44 46 50 48 48 43 41
45 42 48 56 55 47 38 36 41 46 50 46 45 42 41 38 41 35 39 42 45 43 52 48 42 34 39 38 38 38 37 37 37 32 25 22 35 41 49 49 49 50 50 45 41
40 36 49 56 41 43 39 44 44 43 49 47 47 48 41 42 39 38 39 44 48 47 43 47 43 30 35 38 39 37 37 41 31 29 29 28 40 44 46 49 48 50 50 43 42
35 37 48 52 35 37 44 44 48 45 47 44 45 46 47 47 41 42 40 45 47 48 44 48 39 25 31 35 36 36 39 45 40 33 35 27 39 41 41 43 47 48 46 45 41
34 30 37 41 43 40 39 39 41 49 47 49 46 47 45 45 49 40 39 44 46 48 49 51 41 36 36 35 37 33 36 41 42 33 36 38 45 43 44 44 47 48 46 42 41
36 31 35 33 34 38 39 40 39 40 47 48 45 45 45 41 42 42 41 41 43 46 48 48 36 39 43 44 38 37 36 39 39 43 37 44 44 51 51 48 49 50 46 43 41
34 30 35 35 36 38 38 38 36 38 42 42 41 45 44 42 45 42 44 43 43 42 44 44 36 39 36 42 41 37 37 39 41 44 44 46 45 50 49 45 46 49 48 44 43
39 37 36 34 33 32 35 36 38 42 43 43 45 42 42 46 50 53 51 51 49 47 41 40 36 33 32 37 37 31 38 41 41 44 44 39 48 46 52 51 52 54 45 45 46

GFSSW_sfc_temp_048.txt.gz
Temp
63 63 63 63 63 63 63 63 63 63 61 61 63 63 63 64 65 63 61 65 65 70 68 65 66 64 62 58 57 52 47 43 46 48 50 54 53 52 53 54 51 53 51 52 57
62 62 63 63 63 63 63 63 63 62 62 62 62 63 63 63 62 62 68 71 71 71 65 62 59 62 58 55 55 50 45 49 51 49 49 53 53 56 53 51 50 49 50 50 54
62 62 62 62 62 63 63 62 62 62 62 62 62 63 63 60 60 61 71 71 71 69 64 62 62 59 54 53 50 48 47 51 52 53 54 55 51 55 53 49 56 56 54 52 51
61 61 61 61 62 62 62 62 62 62 62 62 63 63 62 60 50 63 70 71 71 64 63 62 60 54 50 49 52 48 50 52 54 54 54 53 55 53 53 56 53 57 54 51 52
61 60 60 61 61 62 62 62 62 62 62 62 63 63 60 57 58 66 68 68 64 63 61 60 56 54 50 51 52 49 50 53 53 53 51 54 52 54 54 55 52 53 53 52 52
61 60 60 60 61 61 62 62 62 62 62 62 63 62 57 51 63 66 64 63 64 62 59 60 57 57 54 50 50 51 51 51 52 52 52 51 49 50 54 49 49 52 52 51 51
61 61 61 60 60 61 61 61 61 61 62 62 63 60 55 58 62 63 65 61 62 61 59 59 58 57 53 50 53 51 47 50 49 50 51 52 50 52 52 49 51 49 49 49 50
61 60 60 60 61 60 60 60 61 61 62 62 63 55 54 61 60 63 62 61 64 63 62 60 61 58 54 52 52 47 45 42 48 50 50 51 44 54 51 50 52 49 47 48 50
60 60 60 60 60 60 60 60 60 61 62 62 55 52 53 64 58 60 61 60 60 61 61 65 59 51 52 46 43 42 38 37 46 50 48 47 44 50 46 47 50 48 47 47 48
60 60 60 60 60 60 60 60 60 59 61 61 61 51 54 53 57 59 59 61 58 57 57 56 49 45 42 43 38 38 36 38 39 45 44 42 44 50 50 47 49 47 47 46 47
60 60 60 60 60 60 56 53 53 51 50 54 52 51 53 56 59 56 58 58 56 55 47 46 45 42 45 45 43 42 38 39 42 47 44 44 44 49 51 46 47 47 46 49 50
58 59 60 60 60 60 54 50 51 52 48 54 53 54 57 57 51 54 60 53 50 45 45 44 41 48 48 46 44 41 38 39 43 45 44 44 44 50 49 48 50 53 51 51 51
58 58 59 59 60 56 51 51 55 54 47 51 52 53 55 57 54 53 58 51 46 43 44 41 47 48 49 43 43 41 39 39 42 42 41 39 39 43 49 47 49 50 56 55 54
57 57 58 58 55 53 51 55 56 54 41 45 49 53 53 56 50 55 57 54 45 46 43 43 47 47 43 42 46 38 45 44 41 38 33 37 31 39 46 49 49 55 51 54 55
56 57 57 59 55 52 55 57 55 55 31 48 47 56 52 52 49 48 53 51 45 45 46 44 43 43 42 44 47 43 44 42 39 36 32 31 32 38 40 45 51 57 54 53 54
56 56 56 56 55 56 58 57 55 40 31 42 46 45 46 46 45 48 48 52 50 45 42 43 44 47 47 45 46 46 43 39 35 35 28 35 36 37 40 47 48 54 56 53 49
55 56 54 55 52 57 57 51 35 31 44 40 40 44 43 41 42 43 43 42 42 37 38 39 42 44 46 43 43 42 41 31 27 24 28 32 32 46 46 51 49 53 54 49 47
55 56 53 56 57 57 53 42 30 33 39 44 40 40 41 43 41 41 40 38 43 39 35 37 34 43 46 47 43 41 41 31 24 22 28 30 29 39 46 48 49 48 50 45 46
55 47 48 52 56 56 47 34 36 37 43 41 42 38 36 39 40 39 36 37 43 44 41 35 36 41 42 44 51 39 37 43 36 17 23 34 37 45 45 46 47 46 46 46 44
43 43 44 54 55 52 43 38 41 45 46 46 39 43 35 36 38 37 36 42 43 47 48 44 36 37 40 44 42 42 44 34 31 23 18 30 31 37 44 47 48 47 48 48 43
41 38 46 53 55 45 37 38 41 45 50 44 42 40 39 36 39 35 39 41 43 43 52 47 41 34 38 37 38 39 37 36 37 32 25 21 37 40 47 49 48 51 49 46 46
38 33 47 53 40 41 37 42 45 42 48 48 47 45 41 39 37 36 38 43 46 46 42 46 41 31 35 36 37 35 37 38 31 28 27 27 39 44 45 47 46 48 48 44 43
33 34 45 49 33 35 40 41 44 44 45 45 45 46 46 46 40 41 39 45 46 47 44 46 39 26 32 34 34 34 37 41 38 33 33 26 39 42 40 43 44 45 47 46 43
35 28 35 41 42 38 37 38 38 45 45 47 45 46 43 44 47 39 40 42 45 47 48 50 40 36 34 35 36 32 35 40 44 32 38 36 45 44 42 44 47 47 47 46 45
36 30 33 30 32 34 37 38 37 37 44 46 43 43 42 38 40 41 41 41 41 45 46 47 36 37 43 40 36 36 35 38 40 43 35 43 43 50 52 51 53 52 47 46 44
34 29 33 30 33 35 35 33 33 37 39 40 39 44 42 38 39 36 42 40 41 40 44 44 35 38 35 40 37 35 35 39 39 42 43 44 43 56 57 49 46 48 50 50 46
40 40 36 32 30 28 30 34 34 38 42 43 41 41 41 44 48 50 48 48 48 45 39 39 36 33 32 37 35 31 36 40 41 45 44 37 46 53 52 53 53 53 48 48 48

GFSSW_sfc_temp_051.txt.gz
Temp
63 63 63 63 63 63 64 63 63 63 62 63 63 63 64 64 65 62 61 66 66 70 67 65 66 64 64 60 60 57 51 47 50 50 55 56 58 58 60 59 59 60 61 62 60
62 62 63 63 63 63 63 63 63 63 63 63 63 63 64 63 62 62 68 71 71 70 64 63 60 62 59 58 57 54 48 51 54 54 55 57 58 59 59 58 58 59 59 57 58
61 62 62 62 62 63 63 62 62 63 63 63 63 63 63 60 60 60 71 71 71 69 64 63 63 62 57 56 53 51 51 53 55 57 57 57 56 58 58 55 60 60 60 55 56
61 61 61 61 62 62 62 62 62 62 62 63 63 63 62 58 51 62 69 70 70 64 64 62 61 56 52 52 54 52 52 54 57 56 56 56 57 56 56 62 60 61 60 54 55
61 60 60 61 61 62 62 62 62 62 62 62 63 63 60 56 58 64 68 68 64 63 61 60 58 55 52 53 54 52 52 54 55 54 54 56 55 56 56 59 57 57 55 55 56
61 60 60 60 61 61 61 62 62 62 62 62 63 62 57 51 62 65 63 63 64 63 59 60 59 58 55 52 52 53 53 53 54 54 54 54 53 54 58 56 56 55 56 54 55
61 61 60 60 61 61 61 61 61 61 62 62 63 60 55 57 61 62 64 60 61 61 59 59 61 58 55 52 53 52 49 52 51 53 53 54 53 54 56 54 56 55 54 53 53
61 60 60 60 60 60 60 60 61 61 62 62 63 55 53 61 61 63 62 61 63 63 61 58 61 58 55 53 52 48 47 44 50 51 51 53 47 55 53 54 57 55 53 51 54
60 60 60 60 60 60 60 60 60 61 62 63 54 52 51 64 59 60 61 61 60 61 60 64 58 51 52 48 44 43 41 40 48 51 49 49 48 53 51 50 53 53 52 51 52
60 60 60 60 60 60 60 60 60 59 60 61 60 51 54 53 56 58 59 61 59 57 57 56 49 46 44 45 40 41 40 40 42 47 46 45 46 52 52 51 53 52 52 51 52
59 59 60 60 60 60 56 52 53 50 50 53 51 51 53 55 58 56 58 58 56 55 47 47 46 43 46 45 44 44 41 41 43 48 46 45 45 49 54 50 50 52 52 53 53
58 59 60 60 60 60 54 49 49 50 48 52 52 53 55 56 51 53 59 53 50 45 45 44 42 47 48 46 45 42 39 41 44 45 46 44 46 50 50 55 54 57 57 56 57
57 58 59 59 60 56 51 52 55 52 46 51 52 52 54 56 53 53 58 51 45 42 43 42 46 47 48 42 43 41 40 39 43 43 42 41 41 44 49 49 51 52 58 58 58
57 57 58 58 55 54 52 54 55 53 40 45 49 52 53 55 49 53 55 53 44 46 42 43 46 46 43 42 45 38 44 43 40 40 35 40 33 41 47 49 50 53 53 55 58
56 57 57 59 53 52 54 56 55 53 31 47 46 55 50 51 48 47 52 51 44 45 45 44 42 42 41 44 46 43 43 42 40 37 35 35 34 41 42 46 50 55 57 58 53
56 56 56 56 55 56 57 57 55 40 31 42 45 43 45 45 45 46 49 51 48 45 41 42 43 45 46 43 45 44 42 39 35 36 29 35 39 39 42 47 50 54 55 55 52
55 55 54 56 52 57 57 52 36 30 44 39 39 43 41 40 41 42 43 42 41 37 36 38 41 42 46 42 43 41 40 31 28 25 30 32 33 46 48 50 50 56 57 53 52
55 55 52 55 56 57 52 42 30 34 37 41 41 40 40 42 40 39 39 37 42 39 35 36 34 42 45 47 42 39 40 32 25 23 29 30 30 41 47 49 49 49 50 48 47
54 45 46 50 55 55 46 33 37 36 41 42 42 38 35 38 40 37 36 36 42 42 40 34 35 40 42 43 49 39 36 42 35 17 24 33 37 45 45 47 48 51 46 48 48
42 41 42 52 53 51 42 37 41 46 43 43 40 42 35 37 38 37 36 41 42 45 45 42 35 36 39 44 41 41 44 35 31 23 19 30 32 40 45 49 51 48 50 49 48
39 35 44 51 54 44 36 38 40 45 48 44 39 39 38 37 38 35 40 41 43 41 51 47 41 33 38 37 37 39 37 35 37 32 25 22 36 42 48 49 49 50 49 48 49
37 30 45 50 39 40 37 39 46 44 46 46 45 46 41 41 39 38 36 41 45 45 42 45 40 30 34 36 37 36 37 38 32 28 28 28 39 44 48 48 46 47 48 48 48
32 32 43 46 30 33 36 39 41 42 45 44 43 44 48 43 39 39 39 44 46 46 43 46 38 25 31 34 33 34 36 39 37 33 30 28 39 42 44 47 47 48 48 47 47
36 27 32 38 39 35 34 35 35 41 42 45 43 44 42 41 46 40 38 42 44 46 48 50 40 35 34 35 36 32 34 39 43 32 38 34 45 51 42 45 47 49 49 49 48
37 31 32 25 30 35 37 37 34 34 41 42 40 41 41 38 38 38 41 38 42 45 46 47 35 38 40 41 37 36 35 36 39 43 38 43 43 50 53 50 54 55 51 50 51
34 32 33 29 32 31 33 31 33 36 38 38 37 40 41 39 41 38 39 41 42 38 42 43 38 38 36 39 40 35 36 36 39 42 43 45 44 56 53 51 46 49 49 50 49
40 40 36 32 29 27 27 31 33 36 40 41 39 37 34 39 44 46 48 46 44 43 40 38 35 33 32 38 34 30 36 39 41 41 42 37 46 52 50 52 53 51 47 51 51

GFSSW_sfc_temp_054.txt.gz
Temp
63 63 63 63 63 63 64 63 63 63 63 63 64 64 64 64 65 70 73 74 74 71 69 78 79 78 78 74 73 73 71 65 66 64 69 70 70 70 72 72 70 73 73 72 76
62 62 63 63 63 63 63 63 63 63 63 63 63 64 64 63 72 73 72 72 72 71 76 77 76 77 76 71 73 75 69 68 70 72 70 70 72 73 71 70 70 71 72 70 70
62 62 62 62 62 63 63 62 62 63 63 63 63 63 63 66 73 71 71 72 72 73 76 77 77 76 71 72 69 67 69 68 68 70 70 70 69 73 72 68 76 74 76 70 70
61 61 61 61 62 62 62 62 62 62 63 63 63 63 63 72 63 72 70 71 71 75 76 75 75 72 69 68 68 67 66 68 67 67 67 67 71 69 71 78 74 79 78 73 70
61 60 61 61 61 62 62 62 62 62 62 63 63 63 69 70 69 73 68 71 75 76 74 73 73 70 68 67 67 66 66 66 67 66 67 66 68 70 69 78 72 70 69 72 73
61 60 60 60 61 61 62 62 62 62 62 62 63 62 72 65 71 73 72 72 74 75 72 74 73 73 68 66 66 66 65 65 66 66 66 64 68 66 73 75 73 70 73 74 72
61 60 60 60 61 61 61 61 61 61 62 63 63 66 69 68 72 73 73 72 72 74 71 71 73 72 70 64 65 64 63 66 66 65 66 65 63 64 75 67 71 72 74 73 72
61 60 60 60 60 60 61 61 61 61 62 63 63 68 66 70 73 72 73 72 73 73 73 71 74 69 67 66 65 62 63 61 63 62 64 64 63 70 68 69 71 74 75 73 73
60 60 60 60 60 60 60 60 60 61 62 64 67 67 64 69 68 70 72 71 71 71 71 71 71 65 66 65 61 60 60 57 60 62 62 62 63 68 64 64 69 73 73 73 73
60 60 60 60 60 60 60 60 61 62 65 66 66 64 64 63 65 67 71 70 69 68 69 68 66 65 63 63 56 58 56 55 58 60 58 60 60 69 71 64 69 73 74 73 71
59 60 60 60 60 60 61 64 65 62 63 63 62 62 61 64 67 65 68 68 68 67 62 59 61 58 64 64 59 59 57 57 59 59 57 60 61 66 70 70 67 70 72 74 73
58 59 60 60 60 60 62 61 58 59 56 60 59 60 63 65 59 62 68 65 62 58 58 58 56 64 60 57 57 56 55 57 57 55 56 59 58 65 67 67 71 72 73 75 76
57 57 58 60 60 60 59 60 61 60 56 58 59 59 61 64 61 60 65 61 58 53 56 57 58 57 58 54 53 55 55 56 55 53 55 53 57 63 65 64 67 69 72 74 75
57 57 58 59 56 59 58 60 61 63 51 53 55 59 59 62 58 59 65 63 56 56 54 57 57 54 53 53 56 52 57 54 51 52 51 53 50 62 66 65 65 69 72 73 73
56 56 57 58 55 56 58 61 61 61 34 52 52 62 57 58 56 55 61 61 55 53 55 56 51 51 51 55 57 54 53 53 51 51 47 50 47 58 54 60 64 70 72 74 75
56 56 56 56 56 57 61 62 58 43 32 48 52 49 51 53 52 54 57 62 59 53 52 53 53 55 57 52 55 52 51 50 49 48 43 52 49 57 63 63 64 68 71 72 71
55 55 56 56 52 59 58 56 39 31 45 45 46 49 48 46 48 51 51 51 52 47 48 48 51 53 53 50 52 53 52 45 41 38 41 43 43 54 62 65 64 67 73 70 67
55 55 54 56 56 57 54 44 32 38 42 47 46 46 46 49 48 46 47 47 52 50 49 46 43 50 54 56 52 50 54 47 35 37 46 38 40 54 60 63 63 64 66 65 63
53 51 51 56 55 54 48 34 40 44 47 44 44 43 43 46 48 47 46 48 52 52 49 45 45 49 49 53 58 48 45 56 46 31 38 50 56 61 59 59 60 62 64 65 67
48 47 47 55 57 51 42 38 44 51 49 49 42 43 42 43 44 45 46 53 50 52 58 52 45 45 48 52 51 51 55 42 45 33 33 48 47 51 58 61 64 62 64 65 64
46 41 49 54 56 46 36 39 46 52 52 47 46 44 45 43 45 43 46 51 53 50 56 56 48 41 46 46 46 47 46 45 47 43 38 38 50 61 62 64 63 62 60 62 63
43 36 50 53 41 44 39 45 46 46 53 51 51 49 47 47 43 44 43 49 53 52 46 52 46 42 44 46 47 48 50 50 43 36 39 38 47 58 63 64 60 61 60 62 61
39 40 50 48 35 37 43 44 47 47 47 47 47 50 50 42 36 44 46 52 51 51 50 50 38 33 38 43 44 43 47 51 52 43 38 37 47 58 58 59 62 61 62 61 61
39 33 40 41 45 41 39 39 39 46 47 48 47 49 47 45 49 45 45 49 49 52 49 51 39 37 36 46 47 41 44 47 48 40 42 45 50 60 60 58 62 61 62 65 64
40 36 40 32 35 37 41 40 38 38 45 47 44 44 44 40 43 42 46 47 48 47 48 49 38 43 45 49 44 45 44 44 43 47 43 48 50 56 60 62 64 67 66 64 64
34 34 36 37 38 37 37 35 36 39 42 40 39 43 43 40 43 41 44 43 42 43 41 44 36 42 37 46 45 41 46 46 45 48 48 50 50 61 63 65 60 58 59 60 63
40 41 39 37 35 34 35 37 37 40 41 43 41 38 37 40 44 45 45 44 45 43 43 40 35 32 31 40 38 31 38 44 46 50 50 44 52 59 59 59 60 61 60 58 60

GFSSW_sfc_temp_057.txt.gz
Temp
63 63 63 63 63 63 63 63 63 63 63 64 64 64 64 64 65 73 76 75 76 71 70 83 83 83 84 80 80 81 73 69 71 70 74 77 75 77 80 78 77 78 78 78 83
63 63 63 63 63 63 63 63 63 63 63 64 64 64 64 64 76 76 72 72 72 72 80 80 80 81 79 77 79 76 71 72 77 79 75 76 77 78 74 76 76 77 78 77 78
62 62 62 62 62 63 63 62 62 63 63 63 63 63 63 67 75 75 71 72 72 74 82 82 83 81 76 78 77 76 71 76 75 76 76 76 75 78 74 73 79 78 80 75 75
61 61 62 62 62 62 62 62 62 62 63 63 63 63 63 75 64 75 70 71 71 79 80 79 79 75 73 71 75 71 73 74 73 71 71 72 77 73 75 79 81 85 85 78 75
61 61 61 61 61 62 62 62 62 62 62 63 63 63 71 72 73 77 68 72 78 79 79 78 76 76 71 74 72 71 72 71 71 70 71 71 72 74 76 82 81 78 76 79 77
61 60 60 60 61 61 62 62 62 62 62 63 63 62 74 67 75 78 76 76 79 80 77 79 78 79 75 72 71 72 71 71 71 71 71 67 73 69 77 82 82 78 77 79 79
61 60 60 60 61 61 61 61 61 61 62 63 63 70 72 69 77 78 76 76 76 79 75 76 78 75 75 69 71 70 66 70 71 71 70 69 66 68 78 75 76 79 78 80 80
60 60 60 60 61 61 61 61 61 61 62 63 64 73 70 73 79 75 78 76 78 79 77 77 79 74 72 72 70 67 67 63 71 68 68 67 63 73 78 77 74 78 80 80 80
60 60 60 60 60 60 60 60 60 61 62 64 71 71 68 71 71 74 77 75 75 76 75 77 77 71 69 67 64 65 62 64 65 68 67 65 66 75 72 72 73 77 80 80 81
60 60 60 60 60 60 60 61 62 63 67 71 72 66 67 66 69 71 75 76 73 72 72 72 72 67 68 66 57 62 60 63 63 65 63 64 63 72 76 72 72 77 79 80 79
58 59 60 60 60 60 65 68 67 65 67 67 65 64 65 67 70 69 72 72 73 71 64 66 63 59 65 68 68 65 64 62 67 65 60 64 65 70 75 76 75 76 76 78 80
57 58 59 60 60 61 65 66 61 62 61 66 64 64 66 69 62 66 71 67 65 61 63 61 57 68 65 66 62 62 60 61 67 63 58 63 62 69 72 73 75 76 78 79 81
56 57 58 59 60 62 65 64 66 65 59 62 63 64 64 66 65 64 68 67 63 62 60 60 62 65 62 59 58 60 59 61 60 59 62 59 60 67 75 74 74 76 78 79 80
55 55 57 59 57 65 63 64 67 66 56 57 58 62 62 65 60 63 71 66 61 59 62 61 63 58 57 59 61 56 64 61 57 55 53 60 51 64 71 73 75 75 76 78 79
55 54 54 56 62 60 62 66 66 64 37 58 55 64 61 61 60 57 65 63 60 58 59 58 55 53 54 59 62 58 59 58 56 54 53 55 49 60 70 65 71 75 77 80 81
55 55 55 56 61 61 65 65 62 46 34 51 56 54 54 57 56 57 59 65 63 59 57 59 57 60 60 56 60 58 56 56 55 53 44 55 53 57 66 70 72 75 77 78 76
55 55 56 57 54 60 60 58 41 33 51 50 50 53 54 52 52 55 53 53 54 48 51 55 55 57 58 53 55 58 55 46 44 41 42 50 49 57 67 71 72 72 74 77 73
55 54 57 57 57 58 55 44 32 40 48 51 51 51 49 53 53 51 52 51 57 58 53 49 46 54 57 58 54 52 56 47 38 41 47 43 44 58 69 72 72 71 72 72 72
54 56 54 59 56 54 47 34 39 45 54 49 49 47 48 50 51 51 52 53 57 58 50 52 49 57 56 60 62 52 47 59 48 36 40 51 59 68 63 63 67 69 70 71 72
52 50 51 58 56 52 43 39 47 57 55 54 46 50 46 48 46 49 52 57 55 58 61 57 47 50 51 55 56 54 60 45 47 34 34 47 51 55 62 66 68 67 69 70 69
51 45 52 58 58 46 37 42 50 55 56 51 50 49 49 44 44 45 50 55 58 56 60 58 51 44 48 47 50 48 48 49 51 47 40 39 49 68 66 68 68 67 66 67 67
48 39 53 56 42 45 39 45 48 52 56 53 54 52 50 49 46 46 47 53 57 55 49 55 51 44 47 53 53 56 53 52 43 39 45 43 47 62 67 68 64 66 66 68 67
43 45 54 50 38 41 47 47 50 48 50 51 49 53 54 49 41 47 51 57 56 54 49 50 40 35 40 46 48 46 52 51 54 46 40 37 46 65 68 65 67 65 67 67 66
42 37 43 43 48 45 43 43 43 51 50 52 51 54 50 47 50 45 46 53 54 55 49 47 38 36 37 46 51 45 48 51 49 40 42 45 51 60 64 65 67 67 65 67 68
43 40 45 34 37 42 46 45 41 41 48 50 46 48 47 42 45 46 50 51 48 50 49 45 33 38 44 47 48 47 47 49 45 47 42 48 50 57 62 64 67 69 69 68 68
37 38 42 41 44 40 41 39 40 44 44 42 43 47 48 43 46 44 44 44 47 50 48 45 35 42 36 46 47 43 48 49 49 49 50 51 51 63 65 66 66 66 66 65 65
40 45 43 40 39 39 36 39 40 44 47 49 47 45 43 46 47 47 47 45 42 39 41 38 35 33 31 41 39 31 38 46 48 51 51 45 53 60 60 61 62 64 65 64 65

GFSSW_sfc_temp_060.txt.gz
Temp
64 63 63 63 63 63 63 63 63 63 64 64 64 64 64 64 64 70 73 71 73 71 69 78 78 77 76 72 72 70 58 56 61 61 62 69 65 66 67 67 65 69 64 66 74
63 63 63 63 63 63 63 63 63 63 63 63 64 64 64 63 70 73 70 72 72 71 75 75 74 75 70 70 69 63 57 61 69 68 65 68 67 67 62 64 64 65 66 68 71
62 62 62 62 62 63 63 62 62 63 63 63 63 63 63 65 70 71 70 72 72 72 77 78 77 74 67 68 67 65 58 66 68 68 69 67 65 68 64 61 67 67 65 68 67
62 62 62 62 62 62 62 62 62 62 63 63 63 63 63 71 58 72 70 71 71 74 76 74 72 65 62 61 69 58 67 67 67 65 64 63 68 64 65 63 69 69 70 67 66
61 61 61 61 61 62 62 62 62 62 62 63 63 63 68 66 68 75 69 71 75 75 73 72 69 67 61 65 65 61 64 66 66 62 63 66 62 63 64 70 70 71 70 67 66
60 60 60 60 61 61 62 62 62 62 62 63 63 62 67 61 73 77 73 72 77 74 72 71 69 71 66 65 61 64 65 64 64 64 63 60 61 60 65 69 69 69 66 66 67
61 60 60 60 61 61 61 61 62 62 62 63 63 68 67 65 74 75 74 71 72 74 70 71 71 66 67 61 64 63 56 60 62 63 60 60 57 59 66 66 66 66 65 68 69
60 60 60 60 60 61 61 61 61 61 62 63 64 67 62 71 74 73 75 71 73 75 73 70 71 67 63 64 62 57 55 49 61 62 59 55 50 64 65 66 64 65 65 67 69
60 60 60 60 60 60 60 60 60 61 62 63 65 65 60 69 69 72 73 71 71 71 70 75 69 63 61 56 52 53 46 51 54 62 58 56 52 60 62 61 59 63 65 67 68
60 59 60 60 60 60 60 61 62 61 63 70 71 59 63 63 66 69 70 71 67 66 66 64 62 55 55 52 44 48 47 53 49 56 53 52 52 61 63 63 61 62 64 66 67
58 59 60 60 60 60 61 63 60 58 63 61 62 62 64 65 67 66 69 68 67 63 55 58 52 48 55 58 59 54 54 51 55 56 51 53 54 59 64 63 61 61 63 65 67
56 57 58 60 60 60 59 61 58 59 57 64 63 63 66 67 60 63 67 61 60 54 58 52 47 59 60 59 57 52 50 50 56 56 51 51 53 58 62 63 64 64 64 65 66
55 56 56 59 60 60 63 62 65 63 54 58 62 62 61 64 61 59 64 61 57 54 54 50 54 61 58 52 52 50 49 50 50 52 53 46 47 53 60 63 64 66 68 67 66
54 55 55 58 57 64 61 65 66 64 49 53 55 59 61 62 56 62 65 60 55 53 55 53 58 55 52 52 54 48 56 55 52 46 40 48 35 48 58 59 62 62 61 62 65
54 54 54 56 57 57 60 66 65 60 33 55 52 62 60 57 55 55 61 58 54 53 53 50 50 49 49 53 57 50 53 51 49 43 42 42 36 46 55 55 60 63 64 63 63
55 54 54 55 58 59 64 63 60 45 32 49 54 52 52 54 53 55 55 59 56 54 51 49 52 52 53 52 53 54 50 49 46 44 32 43 43 43 50 55 58 60 62 63 60
55 55 53 54 51 60 59 56 41 32 51 47 48 52 52 49 50 52 50 48 47 42 42 49 48 50 53 48 50 48 46 33 31 28 30 42 40 49 56 60 59 60 58 58 58
55 54 56 56 55 56 55 46 32 39 47 53 52 51 48 51 50 49 47 45 51 49 45 42 38 47 52 51 46 45 46 34 27 28 31 36 34 45 58 58 58 60 59 56 57
54 53 52 57 55 54 48 33 36 44 52 48 49 45 45 49 48 47 45 46 51 52 44 43 44 49 51 52 53 45 40 49 38 26 27 37 45 55 56 57 57 57 58 58 58
50 48 50 58 56 51 43 39 42 52 52 52 44 49 43 45 43 45 46 51 50 55 56 49 41 45 45 50 49 46 51 37 36 23 23 35 38 43 50 54 57 54 53 56 56
48 42 49 57 55 46 36 39 46 56 55 49 46 47 47 47 45 43 46 50 53 51 54 50 44 37 43 42 43 42 41 43 45 38 28 28 37 52 52 55 55 54 57 53 52
46 36 50 54 41 42 38 44 48 50 54 52 51 50 47 47 45 41 42 45 53 52 46 49 46 35 39 45 45 44 46 46 35 33 34 32 41 54 56 56 57 56 57 56 56
41 42 50 49 35 37 44 44 48 47 49 49 47 50 52 47 39 44 45 52 53 51 44 48 38 27 34 39 42 40 45 47 46 37 32 28 39 57 52 55 55 53 52 57 55
41 34 41 42 44 40 40 41 41 49 48 51 49 51 48 46 48 43 44 50 51 51 48 48 38 35 33 39 43 38 41 45 44 31 38 38 44 52 53 53 55 55 54 55 57
40 36 41 31 34 38 41 43 40 40 47 49 46 46 45 41 43 42 46 44 47 46 46 44 33 36 39 42 43 41 38 40 40 40 36 42 43 51 55 55 56 58 58 58 59
35 35 40 36 40 37 39 37 38 43 43 41 41 45 46 41 44 40 43 43 44 44 44 44 34 36 33 40 41 38 42 43 43 43 43 44 44 56 58 59 58 59 57 56 56
41 42 39 37 35 35 34 37 39 42 45 47 45 43 41 43 44 43 44 43 42 39 41 38 34 32 30 35 35 31 36 40 43 46 46 41 49 53 52 54 56 56 55 57 58

GFSSW_sfc_temp_063.txt.gz
Temp
64 63 63 63 63 63 64 63 63 63 64 64 64 64 64 64 64 66 67 70 71 71 70 71 70 69 70 65 65 62 52 49 52 55 56 61 58 63 62 64 62 63 62 63 68
64 63 63 63 63 63 63 63 63 63 63 63 64 64 64 63 66 66 69 72 72 71 70 68 66 68 62 62 62 56 49 53 59 56 56 62 60 62 59 59 56 58 61 64 66
63 62 62 62 62 63 63 62 62 63 63 63 63 63 63 63 64 65 70 72 72 71 71 70 69 68 59 60 58 57 53 60 59 61 62 61 59 62 60 54 61 61 61 63 62
62 62 62 62 62 62 62 62 62 62 63 63 63 63 62 63 54 67 70 71 71 70 70 68 65 60 56 56 61 55 60 62 61 61 60 58 61 58 60 61 63 65 66 63 61
61 61 61 61 61 62 62 62 62 62 62 63 63 63 64 60 62 70 68 69 69 69 67 66 61 60 55 58 62 56 58 62 61 59 57 60 56 58 58 64 63 64 64 63 63
60 60 60 60 61 61 62 62 62 62 62 63 63 63 61 55 69 72 70 69 69 66 65 64 62 63 59 59 57 57 58 60 59 59 58 56 55 56 62 63 61 63 61 60 61
60 60 60 60 61 61 61 61 62 62 62 63 63 65 61 60 69 70 70 67 67 67 65 65 65 62 60 56 59 58 52 54 57 58 55 57 53 56 61 61 62 61 59 60 61
60 60 59 60 60 60 61 61 61 61 62 63 63 61 58 67 65 69 69 66 68 69 67 65 65 63 60 58 57 51 51 46 54 57 55 55 47 58 62 59 61 60 57 59 62
59 59 59 59 59 60 60 60 60 61 62 63 60 59 55 67 64 66 66 66 66 65 65 72 65 57 56 50 45 46 41 45 49 57 54 51 47 57 60 57 57 57 58 60 60
60 59 59 59 59 60 60 61 61 61 62 66 67 56 58 59 62 65 65 67 63 61 62 59 55 49 48 46 39 42 42 47 46 52 51 47 48 54 58 58 59 59 58 59 60
57 58 60 60 60 60 58 57 54 52 56 55 56 57 59 61 63 62 65 64 63 58 50 52 47 43 48 50 52 50 46 43 47 53 50 49 48 53 58 55 54 55 55 57 61
56 56 58 59 60 60 56 52 55 56 51 59 58 59 62 62 56 59 64 58 55 50 51 47 43 52 54 54 53 49 44 43 48 51 48 47 50 52 55 59 58 60 56 57 58
55 56 56 59 60 57 56 57 60 57 50 54 58 58 58 61 56 56 61 57 52 48 49 45 51 56 55 49 50 46 45 44 45 48 47 42 44 48 55 54 57 59 60 60 61
55 55 55 57 56 57 55 61 61 58 43 49 52 55 58 59 52 58 60 58 51 49 50 48 53 53 48 49 50 43 49 51 48 43 38 45 34 41 54 58 57 58 58 58 58
53 54 55 55 54 55 58 62 60 56 28 50 50 59 56 54 52 52 57 55 50 51 50 47 48 47 46 50 52 47 49 48 46 40 37 36 35 41 46 51 56 59 58 56 56
53 52 54 54 55 56 59 59 56 40 28 45 49 48 49 50 49 51 52 56 54 50 48 46 49 49 50 49 50 51 49 47 42 39 30 39 39 36 46 53 52 56 54 56 55
55 53 51 53 51 55 57 53 38 32 48 43 44 48 47 45 46 47 46 45 44 39 38 43 45 47 51 46 49 47 43 31 29 27 29 36 34 42 51 57 55 57 55 52 52
55 54 53 54 53 54 53 44 31 37 42 48 47 46 43 47 45 46 44 40 45 43 38 37 35 46 50 48 45 43 43 32 26 25 29 35 33 45 53 56 56 56 54 53 53
54 49 49 53 52 53 47 34 36 40 47 45 45 40 40 44 44 43 41 41 46 47 42 38 39 45 47 49 51 43 39 46 36 20 25 34 40 51 53 56 56 55 55 52 52
44 44 46 54 54 51 41 34 39 47 50 47 40 43 36 40 40 40 39 45 47 49 49 45 38 42 44 48 46 46 48 37 33 23 21 30 34 40 48 54 56 53 52 53 53
43 38 46 54 52 45 35 38 42 52 54 47 44 42 41 40 40 38 41 44 48 47 51 47 42 35 41 40 41 41 40 41 42 34 27 24 34 46 50 51 51 52 53 54 54
40 32 46 51 40 42 38 41 46 48 51 50 49 47 42 43 40 39 42 44 48 49 45 46 42 30 37 41 43 41 42 42 33 31 31 31 40 51 52 52 53 54 54 52 52
34 35 46 47 34 33 40 43 46 45 46 47 46 49 50 44 39 40 41 49 50 48 46 46 35 24 32 37 40 37 41 44 42 34 32 26 38 50 49 52 52 54 55 56 52
37 29 35 40 38 35 35 37 40 47 46 47 46 48 46 44 46 40 43 47 48 47 47 47 37 33 30 36 41 35 36 41 42 30 35 35 43 49 51 50 50 52 52 52 54
36 30 34 26 30 35 36 38 37 37 44 46 42 43 43 39 41 41 44 42 45 46 45 44 34 36 38 41 41 39 37 38 34 35 30 38 37 46 48 51 54 52 54 54 54
31 30 33 31 34 33 34 33 36 39 40 39 39 43 43 39 42 39 42 42 40 43 43 42 32 36 33 37 39 35 39 39 38 39 39 40 39 51 53 54 53 53 52 51 52
40 37 34 33 31 29 31 33 36 40 42 44 42 40 38 40 42 41 41 41 40 40 40 38 34 32 30 34 34 29 35 38 40 44 44 39 45 51 50 50 47 51 51 50 48

GFSSW_sfc_temp_066.txt.gz
Temp
64 64 63 64 63 64 64 64 64 64 64 64 64 64 64 64 64 64 65 70 70 71 69 68 68 66 66 63 63 58 51 46 49 52 54 58 58 59 59 60 58 59 58 61 67
64 63 63 63 63 63 63 63 63 63 63 64 64 64 64 63 65 64 69 72 72 71 69 68 64 65 61 60 61 55 48 52 55 55 55 59 58 61 57 56 54 54 58 60 64
63 63 63 63 63 63 63 62 62 63 63 63 63 63 63 63 62 65 71 72 72 70 69 68 66 65 57 58 56 53 52 56 57 58 60 60 56 59 58 52 59 59 59 59 60
63 62 62 62 62 62 62 62 62 62 63 63 63 63 62 63 53 66 70 71 71 68 67 67 63 60 56 56 59 54 57 58 59 58 58 58 57 55 58 60 63 63 62 60 61
61 61 61 61 62 62 62 62 62 62 62 63 63 63 62 59 62 69 68 69 67 67 67 65 61 58 55 57 58 53 55 58 58 57 56 57 54 55 56 62 59 61 61 60 63
60 60 60 60 61 61 62 62 62 62 62 63 63 63 61 55 67 70 68 66 67 65 64 63 62 63 59 56 55 57 57 56 56 55 55 54 51 53 59 59 58 58 58 59 60
60 60 60 60 60 61 61 61 61 61 62 63 63 64 61 59 66 67 68 65 66 65 63 63 63 60 59 55 58 56 51 52 53 54 53 53 51 53 56 58 57 57 55 56 59
60 59 59 59 60 60 61 61 61 61 62 62 63 60 57 66 64 67 67 64 66 67 65 64 64 62 59 56 56 50 48 43 51 53 53 52 48 55 57 54 57 55 53 55 58
59 59 59 59 59 60 60 60 60 61 62 63 60 58 54 66 63 65 64 64 65 64 64 70 63 56 55 49 44 45 40 41 48 55 51 48 48 54 54 55 53 55 55 56 56
59 59 59 59 59 59 60 61 61 61 62 64 66 55 58 58 62 64 64 65 61 59 60 59 52 47 45 45 38 41 39 43 42 50 48 44 48 53 56 53 55 54 55 55 56
57 58 59 59 59 60 58 56 55 53 54 55 56 55 57 60 63 61 63 63 61 58 49 51 46 43 47 48 47 47 44 42 44 49 47 47 46 51 55 52 52 53 53 53 56
56 57 58 59 60 60 55 52 53 56 51 57 58 59 60 62 55 58 63 57 54 48 49 47 43 50 50 50 48 45 42 40 45 49 46 45 48 51 53 53 54 55 54 54 55
55 56 56 59 60 57 54 55 59 55 50 53 57 57 58 61 55 56 61 55 50 47 47 45 49 53 52 48 48 44 43 41 44 45 44 40 43 46 52 51 54 55 56 56 56
54 55 56 57 56 56 54 59 59 56 43 48 51 55 56 58 51 57 58 56 49 48 48 46 50 50 47 47 49 42 48 47 45 41 36 41 33 39 49 52 53 57 54 54 55
52 53 55 57 54 54 55 58 58 56 27 49 48 57 54 53 52 51 56 55 49 49 49 46 47 47 45 48 50 46 47 46 43 38 35 35 34 40 42 48 54 55 55 54 53
53 52 54 55 56 55 57 58 55 39 28 43 48 47 48 48 48 50 51 55 53 48 47 45 47 48 49 47 47 50 46 43 38 36 29 37 37 36 43 49 50 51 52 54 53
53 52 52 53 51 55 57 52 38 28 45 41 42 46 45 43 44 45 46 44 43 39 37 42 43 45 49 46 47 44 42 31 28 26 28 34 33 39 48 51 52 54 52 52 54
55 54 51 53 53 53 53 43 32 36 40 46 45 45 42 46 43 43 41 40 43 42 37 36 34 44 48 47 44 42 42 31 25 24 29 34 32 44 50 53 53 53 51 52 52
54 48 48 51 52 53 47 35 36 38 46 44 44 39 38 44 43 42 40 39 44 44 42 36 38 43 44 46 49 42 37 44 33 17 24 32 39 49 50 50 51 51 51 51 50
44 44 45 53 52 50 39 35 39 46 47 46 39 42 34 38 39 40 38 44 45 48 47 44 36 39 42 45 44 44 47 36 32 22 20 29 32 39 48 53 50 50 51 51 51
42 38 46 52 51 45 33 35 41 47 49 46 42 40 40 39 39 37 39 42 46 45 49 46 42 35 40 40 40 41 39 39 40 33 26 22 33 44 47 49 48 49 50 49 49
38 31 46 50 41 42 36 41 45 45 50 48 47 44 41 41 39 38 39 41 47 47 42 45 40 30 36 39 40 39 40 40 33 30 29 30 35 48 49 49 50 51 53 51 51
34 35 45 47 35 36 41 43 45 45 45 45 44 46 47 42 38 40 41 46 48 47 44 45 34 25 32 37 38 37 40 42 39 33 32 26 33 46 46 47 47 48 47 52 50
33 29 35 41 40 37 38 39 39 46 46 47 46 48 44 42 44 41 42 45 47 46 46 47 37 33 31 34 38 34 35 37 40 29 35 36 40 44 46 44 48 49 48 49 52
32 30 33 27 33 35 37 39 38 38 44 46 42 42 42 38 40 40 43 43 45 45 45 44 32 34 36 38 38 35 35 36 34 35 33 36 35 41 44 47 52 48 49 49 50
30 29 31 31 33 35 34 33 37 39 40 39 38 41 43 40 42 38 42 42 41 43 42 41 31 36 31 37 38 36 37 36 36 35 35 35 37 47 48 47 47 49 49 46 45
39 36 32 31 30 32 31 33 35 40 41 43 42 40 39 40 41 40 41 42 43 40 38 38 33 32 26 33 33 30 34 36 37 40 39 35 44 45 44 45 45 45 44 44 44

GFSSW_sfc_temp_069.txt.gz
Temp
64 64 64 64 64 64 64 64 64 64 64 64 64 64 64 64 64 63 62 69 69 71 68 67 66 65 64 61 61 56 50 45 48 49 52 57 54 55 57 58 56 58 57 58 65
63 64 64 64 63 63 63 63 63 63 64 64 64 64 64 64 64 62 70 72 72 71 68 66 62 63 60 58 59 54 48 51 55 55 53 57 55 59 55 55 52 53 55 57 62
63 63 64 63 63 63 63 63 62 63 63 63 63 63 63 62 61 63 71 72 72 69 67 67 65 63 56 55 53 50 51 56 55 55 58 57 53 55 55 51 58 59 57 58 59
63 62 62 62 62 63 63 62 62 62 63 63 63 63 63 61 53 63 70 71 71 66 67 66 63 57 54 54 56 53 54 57 58 57 57 56 56 53 54 59 60 62 60 58 59
62 62 61 61 62 62 62 62 62 62 62 63 63 63 60 57 60 67 68 69 66 66 64 63 60 58 54 54 57 52 54 57 56 56 54 56 52 54 55 59 57 58 58 59 61
61 60 60 60 61 62 62 62 62 62 62 63 63 63 58 54 66 68 67 66 66 65 62 63 62 61 56 54 53 55 57 54 54 54 53 53 50 51 55 55 54 56 56 57 59
61 60 60 60 60 61 61 61 61 61 62 63 63 62 58 58 65 66 67 65 65 64 62 62 62 59 56 53 55 54 50 49 51 52 51 52 49 52 54 53 54 54 53 55 58
60 59 59 59 60 60 60 61 61 61 62 63 63 59 55 64 64 66 65 64 65 66 65 63 63 60 56 55 53 49 47 42 50 51 50 50 46 52 53 49 54 53 51 52 55
60 59 59 59 59 59 60 60 60 62 62 63 58 57 53 65 62 64 64 63 63 63 63 68 62 53 53 47 43 44 39 40 48 52 49 47 46 52 52 52 52 50 52 53 54
59 58 59 59 59 59 60 61 61 62 62 64 64 53 57 56 61 63 62 65 60 60 60 59 52 47 45 43 38 39 37 40 40 47 46 42 48 51 54 50 53 52 52 53 53
59 59 59 59 59 60 58 56 55 54 55 54 54 54 56 59 62 60 62 62 59 58 48 49 47 43 47 46 44 44 42 41 43 48 45 44 45 50 53 48 51 51 52 51 54
57 58 59 59 60 60 55 52 52 56 51 56 56 57 59 60 55 57 61 55 54 47 48 46 42 50 50 48 47 44 41 39 44 47 45 43 46 49 52 51 53 54 53 52 52
55 56 57 59 59 56 53 53 57 55 50 52 56 56 56 59 53 55 60 54 50 47 46 45 48 51 50 45 45 40 40 40 42 43 43 41 42 43 49 47 52 53 53 52 53
54 54 55 58 55 55 52 56 57 55 43 47 50 54 56 57 50 56 57 56 48 46 47 46 49 48 47 45 47 41 47 46 44 40 36 38 33 39 45 48 50 53 51 52 53
53 54 54 56 54 54 55 56 56 55 27 49 48 57 54 53 51 51 55 53 48 47 48 45 47 46 44 47 49 44 47 45 41 37 35 35 34 40 40 46 50 52 51 52 52
52 53 53 55 56 55 56 56 54 39 27 41 46 46 47 47 48 50 52 54 52 48 46 44 46 46 47 44 46 47 44 41 36 35 29 35 35 35 41 44 46 51 52 52 51
53 51 52 53 51 55 55 52 37 25 44 39 40 44 44 42 44 45 46 45 43 38 37 40 41 44 47 44 46 43 41 31 28 25 27 32 31 38 44 47 47 50 51 49 48
54 51 50 52 53 53 53 43 28 36 38 43 43 43 41 44 41 42 42 42 43 41 36 36 34 44 46 46 43 41 41 31 25 23 28 33 31 42 48 48 47 47 45 47 48
54 47 46 51 51 53 47 35 36 37 45 41 43 39 38 42 42 41 39 39 45 44 41 36 37 42 43 45 48 41 37 42 30 14 23 31 37 47 47 46 47 49 50 49 49
44 44 45 52 52 49 41 37 39 44 45 45 38 41 34 38 39 39 38 43 44 46 46 44 36 38 41 45 43 42 45 35 30 21 19 27 30 37 44 43 45 47 48 49 49
42 39 46 51 51 43 33 38 41 46 46 44 41 39 38 37 38 37 39 41 46 44 48 44 41 34 39 38 39 40 38 37 39 32 25 20 31 42 43 46 46 46 49 50 49
38 31 46 50 40 36 35 38 45 45 48 46 45 43 40 40 37 37 38 42 47 45 42 44 40 29 35 38 39 38 39 39 32 29 28 29 33 45 47 47 48 48 50 49 49
34 34 45 46 33 34 39 41 44 43 44 44 43 45 45 41 38 39 40 44 46 45 44 44 35 25 32 36 36 36 39 40 38 34 30 27 32 45 43 44 45 46 45 51 50
34 30 35 41 40 37 37 38 38 44 43 45 45 46 43 41 43 39 40 43 44 44 46 47 36 35 33 34 38 34 36 38 40 29 34 34 37 40 42 42 43 44 44 45 47
32 31 34 27 34 36 39 39 36 36 42 43 40 42 42 38 39 39 41 41 43 44 43 44 31 34 34 37 36 34 34 35 36 41 34 39 38 42 44 44 45 45 46 45 45
29 28 33 31 32 36 35 34 36 38 41 38 38 42 43 38 39 38 40 41 40 41 41 41 31 34 32 36 36 33 36 35 33 33 34 33 36 45 47 45 47 46 44 43 42
36 35 33 31 30 32 34 33 35 40 41 43 43 41 39 41 44 43 45 45 44 41 40 39 34 30 28 33 33 30 34 35 35 37 37 34 41 44 42 42 41 41 42 42 42

GFSSW_sfc_temp_072.txt.gz
Temp
64 64 64 64 65 64 64 64 64 64 64 64 64 64 64 64 64 61 61 69 68 71 69 67 65 63 63 59 58 54 49 44 48 48 50 52 53 53 54 55 54 57 55 55 61
63 64 64 64 64 64 64 64 63 63 64 64 64 64 64 64 61 61 70 72 72 71 66 65 61 63 59 56 56 53 47 50 53 52 51 54 52 57 53 51 51 52 53 55 60
63 63 64 65 63 63 63 63 63 63 63 63 63 63 63 61 59 62 71 72 72 70 67 64 65 62 56 54 52 50 51 53 53 54 57 57 52 53 53 49 57 58 57 56 57
62 62 63 63 63 63 63 62 62 62 63 63 63 63 62 58 51 63 70 71 71 68 67 65 61 56 53 53 54 51 52 53 55 55 56 56 56 51 53 56 56 59 57 56 58
62 62 62 62 62 62 62 62 62 62 62 62 63 63 59 55 59 66 68 69 65 66 65 61 59 56 54 54 55 51 51 54 54 56 54 56 51 53 53 57 56 56 57 57 60
62 61 61 61 61 62 62 62 62 62 62 62 63 62 56 52 64 66 66 65 64 63 61 63 62 60 56 53 52 54 53 52 52 53 53 52 49 50 52 53 53 53 54 55 58
61 61 60 60 61 61 61 62 62 61 62 62 63 61 56 57 64 65 66 62 65 64 62 61 62 59 57 52 55 53 50 48 48 50 51 51 49 51 51 51 51 52 51 53 55
61 60 59 59 60 60 61 61 61 61 61 62 63 57 54 63 63 64 63 62 64 65 64 62 62 59 55 55 52 48 45 42 47 50 48 50 46 50 50 47 53 51 50 51 54
60 59 59 59 59 59 60 60 60 61 62 63 56 55 52 64 61 62 63 63 62 61 63 66 59 52 53 48 43 42 39 38 43 48 47 46 47 51 50 50 50 50 51 52 52
59 58 58 59 59 59 60 60 61 61 61 63 63 52 55 55 60 62 61 63 60 59 59 57 50 47 44 45 38 38 37 37 37 43 44 40 47 50 53 50 52 51 50 50 52
59 58 58 59 59 60 58 55 55 52 53 53 53 52 55 57 60 58 61 60 58 56 47 47 46 43 46 47 45 43 40 38 40 45 43 42 43 48 52 48 49 50 50 50 52
59 59 59 59 59 59 55 52 53 56 50 55 55 55 58 58 54 55 61 55 53 45 46 45 42 48 49 48 47 43 41 39 42 45 43 41 44 48 50 51 52 51 51 51 50
56 57 59 59 59 56 52 54 57 55 50 52 55 55 56 58 52 54 58 53 49 46 44 43 46 50 49 43 45 40 41 39 41 41 40 38 41 43 47 46 50 50 50 50 51
54 55 56 58 55 54 52 56 56 55 43 46 50 54 56 57 49 54 56 54 47 45 47 46 46 47 45 42 45 40 46 45 43 39 35 37 33 40 44 46 48 50 47 47 49
52 53 54 57 53 53 54 56 55 56 29 48 48 56 53 52 50 50 53 52 47 45 46 44 45 45 43 46 47 43 45 43 40 36 34 34 34 41 40 45 48 49 49 47 47
52 52 53 55 55 53 55 55 54 39 27 41 46 46 47 46 46 50 50 53 50 46 44 42 44 46 46 44 45 45 43 40 35 34 29 34 34 37 41 43 45 46 47 48 47
51 52 52 53 51 53 54 51 36 25 43 38 40 43 43 41 43 44 45 43 41 37 36 39 40 42 46 43 45 42 40 30 28 26 27 31 31 38 44 46 45 46 46 46 45
51 50 49 52 52 53 51 42 25 34 38 42 42 42 41 44 41 41 42 41 42 41 36 35 33 43 46 45 42 40 40 32 25 22 28 31 30 40 43 46 45 45 43 45 46
52 46 46 50 52 52 47 35 34 36 43 40 42 38 36 40 41 41 39 43 44 43 41 36 36 41 43 44 48 41 37 40 28 13 22 30 35 43 43 44 45 46 47 46 46
45 43 43 50 52 50 44 38 39 43 44 44 37 40 34 36 37 37 38 42 43 46 46 44 35 38 40 44 44 41 44 35 30 19 19 27 29 35 38 41 43 46 46 47 46
43 38 45 50 51 43 37 39 40 45 46 43 40 37 38 37 38 37 39 41 45 44 46 44 40 34 40 38 38 38 37 36 37 32 24 20 31 38 42 43 43 44 45 47 47
39 33 45 49 38 33 34 38 44 43 46 44 44 42 39 39 36 37 39 42 47 47 43 44 39 31 36 38 39 37 38 38 31 27 26 27 31 41 44 44 46 46 47 45 46
35 35 45 45 32 33 37 40 43 43 44 43 42 44 43 40 37 38 39 43 45 46 44 44 34 23 31 35 35 34 36 37 36 33 27 25 29 42 39 42 43 45 47 47 45
33 31 36 40 40 37 36 37 37 44 43 45 44 44 42 41 42 38 39 41 44 44 46 47 36 34 33 33 37 34 36 38 40 30 33 32 35 39 41 41 41 42 43 42 43
31 31 33 29 33 36 39 38 37 37 42 43 40 42 42 37 38 38 40 40 42 44 42 43 32 34 34 36 37 36 36 36 36 41 36 37 38 45 45 41 44 43 43 43 42
28 29 31 31 32 35 36 35 36 37 39 37 36 41 42 40 41 37 39 40 40 41 41 41 31 33 30 34 35 34 35 35 36 34 33 33 35 43 45 45 43 42 42 41 41
34 35 32 31 30 33 34 35 37 40 40 42 41 39 38 41 44 44 44 43 43 41 39 38 33 29 24 32 33 29 33 33 34 35 38 34 42 42 42 44 43 39 41 40 41

GFSSW_sfc_temp_075.txt.gz
Temp
65 65 65 65 65 65 65 65 65 65 65 65 65 64 64 64 64 61 59 67 69 71 70 67 67 66 65 61 61 58 52 47 50 51 55 55 58 58 61 61 60 62 63 64 64
64 64 64 65 64 64 64 64 64 64 64 64 64 64 64 64 60 59 68 72 71 70 66 65 62 64 60 59 59 56 50 53 55 55 56 56 58 60 60 58 59 60 61 61 63
63 63 64 64 64 64 64 63 63 63 64 63 64 64 63 61 58 61 71 72 71 70 67 66 65 63 57 58 56 54 53 56 56 57 58 57 56 59 58 55 61 61 61 59 61
63 63 63 64 64 64 63 63 63 63 63 63 63 63 63 58 49 62 70 71 71 68 67 64 62 58 55 56 56 55 54 57 57 57 57 57 58 56 57 62 60 62 62 59 60
62 62 62 63 63 63 63 62 62 62 62 63 63 63 59 54 57 65 68 69 66 66 65 62 60 58 55 56 57 54 54 56 56 57 56 57 54 56 58 60 59 59 58 59 61
62 62 62 62 62 63 63 62 62 62 62 63 63 62 57 51 64 66 65 64 65 65 63 64 62 61 56 53 54 54 54 54 55 54 54 54 53 54 57 57 57 58 58 58 60
62 61 61 61 61 62 62 62 62 62 62 63 63 61 56 56 63 64 65 63 64 65 62 61 63 61 57 54 55 54 52 52 53 52 52 53 52 53 56 55 55 58 58 57 58
61 61 61 60 60 61 61 61 61 61 62 63 63 57 54 62 62 63 63 61 63 65 64 62 62 59 55 55 53 49 49 46 50 52 51 53 48 53 54 54 57 57 56 55 57
60 60 60 59 59 60 60 60 60 61 62 63 56 55 50 64 60 62 63 62 61 61 62 65 59 53 53 49 45 46 42 42 46 50 49 49 48 52 53 53 53 55 55 55 55
59 59 59 59 59 59 60 60 60 61 61 62 62 52 55 54 59 61 60 62 59 59 58 57 51 47 45 46 41 41 41 41 43 47 46 43 47 51 53 52 54 54 54 54 55
59 59 59 59 59 60 58 54 52 50 51 52 51 51 54 57 61 57 60 60 59 57 47 47 46 43 47 48 45 44 42 41 43 46 45 44 45 49 52 52 53 54 54 54 54
59 59 58 59 59 59 54 50 52 56 47 54 55 53 57 58 54 54 60 55 52 45 46 46 42 48 48 47 46 44 42 40 43 45 45 42 46 49 50 51 52 53 54 53 53
59 59 58 59 59 56 51 52 56 56 50 50 54 54 55 57 52 53 58 52 48 45 43 43 45 48 48 44 45 39 42 41 43 42 42 40 44 46 48 48 50 51 51 51 52
55 57 59 59 55 54 51 56 56 55 42 45 49 53 55 56 49 54 55 54 47 44 47 45 45 46 43 43 45 40 46 44 43 40 38 40 37 43 45 47 48 48 48 49 49
53 54 55 58 52 53 55 56 55 57 28 48 47 56 53 51 50 49 53 53 46 45 47 43 43 44 42 45 47 42 45 43 40 37 36 37 37 43 42 44 48 49 49 48 48
52 53 55 55 55 53 55 56 54 38 27 41 46 46 46 46 45 49 50 53 50 47 44 41 45 45 46 43 44 44 42 40 37 36 31 35 35 39 43 45 46 48 48 48 48
51 52 52 54 51 54 54 51 35 25 43 37 39 43 43 40 43 44 44 43 41 37 36 39 39 42 45 42 44 42 40 32 30 27 29 32 32 40 45 46 46 47 47 46 46
50 51 50 52 53 54 51 41 24 34 36 40 40 42 40 43 40 42 41 39 40 41 36 35 34 42 45 43 41 40 41 33 26 24 29 31 31 41 44 46 45 46 45 45 46
49 46 47 50 52 53 47 33 33 36 42 38 41 38 36 40 41 41 41 43 43 43 40 36 36 41 42 43 47 41 37 40 28 13 24 31 36 44 42 44 44 45 46 45 46
43 42 44 50 52 50 43 37 39 43 44 44 36 39 33 36 37 38 38 43 43 45 44 43 34 38 40 44 43 41 43 36 30 20 20 27 30 36 40 41 43 44 45 46 46
42 38 44 49 51 43 36 37 39 44 46 43 39 36 37 37 38 38 39 39 45 43 45 43 39 34 39 39 38 39 37 36 38 33 25 20 31 38 42 43 44 44 45 46 46
39 32 44 48 36 34 37 41 44 42 44 44 44 41 39 39 36 37 38 43 47 47 43 44 38 31 35 38 39 38 39 39 33 28 26 27 32 42 43 44 44 45 46 45 45
35 35 44 45 31 32 35 41 41 41 42 42 42 43 43 40 37 39 40 43 45 47 45 44 35 26 33 38 37 35 36 37 36 33 27 27 32 40 41 42 45 45 44 44 43
35 31 35 39 38 36 34 36 38 42 42 44 43 44 42 40 41 37 39 41 43 45 47 48 36 35 35 35 36 34 35 37 40 32 31 32 33 37 40 41 43 46 44 41 42
33 32 33 30 33 35 39 37 36 37 42 43 40 40 42 37 38 37 38 37 40 44 42 45 34 34 33 35 35 35 35 36 37 42 37 37 36 42 44 42 44 45 43 42 41
30 31 33 31 34 35 38 36 36 38 40 38 37 40 40 39 42 36 38 38 38 39 39 39 28 33 29 33 34 35 36 38 42 37 33 34 38 45 49 44 43 44 42 41 40
33 34 34 32 31 33 34 35 37 39 40 42 41 39 39 40 42 42 43 44 43 40 38 37 32 26 21 31 33 28 35 36 37 36 41 35 42 41 40 44 41 40 41 40 40

GFSSW_sfc_temp_078.txt.gz
Temp
66 65 65 66 65 65 65 65 64 64 62 63 62 62 62 63 63 63 60 71 74 71 71 76 77 76 77 73 73 73 68 62 63 64 67 68 70 70 73 73 71 73 75 74 77
65 65 65 65 65 65 65 65 65 64 64 64 62 63 63 63 60 60 70 72 72 70 74 74 71 74 73 70 71 73 66 66 70 72 70 69 72 72 72 71 71 72 72 73 74
64 64 65 65 65 65 64 64 64 64 64 63 63 63 64 64 61 65 71 72 71 71 78 75 77 75 69 70 69 67 68 68 67 70 72 71 70 72 72 68 75 74 73 71 73
64 64 64 64 64 65 64 63 63 63 64 63 63 63 63 66 51 71 70 71 71 74 74 72 71 69 67 66 69 67 65 68 67 67 68 69 72 70 71 74 73 76 78 73 72
63 63 63 63 64 64 64 63 63 63 63 63 63 63 65 61 62 72 68 70 72 73 74 72 66 69 66 68 69 67 65 65 66 66 67 68 68 70 70 74 71 71 71 72 74
62 62 62 62 63 64 63 63 62 62 63 63 63 63 63 55 71 73 71 68 73 73 72 72 72 72 64 68 68 66 66 65 65 66 66 67 66 67 70 70 70 70 72 74 74
62 62 61 62 63 63 62 62 62 62 62 63 63 64 61 63 72 72 70 70 69 71 69 72 73 72 70 64 66 64 62 64 65 65 64 65 63 65 70 68 69 70 73 72 72
61 61 61 61 62 62 62 61 62 62 62 63 63 62 60 69 73 69 72 70 72 74 73 72 70 65 68 65 65 62 63 59 61 62 62 64 62 66 67 69 71 71 74 71 71
60 60 61 61 61 61 61 61 61 62 63 63 60 60 60 67 66 70 72 69 69 70 69 69 69 65 64 63 60 59 56 56 56 60 61 62 63 65 65 66 70 71 72 71 73
60 60 60 60 60 60 60 61 60 62 62 63 64 57 61 60 65 68 70 70 68 67 69 67 67 57 60 61 53 49 54 52 57 58 57 58 60 66 67 65 69 72 73 73 72
60 60 60 60 59 60 60 59 56 54 58 57 58 58 59 63 67 65 69 68 68 67 61 60 61 57 61 63 60 61 56 56 55 54 55 57 59 64 68 66 69 72 73 72 72
60 60 60 59 59 60 61 57 60 60 52 58 58 59 61 64 58 61 68 65 62 58 58 59 56 61 58 55 56 58 56 54 52 54 55 54 57 64 66 66 66 68 70 69 69
59 59 59 59 59 58 57 58 61 60 55 53 58 58 60 63 57 59 65 61 60 55 56 57 56 56 56 55 55 54 57 52 55 53 54 54 58 60 58 60 61 62 62 63 63
59 59 58 58 55 57 55 62 60 60 48 47 53 57 59 61 54 60 64 63 56 55 56 56 53 55 55 54 59 51 55 54 51 55 52 52 53 58 58 60 59 60 61 62 62
56 59 58 60 59 54 61 61 60 59 32 49 50 60 58 57 56 57 62 62 55 52 56 52 49 51 52 56 57 53 54 53 52 51 51 50 52 59 56 57 59 61 59 61 61
53 55 58 57 60 61 61 60 59 42 32 43 49 49 50 52 52 55 58 61 59 54 54 50 54 56 54 50 53 52 53 52 51 51 44 48 49 55 58 58 59 59 58 58 59
52 53 56 57 54 58 59 56 40 32 48 39 43 48 51 46 49 52 53 51 52 47 48 48 50 52 53 50 52 54 55 43 41 41 41 41 42 57 56 57 59 59 57 57 59
51 51 51 54 55 57 56 48 32 40 43 45 45 47 46 48 46 47 49 49 51 52 48 45 40 49 52 53 51 53 55 44 34 34 41 37 41 55 53 54 55 57 56 57 58
50 47 48 50 53 55 50 35 39 43 46 43 46 43 41 45 47 49 50 52 54 53 51 46 43 48 49 52 55 49 47 50 38 26 39 46 49 55 51 51 53 54 57 57 58
44 43 45 49 52 51 45 40 45 48 47 49 41 46 41 43 45 46 46 54 51 52 54 50 41 44 47 52 52 52 52 44 45 33 33 42 42 52 48 49 52 53 55 56 56
43 39 44 48 50 46 37 43 45 49 49 46 43 41 45 43 47 45 45 49 55 50 54 53 47 40 45 46 47 47 47 46 49 45 38 37 47 55 56 54 54 56 56 56 55
41 34 44 48 40 38 41 48 46 46 48 47 47 45 44 44 43 43 42 53 54 53 49 51 44 38 43 45 46 47 49 51 46 36 40 39 48 51 58 58 57 55 53 55 55
38 38 45 46 33 33 38 46 47 45 46 45 45 47 46 44 41 44 46 49 49 52 50 48 42 32 37 44 44 45 46 50 47 43 35 39 48 49 52 53 55 55 54 53 52
39 33 37 38 35 35 34 41 42 45 46 47 45 48 45 43 44 42 44 45 47 51 49 51 41 43 40 46 48 41 42 44 49 41 41 43 47 48 49 52 53 53 54 53 52
38 34 35 32 34 34 38 37 42 40 44 47 43 45 46 41 42 40 42 42 45 47 48 51 38 42 45 45 45 46 43 43 45 52 45 52 50 52 53 54 55 56 53 50 48
35 35 36 34 35 35 35 34 35 43 43 42 43 44 44 43 46 40 42 43 43 43 46 45 37 43 35 40 41 41 45 45 47 51 50 48 49 58 59 58 53 52 50 49 48
38 39 39 34 32 34 35 36 36 38 40 46 46 44 43 42 44 44 50 50 48 45 43 42 36 34 35 36 39 34 40 44 48 52 51 44 53 52 52 50 53 53 51 50 49

GFSSW_sfc_temp_081.txt.gz
Temp
65 65 65 65 65 65 65 64 64 64 64 63 62 61 62 63 62 65 60 68 72 72 70 80 80 81 82 77 79 80 70 65 68 68 69 75 74 77 79 77 77 78 81 83 80
65 65 65 65 65 65 64 64 64 64 64 63 62 61 62 62 58 56 67 70 70 71 73 74 75 78 76 76 76 74 68 70 76 77 73 74 77 75 75 75 75 75 77 81 79
64 65 65 65 65 65 64 64 63 63 63 63 62 62 62 61 54 56 65 69 69 72 76 78 79 79 73 76 74 74 69 74 73 75 79 74 75 79 76 72 78 76 75 77 77
63 64 64 64 64 65 64 64 64 63 64 63 61 61 61 59 45 64 64 66 68 75 75 75 73 72 71 66 75 69 71 74 71 70 75 73 78 74 77 76 80 82 81 78 77
63 63 63 64 64 65 64 64 63 63 63 63 62 62 59 52 56 69 66 66 71 73 73 73 70 68 68 71 71 71 69 70 71 69 74 75 74 75 75 78 78 78 80 78 78
62 62 63 63 64 64 64 64 63 63 63 63 62 62 55 49 70 74 72 70 71 72 73 76 74 77 70 72 71 72 70 69 70 70 70 71 71 71 76 78 76 75 76 79 79
62 62 62 62 63 64 63 63 62 62 63 63 63 61 57 58 74 75 73 72 73 72 71 77 78 73 75 67 70 71 64 68 69 70 68 70 66 69 74 74 75 74 78 78 79
60 61 61 62 62 63 62 62 62 62 62 63 63 63 55 73 76 71 74 72 76 75 75 77 77 72 72 71 69 67 68 61 67 67 66 66 65 74 73 73 74 76 78 76 78
59 60 61 61 61 62 61 61 61 62 63 63 61 61 55 67 65 73 74 70 73 74 73 74 76 71 67 64 60 62 58 62 60 66 65 64 67 68 71 71 74 76 78 77 77
59 59 61 61 61 61 60 61 61 62 63 65 66 57 62 59 67 70 75 74 70 69 68 69 69 64 67 64 54 57 59 60 62 63 61 63 63 70 70 70 73 77 78 77 77
59 59 60 60 61 61 61 61 56 55 58 56 57 60 62 66 70 67 72 70 71 68 61 66 60 56 62 66 69 65 63 60 64 59 60 63 64 69 72 69 71 73 76 78 78
58 59 59 60 60 60 65 61 63 65 50 60 60 61 64 67 59 64 72 65 63 58 66 60 56 65 68 63 63 63 61 60 57 58 58 61 59 68 69 70 72 74 76 76 76
58 59 60 60 60 59 62 64 68 69 54 55 59 59 60 62 60 60 66 67 62 60 60 58 62 64 61 59 60 60 59 58 59 56 59 57 60 66 65 65 67 68 70 71 70
58 59 59 59 55 59 58 69 65 63 47 47 51 58 60 63 55 63 67 67 64 59 60 62 57 59 59 59 63 54 61 61 55 56 53 58 55 62 66 64 64 65 67 68 68
58 59 59 60 62 55 63 67 64 60 28 50 51 61 61 57 58 57 65 63 57 59 61 54 53 55 57 61 63 57 61 60 58 56 55 54 55 63 62 61 63 66 65 66 66
57 58 58 59 63 62 68 64 61 43 29 42 50 50 52 55 56 58 61 65 64 58 59 53 57 60 61 57 60 59 57 57 57 55 45 55 55 60 61 64 63 63 64 63 64
55 58 59 63 55 65 64 58 41 31 49 41 43 51 52 49 51 56 55 54 54 48 49 51 52 55 58 52 57 60 56 45 43 42 42 46 46 59 61 64 65 63 61 61 63
51 57 55 55 58 61 60 49 32 43 45 51 48 50 48 52 51 54 53 52 57 60 53 47 42 52 57 59 53 54 57 47 36 38 45 40 42 56 62 60 61 64 62 61 61
50 49 51 49 54 59 53 36 41 47 52 46 47 45 46 50 50 51 52 53 57 58 52 49 45 52 53 56 60 55 50 56 41 31 41 49 54 60 56 56 58 58 59 59 59
45 46 45 49 50 54 48 41 49 56 53 52 43 48 43 47 47 50 50 58 56 60 59 57 42 49 49 55 54 55 59 46 48 33 34 46 49 55 49 52 56 56 59 60 60
43 40 44 49 49 48 38 44 52 53 54 52 48 45 49 48 51 48 50 56 61 56 57 58 51 42 48 48 50 49 49 51 54 49 40 39 49 60 60 57 56 57 59 58 59
41 33 44 48 41 44 42 51 50 50 52 50 53 50 50 50 47 48 49 56 62 57 51 54 48 40 45 48 50 54 54 54 46 38 44 40 49 55 62 61 60 58 58 59 59
36 36 45 45 34 36 48 50 53 48 50 48 47 50 52 49 44 49 51 50 57 53 53 50 42 32 38 45 45 46 52 56 57 46 37 39 49 53 59 60 60 58 57 57 56
39 33 37 36 34 40 41 46 45 49 50 50 49 50 48 47 50 45 46 46 49 54 49 53 45 43 40 47 51 44 49 50 52 43 45 46 53 50 54 56 58 57 56 56 55
40 34 35 33 33 34 44 46 44 42 48 50 45 48 48 42 46 45 47 43 46 47 51 54 40 49 52 50 53 49 47 48 46 52 48 53 53 59 55 56 58 59 57 55 53
35 35 37 34 37 35 33 35 42 47 46 45 45 48 50 46 46 41 47 47 45 46 50 51 38 46 38 44 45 44 49 49 48 51 53 55 54 63 63 62 60 57 56 53 52
40 41 40 34 34 35 34 34 35 45 49 50 49 47 44 46 50 49 52 51 50 46 46 45 37 34 36 41 40 34 40 47 48 53 54 49 58 58 59 58 58 57 56 54 53

GFSSW_sfc_temp_084.txt.gz
Temp
65 65 66 65 65 65 64 64 64 64 63 63 63 63 62 63 65 65 59 65 68 70 68 74 76 75 76 71 72 71 58 55 59 60 61 69 64 68 69 68 68 70 69 73 75
65 65 65 65 65 65 64 64 64 64 63 63 62 62 62 63 61 58 66 68 68 68 68 70 70 73 68 69 68 63 55 61 68 65 64 67 68 67 65 65 64 64 70 73 73
63 64 65 65 65 65 64 64 63 63 63 63 62 62 62 62 57 58 67 68 66 68 70 69 72 71 66 68 65 64 58 67 68 68 71 68 66 71 65 61 66 64 66 69 69
63 64 64 64 65 65 64 63 63 63 63 63 62 62 61 59 45 62 65 66 67 67 68 67 68 64 63 62 69 59 65 68 66 64 68 66 69 64 65 61 71 71 70 69 69
61 63 63 63 64 64 64 63 63 63 63 63 62 61 59 51 54 65 64 65 64 68 65 65 64 64 60 64 67 60 64 66 65 63 66 70 65 64 64 67 70 72 71 69 69
60 62 62 63 64 64 64 64 63 63 63 62 61 61 55 47 67 65 64 61 64 64 63 66 67 68 65 66 63 66 64 63 65 64 64 63 62 62 65 68 66 67 67 68 70
60 61 62 62 63 64 63 63 63 63 63 63 62 61 54 55 70 66 65 62 65 62 61 68 71 66 67 60 66 65 58 60 62 63 60 60 57 59 63 66 65 64 65 68 70
59 61 61 62 63 63 63 63 62 62 63 63 62 59 51 68 69 68 66 62 66 68 67 70 72 66 62 63 61 60 58 50 59 61 58 58 53 62 65 63 63 64 64 66 69
59 59 61 62 62 62 63 62 61 62 62 63 59 56 48 67 63 68 70 63 62 68 69 72 68 63 60 55 51 55 47 51 52 61 58 56 52 58 62 62 61 62 64 66 66
58 58 61 61 62 61 62 61 61 61 62 64 64 50 58 55 64 68 71 70 65 64 62 61 60 55 56 53 44 47 50 53 50 55 53 52 52 58 61 61 60 62 64 65 65
59 58 60 61 61 61 61 58 52 51 56 52 53 55 60 63 68 64 68 66 66 61 52 57 52 48 54 58 58 58 53 51 52 55 53 52 52 58 60 59 58 61 62 64 66
59 59 60 61 61 61 62 56 58 61 46 59 58 58 62 64 57 61 68 59 57 50 57 53 48 58 61 59 57 55 54 49 50 55 51 52 52 57 60 59 61 63 63 64 65
56 58 59 61 61 59 58 61 69 66 49 52 58 56 57 60 56 57 63 60 56 52 54 50 54 62 57 54 54 53 53 49 49 50 49 45 46 52 57 61 58 55 57 61 63
57 57 58 60 55 58 55 66 69 63 45 45 50 56 59 59 53 61 64 61 57 52 56 55 58 57 54 54 56 49 54 54 49 46 41 48 38 45 50 52 55 57 55 58 58
56 57 58 58 57 53 59 66 63 58 28 48 50 60 59 54 54 55 61 58 54 55 55 49 50 51 51 55 58 51 55 52 49 45 41 41 39 45 52 50 52 55 57 55 56
55 57 57 56 59 60 64 62 58 40 27 42 48 47 49 53 53 55 57 61 59 55 52 48 53 53 54 53 55 55 52 52 48 45 34 43 42 42 48 52 53 53 55 55 54
52 57 57 61 53 62 62 54 37 28 47 39 41 47 47 47 49 52 50 48 47 43 42 46 47 50 53 48 50 51 47 32 32 30 30 38 37 45 50 54 54 53 52 52 53
51 56 57 55 61 61 57 45 28 39 41 47 46 47 44 48 47 49 48 46 52 52 46 39 35 46 51 49 45 47 47 34 29 27 30 33 33 45 48 52 55 55 52 52 50
50 53 51 49 57 59 49 33 35 42 49 45 46 41 43 47 46 48 48 48 52 55 45 43 38 47 49 50 52 45 42 46 34 23 28 34 42 45 48 48 50 50 51 50 50
43 48 44 49 51 54 44 39 46 53 50 49 41 45 40 43 43 45 46 52 52 55 54 51 35 45 46 49 48 47 52 39 38 22 24 33 34 41 42 45 48 48 48 49 50
42 42 43 49 51 46 36 41 49 54 54 48 45 43 45 43 45 44 46 52 56 52 52 51 43 37 43 42 43 44 43 44 45 38 28 25 34 45 48 50 48 48 51 49 49
37 33 44 47 41 42 39 47 51 49 50 49 51 48 47 47 45 45 45 50 60 54 47 47 43 33 39 43 45 44 47 47 37 33 35 31 35 48 48 53 52 51 51 50 51
33 34 44 43 34 36 45 49 51 47 47 46 46 48 50 48 41 46 47 49 52 52 47 48 38 29 34 41 42 40 45 47 46 37 32 29 35 47 47 51 53 51 51 51 50
37 33 34 37 37 42 41 44 45 49 49 50 48 48 46 46 47 43 43 44 47 50 50 51 41 38 34 38 44 39 43 45 46 33 33 35 40 41 47 48 50 50 50 49 50
36 33 32 31 33 38 44 45 44 40 47 49 44 46 46 41 42 41 42 42 45 46 49 50 37 42 44 46 46 43 42 43 42 48 40 46 44 47 48 50 51 50 51 49 49
34 33 35 33 34 36 42 39 43 45 45 42 42 46 47 43 44 40 45 43 42 43 46 48 33 42 35 41 42 39 43 45 46 46 45 45 46 54 54 53 52 52 51 49 49
39 40 37 33 33 33 33 41 41 46 46 47 47 45 43 43 46 48 50 49 47 45 45 43 35 30 25 35 37 30 38 44 45 48 49 44 52 52 50 53 53 52 52 50 50

GFSSW_sfc_temp_087.txt.gz
Temp
61 65 65 66 65 65 64 65 65 64 64 64 64 64 63 63 64 63 59 65 66 68 70 71 71 71 69 65 67 64 53 50 53 55 55 61 59 62 64 65 63 64 62 66 72
58 64 65 65 65 65 64 64 64 64 64 64 64 63 63 64 61 59 67 68 68 68 68 65 65 67 62 63 64 58 52 56 60 59 58 62 62 63 61 59 57 59 65 69 70
58 62 64 65 64 64 64 63 64 63 63 63 63 63 63 62 57 58 68 69 67 67 69 68 67 65 60 61 61 60 56 59 63 62 65 63 60 63 60 55 59 59 63 66 64
59 61 64 64 64 64 64 63 63 63 63 63 63 62 61 60 44 62 67 69 68 67 68 67 64 59 59 58 64 58 61 62 62 62 64 63 64 62 61 62 66 65 67 66 64
59 60 63 64 64 64 64 63 63 63 63 63 63 62 60 52 54 65 66 67 65 65 63 60 55 58 58 62 63 58 59 63 61 61 63 66 61 61 60 59 65 66 67 65 65
58 59 62 63 64 64 64 63 63 63 63 62 62 62 56 46 65 66 66 62 64 61 59 60 58 61 60 62 60 62 61 61 60 59 60 61 56 61 61 61 61 64 62 64 65
58 58 62 62 64 64 63 63 63 63 63 63 62 62 54 54 65 65 64 63 62 63 56 61 58 56 61 58 64 60 56 55 58 59 58 61 54 56 62 61 61 59 59 62 65
57 58 61 62 63 63 63 62 62 62 61 62 62 59 51 66 65 63 64 61 61 62 59 60 62 58 61 62 60 56 53 48 54 59 58 56 49 58 62 61 58 58 57 61 64
57 58 60 61 62 62 62 62 62 62 62 62 56 55 49 67 60 63 64 57 57 58 58 63 60 58 60 52 50 49 42 44 49 57 55 52 48 56 61 60 57 55 57 59 61
57 57 60 61 62 62 61 62 62 62 61 63 62 46 53 53 61 64 64 59 54 54 50 50 50 49 49 46 42 42 43 46 46 53 51 49 49 56 59 58 57 56 57 58 61
56 58 60 61 62 62 60 57 50 49 53 50 49 49 54 60 66 62 63 55 52 49 42 46 42 39 45 49 51 52 49 49 47 53 51 49 50 55 58 54 55 54 55 56 60
56 58 58 61 62 62 60 51 53 54 45 53 53 53 58 62 52 57 64 50 46 40 47 45 39 50 55 54 52 50 49 43 47 52 51 48 50 53 55 55 57 57 56 58 57
55 57 58 60 62 59 56 55 62 61 44 48 52 52 55 58 53 53 59 55 46 41 42 41 49 56 54 52 50 50 47 44 47 47 48 47 45 50 55 55 55 55 57 57 58
54 57 58 59 56 57 55 62 65 59 37 41 46 50 55 56 51 62 61 57 51 45 48 47 55 53 52 51 52 46 52 50 46 45 41 47 39 46 49 52 53 55 54 55 56
53 55 58 59 56 52 59 60 59 56 21 43 46 58 55 50 52 53 61 56 49 50 50 45 50 50 49 52 54 49 51 49 47 44 41 39 39 43 48 48 49 51 52 52 54
52 54 58 56 57 60 62 60 57 36 25 38 45 44 45 48 49 53 55 56 57 52 50 48 52 53 53 51 55 52 50 48 45 40 33 39 39 38 44 51 47 49 49 51 50
52 52 56 58 52 61 59 55 33 26 43 35 37 45 44 42 45 48 48 47 44 39 41 45 46 49 52 49 49 50 46 30 31 29 30 34 35 43 48 52 52 51 49 48 50
52 50 57 57 58 59 53 41 26 34 37 42 41 44 41 46 44 46 46 43 48 48 39 37 35 46 51 50 45 44 43 31 27 24 29 34 34 43 46 48 50 51 49 49 47
50 50 52 50 57 56 44 30 31 37 43 39 41 38 38 45 44 44 45 45 49 50 44 40 38 46 47 47 51 43 40 45 33 19 27 32 37 46 44 45 46 46 47 45 46
41 45 44 51 56 50 38 35 40 48 45 45 35 40 36 40 38 42 42 50 49 53 53 47 36 43 45 48 46 46 50 38 34 22 22 29 32 39 40 44 44 44 44 44 45
39 40 43 49 54 44 33 36 43 49 50 43 39 38 40 40 40 41 42 48 53 50 53 49 42 37 43 41 41 42 39 41 40 34 27 24 33 44 47 46 45 44 46 46 46
33 32 43 46 40 40 36 42 48 44 47 47 47 45 44 45 40 40 42 47 58 51 47 47 40 32 37 42 43 41 44 44 35 32 32 30 36 45 45 48 49 47 48 46 47
32 32 43 47 34 35 43 45 47 45 44 44 44 46 50 46 39 44 45 49 52 53 47 47 36 27 34 40 41 40 43 45 42 34 32 28 35 45 44 45 48 46 47 48 46
33 31 35 39 37 40 39 42 41 46 46 47 44 46 46 44 45 42 41 43 46 50 48 49 40 36 33 38 41 37 41 43 43 31 31 32 39 42 44 45 45 46 48 46 47
33 31 31 33 35 41 43 43 41 39 44 47 43 45 44 39 40 40 41 42 45 46 48 49 36 40 43 44 44 41 41 41 43 47 41 44 43 46 45 46 48 48 47 46 46
32 32 33 32 35 40 41 39 42 41 42 41 41 44 45 42 43 37 42 42 42 43 45 46 34 40 35 40 42 38 42 44 44 41 42 40 42 50 49 47 46 48 48 47 47
37 39 35 32 33 38 38 38 42 44 42 46 45 44 42 43 46 49 47 48 46 44 43 42 34 29 27 34 37 31 37 42 45 43 48 39 50 49 44 49 49 48 49 49 49

GFSSW_sfc_temp_090.txt.gz
Temp
60 59 65 65 66 66 66 66 65 65 65 64 64 64 64 64 64 61 58 65 67 68 67 70 71 71 67 63 65 61 51 47 53 53 56 60 59 60 60 61 58 59 60 64 68
59 59 59 65 65 65 65 66 65 64 64 64 64 64 63 64 58 56 67 69 69 68 67 67 63 67 61 61 61 56 50 54 61 58 58 60 61 61 58 55 55 55 61 69 66
60 59 60 64 65 65 65 65 64 64 64 63 63 63 63 62 55 56 69 69 69 68 67 66 67 65 60 61 57 57 54 60 61 61 62 61 59 59 58 52 57 57 61 65 64
59 59 59 61 64 65 65 64 64 64 64 63 63 63 63 60 44 59 68 69 68 67 66 66 62 56 53 55 61 54 59 62 61 60 62 61 62 57 57 59 63 64 66 65 64
59 59 58 61 64 65 64 62 63 63 63 63 63 62 60 52 53 63 67 67 66 65 64 62 59 53 51 55 61 58 58 61 61 60 61 61 59 59 59 58 63 63 64 64 65
58 58 58 60 63 64 64 63 63 63 63 63 63 63 56 45 63 65 64 63 65 62 61 60 59 56 54 53 55 61 58 59 61 61 60 59 56 59 58 56 60 61 61 63 65
58 58 57 57 63 63 63 62 62 63 62 63 63 62 54 53 62 64 65 61 63 63 57 55 58 57 56 52 61 60 54 54 57 59 58 59 52 56 59 58 58 58 58 61 63
57 57 57 57 62 63 63 62 62 62 62 63 63 59 50 64 60 62 65 60 61 61 56 58 59 54 54 58 57 56 52 47 54 57 55 57 49 57 57 57 55 55 55 58 60
56 56 57 57 61 62 62 62 61 62 63 62 58 55 49 62 56 60 62 56 56 56 58 59 58 51 52 49 49 51 41 44 48 56 53 52 49 56 56 56 55 55 55 56 58
56 55 56 57 61 62 62 61 61 61 60 61 60 48 51 50 56 59 63 59 54 52 51 51 48 45 43 44 41 43 43 45 45 52 51 48 51 51 56 56 55 55 55 54 58
56 55 57 57 61 62 60 57 53 49 52 47 49 46 51 57 61 56 57 54 54 51 43 47 42 38 43 46 51 51 48 48 48 52 50 50 51 52 56 51 52 53 54 53 56
55 55 57 57 62 62 61 53 54 56 44 54 53 51 55 60 52 52 58 49 47 42 44 42 40 46 51 50 47 49 48 45 45 50 51 47 50 51 51 52 54 56 54 54 55
55 55 56 57 61 59 57 57 63 62 47 49 51 50 53 58 51 48 55 51 46 42 43 41 45 51 49 45 43 48 45 43 45 46 47 47 46 46 52 51 53 55 55 54 56
54 55 56 58 56 58 54 61 65 58 39 41 44 50 53 54 48 59 59 52 44 41 43 44 52 48 44 44 46 43 51 49 45 45 40 44 36 45 49 50 51 54 54 54 54
53 53 55 58 57 52 58 64 60 56 24 43 43 56 54 48 49 51 60 53 42 40 40 38 45 44 40 45 50 47 50 48 45 42 41 37 37 42 42 46 49 53 52 52 52
53 53 53 55 57 60 62 62 56 37 23 36 43 42 44 46 47 50 50 55 53 44 43 44 50 49 45 50 52 52 48 45 43 41 33 38 39 39 41 47 51 49 51 52 49
52 52 51 57 52 60 59 55 33 24 41 33 36 43 43 39 42 46 43 42 38 33 33 39 42 48 53 47 50 51 47 32 32 31 33 32 34 44 47 49 52 54 52 48 48
52 52 51 57 60 58 56 42 20 32 36 40 40 43 38 42 40 42 42 39 44 42 36 32 32 45 50 49 43 45 46 31 27 26 28 33 32 42 45 47 48 52 50 48 47
51 46 51 55 57 57 46 31 32 38 40 37 40 37 34 41 40 40 41 41 44 46 39 38 38 45 48 49 51 44 43 44 32 18 27 31 37 46 43 42 43 45 48 46 45
42 41 47 55 56 51 41 35 37 44 43 45 34 39 34 38 35 38 39 46 45 50 53 46 36 42 46 47 48 46 50 38 35 24 22 28 30 38 40 44 43 43 46 43 44
40 38 45 52 54 44 34 37 42 46 48 43 37 37 39 38 37 38 39 43 50 49 54 47 43 36 43 42 42 42 40 40 41 34 27 22 31 42 47 49 45 46 45 43 43
35 32 44 48 40 39 37 40 47 44 46 45 44 41 42 42 36 37 37 42 54 51 46 46 40 33 37 43 43 41 44 44 37 32 31 30 35 43 44 46 46 43 45 44 44
32 33 43 43 32 33 42 43 47 44 44 44 42 45 46 44 36 39 41 50 53 50 47 46 36 28 33 40 40 40 43 44 41 35 31 29 34 43 41 42 45 46 44 44 43
34 31 34 40 40 39 37 40 39 46 45 45 44 47 45 42 42 39 40 43 48 53 49 51 39 38 34 37 40 36 40 41 43 33 32 33 39 41 42 42 42 44 45 44 45
34 31 32 31 34 39 42 42 38 38 43 45 41 47 45 37 38 40 40 42 45 47 48 48 35 39 45 45 45 41 45 41 43 48 42 45 42 50 47 44 45 44 43 43 43
33 31 33 32 37 39 42 38 38 38 41 38 40 43 47 39 43 36 40 40 41 42 49 45 33 39 34 39 42 40 43 42 44 41 42 39 39 47 44 45 43 45 45 45 44
37 36 33 32 36 37 37 40 39 41 41 44 44 43 41 43 46 52 50 47 45 45 45 41 34 30 27 34 37 31 37 42 45 41 46 39 50 45 42 45 45 44 46 46 47

GFSSW_sfc_temp_093.txt.gz
Temp
63 62 62 63 65 66 66 66 66 65 65 65 65 64 64 64 64 60 55 64 66 68 68 67 68 68 68 64 62 57 49 45 49 50 53 57 56 60 58 58 56 58 57 62 64
62 61 60 60 60 65 66 66 66 65 65 65 64 64 64 64 57 54 65 69 69 68 65 65 64 66 63 62 60 54 47 51 56 55 56 59 59 60 58 54 51 53 58 64 64
62 60 60 60 60 63 65 65 65 65 65 64 64 63 63 62 54 54 68 69 69 68 66 65 66 66 60 61 58 53 50 56 58 60 60 60 57 60 57 51 56 56 58 61 62
60 61 60 60 61 60 65 65 65 65 64 63 63 63 62 57 43 58 68 69 68 67 67 64 62 58 58 55 60 51 56 58 60 59 59 58 60 58 57 59 63 60 64 61 61
60 60 60 59 60 60 64 64 65 65 63 63 63 63 60 52 51 62 67 67 65 65 63 62 60 58 56 56 56 55 57 59 58 58 57 60 57 58 57 55 59 61 64 62 62
58 59 59 59 58 60 64 64 65 63 63 63 63 62 56 46 61 63 62 62 62 63 61 61 59 59 55 55 52 57 58 58 57 56 57 59 55 58 56 55 57 60 61 62 62
57 58 59 58 58 60 64 64 64 62 62 63 63 61 55 50 62 62 62 59 62 62 55 57 60 58 56 53 56 55 52 55 54 55 56 59 51 55 55 56 56 57 59 61 62
57 57 58 58 57 60 63 63 63 62 62 63 63 60 50 62 62 63 62 59 62 61 58 59 62 54 52 53 54 48 53 46 52 54 53 55 48 56 55 55 54 54 54 56 58
57 56 57 57 56 59 62 61 60 62 62 63 58 56 48 62 57 62 63 54 57 58 59 61 56 49 51 45 42 46 42 43 49 53 51 51 51 57 54 54 54 54 54 56 58
56 56 56 56 56 58 62 60 60 60 60 61 60 49 50 48 55 60 61 60 54 55 53 52 48 44 43 43 36 39 41 44 47 51 47 48 50 49 53 53 54 53 53 54 56
56 56 56 56 57 57 60 58 52 51 52 49 49 47 49 54 60 57 59 56 55 54 44 47 42 39 42 46 48 45 47 47 49 52 49 49 53 54 51 48 50 51 52 54 56
56 56 55 56 57 57 59 53 54 54 44 53 52 51 54 57 49 52 59 50 48 43 45 42 40 48 50 50 47 43 42 46 47 50 49 47 51 51 50 51 54 55 53 54 55
55 55 54 56 57 55 55 56 57 55 45 47 52 49 51 56 48 48 55 50 47 42 44 41 46 52 49 46 42 43 41 45 47 47 48 44 46 47 51 48 51 53 52 54 56
54 54 54 55 51 55 53 57 60 53 37 39 45 48 52 55 47 54 57 51 44 42 44 45 51 48 46 43 46 39 48 48 46 46 40 44 37 43 48 50 50 52 51 52 53
53 53 53 55 54 51 57 59 57 50 26 41 43 55 51 49 47 48 58 53 41 41 42 39 44 44 41 42 47 41 49 46 44 42 39 39 35 40 41 49 49 51 52 52 51
53 53 52 52 52 59 59 60 54 33 25 34 43 41 45 45 45 49 50 55 51 43 43 40 48 49 47 47 50 50 44 44 42 40 35 40 38 37 40 46 54 54 55 53 51
53 52 50 54 51 57 56 51 32 28 36 31 35 42 42 40 42 45 43 41 38 33 33 36 39 44 49 43 46 44 36 28 28 28 32 33 34 50 45 47 51 58 56 51 49
52 52 50 52 57 56 51 42 27 30 34 38 39 42 37 42 40 42 41 37 42 36 32 32 29 38 47 44 38 38 37 31 25 28 33 32 31 41 46 47 48 48 49 47 46
51 45 47 52 55 55 44 32 33 36 37 36 39 35 35 41 38 39 36 37 41 40 33 30 34 43 46 47 48 40 35 44 33 20 26 31 36 45 43 44 44 45 44 48 48
40 41 46 54 55 50 39 36 35 41 42 43 33 37 32 37 34 36 36 43 40 45 45 40 31 40 43 49 48 44 48 36 35 25 21 28 29 40 41 45 43 43 43 45 45
38 39 45 54 52 44 34 37 39 43 47 41 34 34 37 37 36 36 37 40 46 44 46 41 38 33 42 41 38 38 40 41 43 35 27 22 32 41 48 50 47 47 46 45 44
36 33 44 47 39 41 37 41 45 43 43 43 41 39 40 41 33 37 35 40 50 48 40 43 38 28 35 42 46 45 44 44 38 31 31 30 34 44 44 46 47 44 43 41 42
33 33 43 43 32 33 43 44 43 41 41 41 39 42 44 41 34 38 39 47 48 47 42 43 33 26 33 39 41 38 42 44 42 36 34 30 36 44 42 43 44 44 43 43 42
35 30 35 38 36 37 38 41 38 46 43 43 42 45 44 41 40 37 39 43 46 47 48 48 37 33 32 36 40 35 37 40 44 36 34 34 38 47 46 44 42 43 43 43 42
34 30 31 30 32 37 41 40 37 37 42 44 39 45 43 38 36 36 38 39 43 46 45 48 33 35 40 43 44 41 41 40 40 45 39 41 42 50 52 48 45 43 41 40 42
32 30 33 31 33 36 39 39 39 38 39 39 40 43 44 38 41 33 38 38 42 38 43 42 29 37 30 38 42 40 44 44 44 46 44 40 42 51 45 44 43 43 43 43 43
37 36 33 33 32 35 35 39 39 40 40 43 43 43 40 42 45 47 47 45 44 42 44 39 32 29 29 34 36 30 40 41 44 44 47 38 50 47 46 46 46 43 45 46 45

GFSSW_sfc_temp_096.txt.gz
Temp
64 64 64 63 62 64 65 66 66 66 65 65 66 65 64 64 64 59 53 62 65 68 68 67 68 69 67 63 61 55 48 44 48 48 52 54 55 54 55 56 55 57 56 58 61
63 63 63 62 62 61 64 65 66 65 66 65 65 64 64 64 57 53 64 69 69 69 66 65 64 66 61 60 59 53 46 50 56 53 54 56 57 58 55 53 53 52 57 60 61
62 62 62 62 62 60 60 64 65 65 65 65 64 63 63 63 54 54 67 69 69 68 65 66 66 65 59 60 55 52 51 54 57 56 58 56 54 56 55 50 56 55 55 59 60
61 60 60 61 61 60 59 59 63 65 65 65 63 63 62 59 43 57 67 69 68 66 64 63 62 58 56 55 57 53 58 57 59 57 57 55 57 55 56 57 62 59 60 59 59
60 60 60 61 61 60 60 60 63 64 65 64 63 62 59 50 51 62 66 67 64 63 62 60 59 57 54 56 58 55 54 56 58 56 55 57 54 55 55 56 58 59 60 60 60
59 60 59 60 61 60 59 60 62 64 64 64 63 62 56 46 61 62 62 61 61 61 61 60 60 60 55 55 56 55 54 56 58 56 55 56 51 54 55 55 56 59 58 60 60
58 58 59 59 60 60 59 60 62 64 64 63 62 60 54 53 60 61 62 59 60 62 55 58 59 59 55 52 55 55 52 55 57 55 54 54 49 53 53 55 55 56 58 58 60
58 57 57 59 59 59 59 60 62 64 64 62 62 59 49 61 60 60 60 59 62 61 59 60 60 53 53 53 53 52 51 44 53 55 53 53 47 54 51 54 53 53 55 57 58
57 56 57 58 58 59 58 60 62 64 63 62 55 55 47 61 56 61 59 55 58 59 60 62 57 50 51 48 45 44 41 40 48 55 51 50 48 54 51 52 51 52 52 55 57
56 56 56 57 58 57 58 59 62 62 60 59 59 51 50 48 55 59 60 60 55 56 55 53 50 44 44 45 38 38 41 42 46 52 49 45 49 51 50 51 53 52 52 53 55
57 56 56 57 57 57 56 56 51 51 52 49 48 45 49 53 59 56 60 57 56 54 44 48 44 41 45 49 50 49 44 45 47 53 49 48 50 55 51 45 48 50 52 53 55
56 56 56 57 57 57 55 52 55 56 44 50 52 49 52 57 48 52 61 50 49 43 45 43 41 49 50 51 48 45 44 44 49 50 48 48 48 52 49 51 53 54 52 53 52
55 55 55 55 56 53 52 54 57 57 44 46 50 50 51 55 48 48 55 51 47 44 43 41 46 51 48 46 42 42 43 43 44 47 48 46 47 46 49 48 51 51 50 53 55
55 55 54 55 49 51 50 56 57 54 36 39 43 48 51 53 46 54 55 51 45 43 44 45 51 47 45 44 47 39 47 46 43 43 39 44 39 45 47 50 48 53 50 53 51
54 54 54 55 51 48 55 57 55 51 26 39 43 55 52 47 46 48 57 51 42 42 43 40 44 44 41 44 49 44 48 44 42 39 38 41 34 41 39 46 50 51 51 53 53
53 53 53 51 51 53 57 53 52 33 25 34 42 42 44 43 44 47 49 52 49 44 43 41 47 49 47 49 50 47 43 40 38 34 28 35 36 39 45 44 50 55 55 56 52
53 53 50 52 46 55 55 48 33 29 34 31 35 42 42 40 40 44 42 39 38 33 33 38 40 44 49 43 43 41 38 29 28 27 28 35 34 43 47 47 53 59 59 55 53
53 53 50 51 54 52 50 41 29 32 32 36 40 42 38 41 39 42 40 36 40 36 34 33 30 38 47 44 38 37 40 31 24 23 27 33 34 44 48 49 49 49 49 48 48
51 44 46 49 51 50 44 33 33 34 35 36 40 35 35 40 38 40 39 39 41 39 34 32 34 40 44 47 44 36 34 43 33 22 27 34 37 44 44 46 45 46 45 48 47
40 41 45 52 51 46 40 34 35 39 41 42 34 38 32 36 34 34 37 43 41 42 43 38 31 37 42 46 45 41 45 34 33 24 22 28 30 42 43 47 47 45 46 49 47
41 38 45 51 50 42 33 33 38 44 47 40 33 33 36 34 32 34 36 37 44 41 45 41 36 32 40 36 36 35 35 35 37 32 26 22 32 41 50 50 52 53 52 50 44
37 33 43 48 35 33 35 37 44 43 44 40 40 37 37 38 32 34 33 39 48 47 38 42 37 28 33 38 43 40 37 38 34 29 30 29 32 43 45 45 48 48 46 42 42
33 33 43 45 31 32 39 41 44 42 40 39 38 40 43 39 34 37 37 44 47 46 41 41 34 25 31 36 37 36 38 42 40 36 34 28 34 45 42 43 45 46 45 43 42
35 27 36 38 34 36 35 36 37 45 41 42 40 44 42 38 39 36 37 42 46 47 47 48 35 32 29 31 36 32 39 40 41 33 33 35 36 49 53 48 47 46 44 43 42
33 30 31 30 31 35 40 39 37 36 40 42 38 43 40 34 36 33 37 38 41 46 44 44 31 34 36 38 37 36 37 39 38 40 35 41 40 45 50 51 50 46 43 42 42
31 29 32 31 33 35 38 37 39 36 38 38 39 42 41 36 39 32 37 37 37 37 43 40 30 35 30 36 37 34 38 41 41 42 42 42 41 46 47 47 45 45 43 42 43
37 36 33 31 31 33 35 37 41 40 40 44 43 41 37 40 46 47 49 47 44 42 39 41 32 29 24 33 36 29 36 40 42 41 45 39 47 46 47 48 50 50 44 45 46

GFSSW_sfc_temp_099.txt.gz
Temp
64 65 64 64 64 64 64 65 65 65 66 66 66 66 65 64 64 60 53 62 65 69 67 67 68 68 67 64 64 60 51 48 52 52 55 57 59 59 61 58 59 61 60 64 65
63 64 63 64 64 64 64 64 65 65 66 65 66 66 64 64 59 55 63 68 69 69 64 63 63 65 60 62 61 56 50 53 59 57 57 57 60 59 59 57 57 58 59 62 64
62 62 63 63 63 63 63 63 64 65 65 65 65 65 64 63 53 56 67 69 69 68 65 65 65 64 58 61 58 55 54 58 60 59 59 58 58 59 57 53 58 58 57 61 62
61 61 62 62 62 62 61 62 60 61 65 65 65 64 62 61 46 59 67 68 69 66 64 63 61 59 57 55 59 57 58 57 58 57 57 56 58 57 58 61 62 63 61 61 61
61 61 61 61 62 63 62 61 59 59 63 65 65 62 59 51 53 62 65 67 64 62 61 60 59 58 54 57 57 55 56 58 58 58 57 57 56 58 57 59 59 60 60 60 62
60 60 60 60 61 62 62 62 61 59 61 64 65 62 56 47 62 62 61 60 60 60 60 62 61 62 58 56 56 56 56 57 59 58 58 55 54 56 58 57 56 58 58 60 61
59 59 60 60 60 62 62 62 61 61 59 64 63 61 53 53 61 61 62 59 60 60 56 59 62 60 57 53 56 56 56 58 59 58 57 56 52 55 56 56 55 56 58 59 60
58 58 58 59 60 61 61 61 60 60 60 64 62 58 50 60 61 60 60 58 60 61 60 60 62 55 54 54 53 51 52 48 57 57 56 55 48 57 54 55 54 54 55 59 59
58 57 58 58 59 59 60 60 59 60 61 63 56 55 47 60 57 59 60 55 58 60 61 63 59 51 52 48 46 43 42 42 48 56 54 53 50 56 53 53 53 53 54 57 58
57 56 57 57 58 58 59 60 59 59 60 61 58 48 50 50 55 58 60 60 56 57 56 54 50 46 47 46 40 40 42 43 45 52 51 50 50 55 54 52 53 52 53 55 57
57 56 56 57 57 59 57 54 50 49 53 51 49 47 50 55 60 54 59 57 57 55 46 49 45 41 47 50 51 47 44 45 47 51 47 47 50 56 54 49 51 51 53 54 57
57 56 56 56 57 58 56 49 53 52 46 52 53 50 53 58 47 52 61 51 49 44 46 43 41 49 51 51 49 46 44 44 47 48 49 50 50 56 50 52 52 54 51 54 54
56 56 56 56 56 54 52 52 58 56 46 46 50 50 50 56 48 48 56 52 48 43 45 43 46 52 50 47 45 44 44 44 45 46 48 46 46 52 51 50 51 51 53 54 55
56 55 55 55 50 50 49 56 57 53 36 39 43 48 52 53 46 55 58 52 47 43 43 45 50 48 47 45 48 39 48 46 42 40 35 47 33 49 52 51 48 54 51 55 55
55 55 55 55 48 46 53 57 54 50 25 38 42 53 53 50 47 48 56 52 43 44 45 41 44 44 43 46 50 44 48 43 42 38 37 40 38 44 48 47 50 52 53 56 57
54 54 55 50 50 52 57 56 51 33 25 33 41 41 43 45 45 46 48 51 50 46 43 41 47 49 47 47 51 48 42 40 38 36 29 37 38 38 47 50 52 55 57 58 58
54 54 50 51 46 54 53 49 33 27 34 30 34 41 42 40 41 44 40 39 39 35 35 39 41 44 50 42 45 43 41 30 28 27 28 34 33 44 49 49 54 58 56 59 59
54 53 52 50 51 51 47 37 27 31 32 37 39 40 37 42 41 42 41 38 42 37 37 34 32 40 47 41 37 39 39 32 26 24 27 31 31 39 50 59 59 54 54 53 53
52 46 46 47 50 50 38 30 31 34 35 37 38 35 35 38 40 41 39 41 40 38 35 36 33 41 44 45 44 36 35 42 32 20 24 31 36 45 45 47 47 49 50 53 53
40 42 42 50 50 45 32 30 33 40 41 41 33 37 32 33 37 39 38 42 38 41 43 38 31 38 42 45 42 41 44 33 32 26 21 29 31 40 42 47 49 48 50 53 51
41 37 43 50 49 35 28 33 33 42 45 41 37 34 37 34 34 38 39 37 41 39 42 39 36 33 39 37 36 36 35 35 36 32 27 22 33 42 50 52 51 54 52 53 53
37 32 44 47 33 32 32 35 38 42 46 40 41 38 40 38 34 36 37 35 44 43 37 40 34 30 32 38 44 39 37 37 31 27 30 29 31 44 44 47 47 51 51 50 48
34 33 43 45 30 31 37 37 39 41 41 40 38 40 44 39 33 35 35 42 44 44 40 40 32 23 29 36 35 35 39 40 38 35 31 27 38 44 42 46 47 48 49 48 45
33 29 36 38 35 35 33 33 34 45 41 40 39 44 40 38 36 33 35 39 44 45 46 45 34 30 30 31 36 31 36 39 41 31 33 35 41 47 47 47 48 48 48 47 45
32 30 31 29 31 34 35 34 34 33 41 44 39 42 37 33 32 32 36 37 40 45 43 41 29 32 34 35 35 34 34 37 36 39 35 41 40 45 50 51 49 47 46 44 44
31 31 32 31 33 34 34 33 35 37 37 37 38 42 42 36 38 32 35 35 35 36 37 39 28 34 31 35 36 33 36 37 38 39 40 40 37 44 45 48 48 50 48 47 45
37 36 31 31 32 33 34 34 36 40 39 41 44 41 37 39 43 46 49 45 43 43 41 36 31 25 19 32 35 26 34 36 39 41 41 34 44 45 44 48 49 50 48 50 50

GFSSW_sfc_temp_102.txt.gz
Temp
64 64 64 65 64 65 66 66 66 65 66 66 66 66 66 65 64 62 60 68 69 69 68 69 72 71 72 70 72 70 65 61 63 63 68 69 68 68 70 70 69 70 72 72 72
63 63 64 64 64 64 65 65 65 65 65 66 66 66 66 64 61 56 68 68 69 69 70 66 65 71 67 69 71 68 63 62 68 69 69 69 71 69 68 66 67 67 68 72 68
62 62 63 64 64 63 64 64 64 64 65 65 65 65 65 65 55 57 68 68 69 70 72 72 71 69 65 68 69 67 64 66 66 69 69 68 68 72 70 65 72 70 68 66 63
61 62 62 63 63 63 64 64 63 63 64 65 65 65 63 65 47 66 68 68 68 73 71 69 66 59 61 62 69 63 65 66 64 65 67 67 69 68 71 75 73 76 72 65 63
61 61 61 62 63 63 63 63 63 62 63 64 64 64 60 53 56 68 66 68 70 69 67 66 62 61 57 65 66 64 63 66 65 67 66 65 67 69 69 73 71 73 69 64 65
60 60 60 61 62 63 63 62 61 61 62 64 64 64 57 48 65 69 68 67 68 67 66 69 65 68 64 62 63 69 64 65 65 65 65 65 66 66 72 74 69 68 68 66 66
60 60 60 59 61 62 62 62 62 61 61 63 63 62 54 53 70 68 67 65 67 68 64 70 69 61 63 58 63 64 60 63 64 66 62 65 63 64 72 69 69 69 70 68 65
59 59 59 59 60 61 61 61 62 62 61 62 62 59 51 61 68 66 67 64 68 69 68 69 69 55 57 59 59 60 61 55 61 63 65 65 55 67 70 69 70 70 71 68 65
58 58 59 59 59 60 60 61 61 61 62 62 56 55 49 59 57 66 69 62 65 64 65 66 65 58 51 54 48 50 50 53 56 62 64 62 58 69 65 66 71 71 70 69 69
57 57 58 58 59 59 59 60 60 60 59 60 59 50 50 51 57 62 68 66 61 59 57 58 58 54 49 48 42 44 48 50 54 58 58 59 57 64 71 66 67 71 70 69 69
57 57 57 58 58 59 58 56 49 48 51 50 50 50 51 56 61 58 63 62 61 57 49 52 46 46 51 53 57 59 55 54 56 58 57 57 58 60 67 66 66 68 69 69 69
57 57 57 57 58 58 59 51 53 57 46 51 54 53 55 58 48 53 64 55 53 45 51 47 44 55 57 56 55 52 53 53 53 54 55 56 54 62 65 67 68 69 71 69 70
56 57 57 57 57 55 53 53 64 59 47 49 52 51 51 58 49 48 58 56 51 45 45 48 52 55 53 50 47 50 51 51 49 50 51 48 48 56 63 67 69 68 70 72 70
56 56 56 56 52 54 50 59 60 56 36 40 45 48 52 56 46 57 59 56 49 44 48 49 56 52 50 49 51 40 50 50 46 44 38 51 38 56 61 63 65 65 67 69 70
56 56 56 57 54 49 57 61 56 50 26 42 44 54 54 50 46 48 55 55 46 45 47 46 47 49 48 50 54 45 50 49 46 41 39 42 36 51 60 58 63 68 69 69 71
55 55 55 53 53 56 59 59 52 32 26 34 43 43 44 45 47 47 48 55 58 49 49 45 49 52 54 55 55 48 43 42 39 37 31 41 41 48 56 57 62 69 69 69 70
55 55 54 55 49 58 56 48 31 27 34 31 36 43 45 41 42 45 42 42 42 37 37 41 44 47 52 45 48 47 43 32 30 30 35 43 42 49 61 65 65 67 69 69 70
54 54 52 54 55 55 50 35 24 32 33 37 40 43 38 42 42 43 43 40 46 51 42 37 33 42 49 49 40 41 44 38 31 34 41 38 38 50 58 64 66 65 68 70 69
53 50 47 52 53 52 39 26 30 33 36 36 40 36 37 40 40 41 42 43 47 52 42 39 35 43 47 49 49 38 37 44 38 29 36 44 48 55 56 58 57 60 65 65 67
46 44 44 54 52 45 34 30 32 37 42 41 34 39 33 35 37 39 40 49 47 49 56 47 34 39 40 47 46 46 49 37 36 30 30 44 42 47 54 58 59 58 60 65 68
45 37 47 53 49 39 30 31 35 39 45 41 37 36 38 36 42 41 41 46 49 47 54 52 43 33 39 38 37 40 38 39 43 40 36 35 46 58 57 61 59 62 61 61 64
39 33 45 50 35 34 33 37 39 36 40 45 46 46 42 44 40 42 40 46 51 50 46 47 42 32 34 41 46 45 40 42 40 33 39 39 43 55 56 56 55 59 61 62 61
34 36 44 45 30 31 37 38 41 36 36 42 42 47 49 44 38 41 44 48 51 50 47 46 38 29 30 36 38 39 43 45 47 42 36 36 45 54 56 58 58 59 61 61 58
37 31 36 39 38 37 33 34 34 41 36 41 43 49 45 41 43 36 43 44 50 52 46 49 41 40 36 41 41 34 39 43 43 35 40 42 49 57 60 59 58 60 62 64 58
37 32 33 30 32 37 39 36 34 33 36 42 39 44 43 33 37 38 41 41 46 48 50 50 36 42 42 43 43 42 41 40 39 44 40 47 48 54 58 61 63 61 60 59 59
33 33 34 32 35 35 35 33 34 34 34 37 38 42 45 39 41 39 42 42 40 45 47 46 35 43 34 41 43 40 43 43 43 45 46 48 47 59 60 58 57 58 58 60 61
39 39 37 33 33 33 34 36 35 37 40 45 46 43 42 45 49 52 51 48 47 45 44 44 37 35 31 39 39 33 39 42 43 46 47 41 50 57 55 57 58 60 59 58 61

GFSSW_sfc_temp_105.txt.gz
Temp
64 65 65 65 65 65 65 66 66 66 66 66 66 66 65 65 64 66 61 70 71 69 69 72 71 73 69 73 74 76 64 62 66 67 70 75 72 75 76 74 76 77 78 79 75
64 64 64 64 64 64 64 65 65 65 66 66 66 65 65 64 64 61 70 69 69 69 74 70 63 67 68 68 73 69 64 65 73 74 72 74 74 73 72 72 72 72 74 77 70
63 63 63 64 64 64 64 64 64 65 65 65 65 65 64 68 57 60 70 69 69 70 76 75 69 64 63 67 69 70 65 71 70 73 74 73 73 76 72 70 76 72 71 71 67
62 62 62 63 63 64 64 64 64 64 65 65 65 65 63 66 48 68 70 69 68 73 73 72 69 57 56 61 70 64 72 72 68 69 71 70 75 72 74 76 75 81 77 72 65
62 61 61 62 62 64 63 63 63 63 64 65 65 64 64 54 58 73 67 68 72 70 69 69 66 62 56 63 69 67 69 69 69 70 70 70 70 71 74 80 77 80 74 71 67
61 60 60 61 61 63 63 63 63 63 63 64 64 64 63 49 72 76 71 69 70 69 68 71 69 70 64 64 65 70 70 68 67 70 67 68 70 69 76 81 76 75 73 72 69
61 60 60 60 61 62 62 63 63 62 63 64 64 62 57 58 73 75 71 69 70 70 67 72 73 67 68 62 69 69 64 67 66 70 67 66 63 65 77 74 75 74 75 74 71
60 59 59 60 60 61 61 61 61 61 62 62 64 59 51 71 75 70 72 69 72 72 71 74 74 65 60 66 64 60 61 56 66 68 69 67 56 71 76 74 74 76 77 74 73
59 59 59 59 60 60 61 61 60 61 61 62 57 54 49 61 62 69 71 65 67 69 70 71 69 59 57 53 55 57 51 54 60 67 66 66 60 70 73 71 72 76 77 77 75
58 58 58 59 59 59 60 60 60 61 61 62 57 48 51 54 61 67 70 68 63 62 58 59 58 55 50 51 42 49 51 53 55 62 60 61 60 69 72 72 71 74 77 77 75
58 58 58 59 59 59 59 56 48 49 51 49 52 50 51 63 65 61 66 62 61 59 48 52 47 47 51 52 57 56 54 53 58 61 60 58 60 63 70 72 71 72 74 75 76
58 57 58 58 59 59 62 54 55 60 46 54 56 56 59 58 49 56 63 53 51 46 54 46 42 56 60 57 55 52 51 53 57 59 57 59 59 64 68 69 72 72 75 76 77
57 57 57 58 58 57 57 58 67 64 47 53 53 54 54 54 50 50 57 53 50 49 50 48 52 58 57 54 51 53 51 55 53 55 55 55 54 59 65 69 71 74 75 76 77
56 57 56 57 54 59 52 63 65 61 38 45 45 52 50 54 46 59 61 55 50 48 51 51 59 55 53 51 55 47 56 57 51 49 42 54 39 56 63 65 68 70 72 75 75
56 56 56 58 59 54 59 63 62 54 23 46 48 59 56 47 47 48 60 51 46 52 51 45 53 51 50 52 56 49 56 53 50 44 41 43 38 53 62 61 66 70 71 74 75
56 56 56 56 59 61 65 62 55 32 25 37 44 45 44 47 46 48 47 51 56 52 53 51 56 58 55 57 57 52 46 45 40 39 33 45 43 49 57 61 66 70 73 74 75
55 55 56 58 51 61 60 51 31 25 36 33 38 44 43 41 43 44 42 42 40 37 37 46 47 51 56 52 51 51 44 33 32 32 35 48 44 49 60 66 68 70 72 74 76
55 55 55 58 61 59 53 37 24 33 35 37 38 44 40 41 43 43 41 39 46 48 44 37 32 46 53 51 41 44 49 42 32 35 42 42 40 50 62 67 67 70 72 72 75
54 52 51 54 59 57 44 28 31 36 41 36 37 36 38 40 40 41 40 41 46 54 43 41 36 45 51 54 52 39 41 53 41 33 38 46 51 58 60 60 64 65 67 70 71
48 46 47 56 56 50 36 32 33 41 37 38 33 38 34 36 37 38 38 46 49 57 61 52 35 39 42 48 49 50 51 37 39 31 32 46 47 49 57 61 65 65 66 69 71
49 40 49 55 52 40 30 34 39 44 40 34 36 33 40 36 39 39 39 46 56 56 59 55 44 33 40 39 39 42 41 46 47 46 38 38 48 63 62 61 60 63 65 66 66
45 34 50 52 35 36 33 40 44 44 44 36 33 38 39 42 41 40 40 50 59 58 49 54 47 32 35 41 49 50 46 48 40 37 41 40 44 59 62 62 60 62 63 64 64
37 36 47 48 31 31 40 40 43 40 38 37 34 41 45 43 39 44 46 57 58 54 50 50 40 28 30 36 40 42 47 50 51 44 39 37 45 63 64 59 62 62 63 66 64
41 31 37 39 42 39 34 36 36 43 40 38 35 36 43 42 48 43 44 52 55 54 49 52 45 42 36 40 39 35 42 46 48 39 42 43 51 57 59 60 62 64 66 66 66
43 35 34 30 32 38 40 38 35 33 40 38 35 35 41 33 37 39 42 44 49 48 50 51 37 45 48 51 45 42 42 42 42 47 43 49 50 56 62 63 65 67 65 63 64
35 34 35 34 37 36 38 35 34 36 35 34 33 37 44 40 43 39 44 44 41 43 46 51 37 42 35 46 46 41 44 45 45 47 48 50 50 61 64 65 61 62 63 63 63
41 42 42 36 34 34 35 37 37 38 38 44 40 37 42 48 54 54 51 50 51 45 43 44 39 34 31 41 40 33 42 44 45 48 49 44 52 58 58 59 61 62 63 63 63

GFSSW_sfc_temp_108.txt.gz
Temp
65 65 65 65 65 65 65 65 65 66 66 66 66 65 65 65 65 65 63 70 72 70 68 74 72 70 68 67 67 70 58 54 60 63 64 69 65 68 68 68 67 69 67 69 68
64 64 64 65 65 64 64 65 65 65 65 66 66 66 65 64 65 61 71 70 70 69 70 70 65 67 63 62 64 58 56 60 69 68 65 68 65 67 64 65 62 65 69 68 67
63 63 64 64 64 64 64 64 64 65 65 65 66 65 64 65 58 60 71 70 69 69 70 70 70 63 56 61 62 62 57 67 67 67 69 69 64 69 63 60 66 64 65 65 66
63 63 63 63 63 64 64 64 64 64 65 65 65 65 63 64 47 68 70 69 69 72 71 69 67 57 53 53 64 57 67 68 66 67 67 65 69 64 65 63 68 69 70 65 65
62 62 62 62 63 63 64 63 64 64 64 64 65 64 62 54 57 72 67 68 70 69 67 66 63 59 52 56 55 59 62 67 67 65 67 66 63 62 64 69 71 72 70 64 65
61 61 61 61 62 63 63 63 63 63 64 64 64 64 59 48 71 75 70 67 68 67 66 67 65 66 61 60 56 61 65 64 65 65 65 64 63 64 64 69 68 69 66 64 63
61 61 61 61 61 62 62 63 63 63 63 64 64 62 55 56 73 74 71 67 69 68 64 68 70 65 64 58 65 61 56 63 61 63 64 63 59 58 64 67 66 67 66 66 65
61 60 60 60 60 61 62 62 62 62 62 64 64 60 50 66 69 71 70 68 70 72 69 70 70 63 59 62 61 56 57 49 60 62 65 62 50 63 68 62 64 66 66 65 65
60 60 59 59 60 60 61 61 61 62 62 63 59 55 49 62 59 70 70 64 65 68 69 70 66 58 54 52 49 51 44 48 55 63 60 58 54 64 70 66 61 64 65 66 66
59 59 59 59 59 60 60 61 61 60 61 62 59 49 52 53 59 63 70 67 62 61 59 58 55 51 50 47 40 43 45 50 50 59 58 56 56 62 64 64 62 62 64 65 66
59 59 59 59 59 60 59 55 48 47 52 50 50 51 54 62 63 58 63 61 61 56 47 52 45 42 48 50 54 54 50 49 53 60 55 53 57 59 64 62 61 62 63 64 66
58 58 59 59 60 60 59 51 54 58 44 53 56 54 59 60 51 56 62 52 51 45 51 46 41 51 55 55 51 51 50 50 54 55 52 54 55 61 62 62 64 65 64 65 66
58 58 58 59 59 57 55 56 64 64 48 50 53 54 54 57 50 52 57 55 48 46 47 44 49 55 54 52 47 49 46 47 48 51 52 48 47 54 60 63 65 67 67 67 66
57 57 58 58 54 56 52 61 64 61 38 44 46 52 54 53 46 58 59 55 49 44 49 48 55 51 50 49 51 45 53 52 49 46 40 49 37 49 57 58 62 65 66 67 69
57 57 57 59 56 51 57 62 60 54 22 46 47 60 56 47 49 49 57 53 46 46 47 44 49 47 46 50 54 47 55 51 48 43 41 42 38 43 54 54 60 64 67 68 70
56 57 57 56 57 60 62 59 53 33 20 36 45 44 44 47 47 50 49 53 53 47 51 50 55 54 52 55 56 52 46 44 42 40 33 42 39 42 49 54 58 62 65 66 68
56 56 56 59 51 62 58 50 31 24 37 32 38 43 43 41 43 44 43 42 40 36 37 44 47 53 56 50 50 49 44 33 32 32 33 43 39 45 53 57 58 58 60 64 65
56 56 56 58 60 58 52 38 23 30 31 38 38 42 38 43 43 43 40 39 45 43 38 34 33 47 52 51 41 45 46 33 27 27 31 36 33 44 57 61 60 61 60 62 61
56 52 51 54 58 55 42 27 26 35 42 40 36 32 36 42 41 42 37 35 44 47 37 38 36 48 51 54 50 43 41 48 36 26 29 35 42 51 54 54 55 56 58 58 60
48 46 47 55 56 49 36 32 33 44 40 41 32 35 32 38 36 38 39 43 39 49 54 47 33 41 44 50 50 47 49 37 35 24 24 34 37 42 46 51 55 55 54 57 58
46 39 47 54 52 40 29 32 37 46 42 35 35 34 37 35 39 36 38 45 46 45 53 51 41 34 40 39 38 40 42 42 44 38 29 27 36 51 52 52 53 55 55 54 54
42 32 47 51 35 34 31 38 45 42 43 36 35 34 33 36 35 39 39 46 52 50 42 48 42 32 36 40 44 47 45 44 37 32 35 32 34 51 53 53 54 55 56 54 52
35 36 47 47 28 28 38 39 43 41 40 37 34 39 40 35 32 42 44 50 52 51 46 45 37 28 30 36 39 40 45 48 47 39 34 30 36 53 51 51 54 54 54 56 55
38 30 36 39 39 35 32 34 35 44 40 40 37 40 35 33 36 34 43 48 51 54 49 49 40 38 33 37 39 37 41 45 45 33 36 39 42 47 51 52 53 54 55 55 55
40 32 33 28 31 35 37 36 34 32 41 40 35 36 34 30 32 33 44 44 49 51 48 47 35 42 43 45 42 41 40 42 42 45 39 44 44 50 52 53 54 56 55 55 56
36 33 34 33 35 34 37 32 33 36 36 34 33 39 37 32 35 32 41 43 42 43 45 45 34 38 33 44 43 39 43 44 44 46 46 46 44 54 55 53 52 53 56 55 56
41 42 38 35 32 32 32 34 35 40 40 41 38 37 36 38 43 43 45 50 45 43 41 42 34 34 30 38 38 32 39 42 43 47 47 41 49 50 51 52 50 51 55 55 56

GFSSW_sfc_temp_111.txt.gz
Temp
65 65 65 65 65 65 65 65 65 65 66 66 66 65 65 65 65 62 59 68 69 70 69 69 67 64 64 65 64 65 53 52 56 58 57 63 61 64 65 65 64 64 61 64 68
64 64 64 65 64 64 65 65 65 65 65 66 66 65 64 65 61 57 68 70 70 70 67 64 59 62 57 60 60 58 52 56 62 60 58 63 62 63 62 60 57 57 61 65 64
64 64 64 64 64 64 64 64 64 64 65 65 65 64 63 65 57 58 70 70 70 69 67 66 64 60 53 56 60 55 52 62 62 64 66 63 61 63 61 56 61 57 58 61 61
63 63 63 63 64 64 64 64 64 64 65 64 65 64 62 61 46 64 69 70 69 69 66 64 60 53 48 51 59 52 57 59 64 66 65 62 63 60 60 61 66 64 62 62 62
62 62 62 63 63 64 64 63 64 64 64 65 64 63 61 53 54 69 67 69 67 65 62 62 57 54 49 51 54 53 59 64 66 64 65 64 60 59 60 62 64 65 63 61 62
62 62 62 62 62 63 63 63 63 63 64 65 65 63 57 48 67 69 67 65 65 63 61 62 60 60 54 53 52 57 59 61 62 63 63 61 58 60 61 63 62 63 59 60 61
61 61 61 61 62 62 63 63 63 63 64 65 64 63 56 55 67 67 67 64 65 64 60 63 63 59 57 52 58 59 56 60 57 59 59 60 55 57 61 64 61 60 58 59 61
61 60 60 61 61 61 62 62 62 63 63 64 64 58 51 64 62 65 66 63 66 66 64 66 64 57 55 56 55 50 49 48 58 58 59 58 50 62 65 61 61 59 57 59 60
60 60 60 60 60 60 61 61 61 62 63 63 56 53 49 62 57 63 65 60 63 64 64 68 61 54 52 48 44 45 38 43 50 57 57 55 51 62 65 63 60 59 58 59 60
60 59 59 59 59 60 60 61 61 62 60 60 57 48 52 52 57 61 64 64 58 57 56 57 51 45 44 42 37 37 40 44 47 54 54 51 52 58 61 61 59 60 61 58 60
59 59 59 59 59 60 58 54 49 47 52 48 49 48 51 57 60 57 62 58 56 53 46 51 45 41 44 45 46 45 44 44 48 56 53 50 50 55 60 57 56 57 59 60 60
59 59 59 59 60 60 56 48 52 53 44 52 53 53 55 56 49 52 60 52 50 45 49 45 41 49 51 49 47 45 42 43 49 53 51 49 51 57 56 58 59 58 58 60 61
59 59 59 59 59 56 52 52 61 58 45 49 49 50 51 53 48 49 54 51 48 47 46 44 47 52 49 47 45 44 42 44 45 47 47 45 45 49 54 57 60 61 62 64 63
58 58 58 58 53 52 49 58 60 57 31 39 43 48 50 50 46 55 56 52 48 44 47 47 51 49 46 45 47 40 48 49 46 42 36 46 37 47 52 56 59 62 61 64 64
58 58 58 59 50 48 54 58 57 51 21 41 43 57 51 46 46 46 56 50 44 45 46 43 47 45 43 46 50 43 51 48 45 40 41 42 38 41 51 49 54 60 64 65 64
58 58 58 55 53 55 58 59 51 32 20 31 41 42 42 44 44 47 47 50 52 47 47 46 52 52 49 52 53 49 45 43 42 41 34 42 40 39 45 50 56 61 62 63 65
57 57 56 57 48 57 55 48 32 23 34 32 37 43 41 41 42 42 43 41 40 36 37 43 44 49 52 47 47 47 42 33 32 32 31 42 36 44 51 54 56 57 57 58 59
57 57 56 54 58 56 51 37 23 22 23 39 40 41 38 41 42 40 39 38 44 40 36 35 33 44 49 48 42 45 45 33 27 27 33 36 33 41 54 60 61 57 56 57 57
56 51 50 50 56 55 43 29 25 27 35 36 37 35 36 39 40 40 39 37 42 44 36 34 35 47 48 50 50 40 40 48 34 21 27 32 38 48 51 53 53 53 54 55 56
48 47 47 52 55 49 36 29 26 38 40 38 25 31 28 35 37 38 38 40 43 48 51 40 34 42 46 50 48 47 51 38 36 21 21 30 33 39 45 50 53 52 51 53 54
47 41 48 55 53 41 30 31 33 40 40 35 32 31 31 33 36 36 39 40 44 44 49 48 41 35 40 40 40 39 42 42 44 34 28 25 32 46 51 50 51 53 53 51 51
40 33 47 52 35 33 31 34 43 37 38 34 35 33 33 35 31 36 36 41 48 48 41 46 41 33 36 40 43 46 44 45 37 32 33 31 34 49 52 51 51 52 53 52 52
35 36 46 46 26 25 34 36 39 36 35 33 31 36 37 34 30 34 36 45 48 46 42 43 34 31 31 36 40 42 43 48 43 38 34 29 33 50 46 48 50 51 52 54 53
34 30 35 38 32 33 28 31 32 40 37 37 34 37 33 31 34 31 33 39 46 48 49 46 36 33 32 37 40 39 42 46 46 35 37 39 40 45 48 49 50 51 53 52 53
34 29 28 29 25 32 33 32 32 29 37 37 32 34 32 25 32 32 37 40 43 46 47 46 33 36 39 42 42 41 42 42 42 45 39 44 41 47 50 50 51 52 52 53 54
30 30 31 24 32 31 33 26 31 32 33 30 30 35 37 33 36 30 39 37 37 44 44 45 33 39 35 40 42 39 43 44 44 46 46 47 44 50 53 51 50 52 53 53 54
36 37 33 34 28 28 28 29 32 36 37 38 36 35 34 38 42 44 45 45 40 36 36 40 35 34 32 36 38 32 39 41 43 47 47 41 49 49 49 51 51 52 54 53 53

GFSSW_sfc_temp_114.txt.gz
Temp
65 65 65 65 65 65 66 65 65 65 66 65 66 65 65 65 65 62 58 67 67 70 68 65 65 64 63 61 62 60 53 51 54 55 56 60 58 62 62 63 61 60 58 62 66
65 65 65 65 64 65 65 65 65 65 65 66 66 64 64 64 60 56 67 70 70 70 66 62 57 60 56 56 58 54 49 54 60 56 55 60 58 61 59 57 56 56 60 62 62
64 64 64 64 64 64 64 64 64 65 65 65 65 64 63 64 56 56 69 70 70 69 67 64 62 58 53 53 53 53 52 59 63 63 60 61 57 60 59 54 58 57 57 59 60
63 63 64 64 64 64 64 64 63 64 65 64 65 63 62 60 45 63 69 70 69 67 65 62 59 51 49 50 55 49 57 59 60 64 64 60 60 57 57 59 64 62 61 61 60
62 63 63 63 63 64 64 63 63 64 64 65 63 62 60 53 53 68 67 68 66 64 61 60 55 52 48 50 52 50 56 59 61 62 63 62 58 58 58 61 61 61 61 60 61
62 62 62 62 63 64 63 63 63 63 64 65 64 62 58 49 65 67 66 65 64 61 59 60 57 57 51 50 50 55 55 58 61 61 62 59 56 58 58 59 57 59 58 59 60
62 62 62 62 62 63 63 63 63 63 63 64 64 61 56 54 65 65 66 63 64 62 58 60 61 56 54 50 55 54 50 54 58 59 57 60 54 55 60 59 56 56 56 57 59
62 61 61 61 61 62 62 62 62 62 63 64 64 59 51 63 61 63 63 61 64 64 61 63 62 56 53 54 51 48 46 41 54 57 59 57 50 60 62 58 56 55 55 57 59
61 61 60 61 60 61 61 61 61 62 63 63 57 54 50 62 57 61 61 58 60 62 62 66 61 52 50 45 41 42 36 39 47 56 55 55 51 59 62 60 58 54 54 56 57
61 60 60 60 60 60 61 61 61 61 59 59 57 49 52 50 56 60 60 61 56 55 55 54 50 44 42 41 35 35 36 40 41 53 51 50 51 55 58 57 57 57 55 56 57
60 60 60 60 60 60 59 53 48 46 52 50 49 47 50 55 58 55 59 56 54 50 46 50 45 42 44 43 46 43 41 41 43 53 49 49 52 52 57 54 54 55 55 55 58
60 60 60 60 60 60 56 48 51 52 44 50 51 52 54 55 48 52 58 50 48 44 46 44 42 49 49 46 44 42 38 38 46 50 48 47 48 56 53 54 56 56 56 56 56
60 60 59 59 59 57 52 50 58 57 45 47 49 51 50 53 47 48 55 51 48 45 45 43 46 52 48 44 42 42 40 39 42 46 45 42 43 48 51 55 56 58 62 61 60
59 59 59 59 54 54 50 56 57 54 34 39 43 48 49 50 44 53 56 53 46 44 47 46 50 48 44 43 45 39 45 46 44 42 35 44 35 45 51 53 54 58 59 60 60
59 59 59 59 53 49 55 56 54 48 18 40 42 55 50 45 46 46 52 49 43 44 46 43 46 45 43 44 48 42 48 46 44 42 40 40 37 40 47 46 52 58 62 63 64
58 58 59 56 53 55 58 54 49 32 16 33 42 41 42 42 43 46 46 49 49 44 44 44 50 51 47 49 50 48 43 42 38 40 34 40 39 38 45 48 51 56 58 61 61
58 58 57 57 47 57 56 49 32 25 32 33 37 42 41 40 39 42 42 42 39 35 36 41 43 48 51 46 48 46 40 32 31 31 31 41 35 44 48 51 56 58 58 56 56
58 58 57 53 57 56 51 38 26 22 24 41 41 41 37 40 40 38 39 38 45 38 37 33 29 42 47 46 41 42 42 31 26 26 31 36 33 41 51 59 61 59 57 55 54
57 53 51 53 57 56 44 29 29 27 37 38 40 35 36 38 40 37 36 39 44 44 37 35 36 43 46 49 50 41 38 45 33 20 25 32 37 44 49 51 55 54 52 53 54
50 48 48 55 57 50 38 32 30 38 38 41 32 36 32 36 37 36 38 43 40 47 45 37 32 41 43 47 48 47 49 37 37 23 21 29 30 40 42 49 56 50 50 52 53
47 41 47 55 54 43 32 33 33 41 40 37 30 32 35 36 36 35 37 39 45 42 47 40 37 34 41 40 41 40 41 42 42 33 28 24 33 43 51 53 55 52 53 51 51
40 33 48 53 36 35 32 35 41 36 37 35 35 33 32 35 37 37 34 39 44 46 39 44 39 32 36 40 42 46 43 43 37 33 31 30 36 46 46 48 49 51 52 50 51
36 38 46 48 28 31 35 37 38 35 33 33 32 35 36 33 29 33 38 41 45 46 40 45 37 31 32 36 39 37 42 46 46 37 36 32 36 47 46 43 46 49 50 51 51
37 32 33 37 35 35 32 32 32 37 35 35 34 35 32 32 33 29 33 38 41 45 48 45 36 35 33 35 39 37 40 43 44 36 38 38 42 45 47 46 47 49 51 51 51
33 30 33 28 28 34 36 35 31 28 34 35 32 33 31 22 27 29 33 36 40 44 45 44 34 37 37 37 39 41 41 42 41 43 38 43 42 49 49 48 48 50 51 51 51
30 30 29 30 34 35 36 28 33 31 32 30 30 33 34 29 32 28 35 37 37 41 41 43 33 36 33 38 38 35 40 42 43 44 45 46 43 55 54 51 47 49 50 50 52
33 34 34 33 25 29 26 30 34 36 35 36 34 33 32 36 39 39 40 40 38 37 37 34 33 32 30 35 37 31 36 40 40 46 46 41 49 46 49 48 48 48 51 51 52

GFSSW_sfc_temp_117.txt.gz
Temp
65 65 65 65 65 65 65 66 65 65 65 66 67 66 65 64 65 61 57 66 67 70 68 65 65 63 64 60 59 57 49 47 51 56 57 62 57 60 59 60 57 58 58 60 65
65 65 65 65 65 64 65 65 65 65 65 65 66 65 64 64 60 57 67 70 71 70 64 60 56 60 55 55 56 52 48 51 57 56 53 56 56 60 56 55 53 54 59 60 62
64 64 64 64 64 64 64 64 64 65 65 65 65 64 63 62 55 57 69 70 70 69 65 63 61 57 51 52 51 51 49 55 58 61 59 58 55 57 56 53 58 58 57 58 58
63 64 64 64 64 64 64 64 64 64 64 65 65 63 62 59 46 62 68 70 69 67 64 61 57 51 48 48 52 47 55 56 61 60 60 57 60 55 55 59 62 62 59 60 60
62 63 63 63 64 64 64 64 63 64 64 63 64 62 59 53 52 66 67 68 65 63 61 58 54 51 48 49 50 48 53 57 59 60 61 60 58 57 57 58 57 59 59 60 61
62 62 62 62 63 64 64 63 63 63 64 64 63 62 57 48 63 65 65 64 63 61 58 58 56 56 50 49 48 52 53 54 57 57 59 56 55 57 59 56 56 58 57 58 60
61 61 62 62 62 63 63 63 63 63 63 64 64 61 55 55 63 63 64 62 63 63 57 58 60 54 52 47 53 52 48 52 54 57 57 56 52 54 60 56 55 55 55 57 59
61 61 61 62 62 62 62 62 62 62 62 64 63 58 51 62 60 62 62 59 63 64 63 62 60 55 51 52 49 46 44 40 50 55 59 57 48 59 61 56 55 54 54 55 58
59 60 61 61 61 61 62 61 61 62 63 63 57 54 49 61 55 60 60 57 59 60 61 64 60 50 49 44 40 39 34 36 45 53 54 54 50 59 60 57 55 53 54 55 57
56 60 61 61 61 61 61 61 60 61 57 59 57 49 51 50 55 57 58 59 55 54 53 53 52 46 41 40 33 34 34 37 39 48 48 48 48 54 56 55 55 54 54 54 56
58 57 60 61 60 61 59 54 47 45 51 50 50 47 49 54 57 54 56 55 53 49 45 48 44 41 43 41 43 41 39 39 40 49 46 45 49 55 58 52 52 52 53 55 56
56 58 60 60 61 61 58 48 51 50 43 49 51 51 52 54 49 51 55 49 46 45 47 44 41 47 48 45 43 40 37 36 43 48 45 44 45 51 52 52 55 56 55 55 55
56 56 59 60 60 57 52 51 57 57 44 46 49 52 49 52 47 49 52 49 45 46 45 44 46 52 47 42 41 40 39 37 39 44 43 40 41 47 49 53 55 54 59 59 60
56 53 59 59 54 54 50 55 56 53 30 38 42 47 48 50 44 52 54 51 44 44 43 43 47 47 44 43 44 37 44 44 42 39 33 40 32 43 46 50 51 57 58 58 59
55 54 58 59 53 48 54 56 53 48 19 39 41 53 48 45 45 44 51 50 42 43 43 40 42 44 41 42 46 41 46 44 42 38 37 37 36 39 45 47 49 55 58 59 61
55 51 57 56 54 56 58 54 49 31 15 34 41 41 41 42 41 47 48 51 50 42 41 43 49 48 44 46 48 46 42 40 38 37 32 40 36 39 45 45 49 53 57 59 61
52 51 56 57 48 59 55 48 31 25 31 33 37 40 40 40 38 41 43 42 40 35 36 41 43 47 47 43 45 46 38 32 30 30 28 39 34 43 46 49 51 55 55 57 56
51 55 56 57 59 55 51 39 25 21 25 38 41 40 37 40 38 37 40 38 45 37 35 34 30 41 46 45 41 41 42 32 25 25 29 33 31 41 49 57 59 57 56 53 54
51 53 51 54 58 55 44 29 25 27 33 39 39 34 35 38 39 36 34 37 43 40 34 32 34 41 44 46 47 39 36 43 34 19 24 30 36 44 46 48 51 54 56 54 54
46 47 48 57 57 50 37 31 26 36 39 41 32 36 32 35 32 35 33 39 39 45 43 36 33 39 40 45 46 43 47 34 35 25 21 28 29 37 39 46 52 57 55 50 50
46 41 49 56 54 42 31 27 30 39 40 39 31 31 36 35 35 34 33 35 42 41 45 42 36 32 40 39 40 40 39 39 39 33 26 25 34 41 48 50 52 55 53 50 50
41 33 51 54 37 36 34 32 39 35 37 35 34 32 34 37 32 34 32 37 43 43 39 43 37 27 32 42 44 46 43 42 34 29 31 28 36 46 46 47 47 51 51 51 50
38 40 51 49 30 32 36 35 36 35 36 34 32 35 35 34 30 34 35 39 42 43 38 43 35 28 27 32 38 38 41 43 43 37 34 27 37 46 42 46 47 47 49 50 50
41 34 38 38 34 35 32 32 31 36 35 35 33 35 32 31 32 33 36 38 40 43 46 46 34 32 28 31 36 35 40 41 39 34 35 37 41 46 45 45 47 47 48 49 51
36 32 33 30 29 36 34 33 32 29 34 35 33 34 31 29 27 29 35 36 40 43 42 43 33 34 37 37 35 37 37 38 37 39 33 40 42 48 50 49 51 49 47 48 50
33 34 34 31 36 36 36 33 34 30 32 31 32 33 34 29 32 28 33 34 36 40 38 41 31 35 33 36 37 35 39 38 40 40 39 40 42 52 51 50 47 49 48 48 50
34 35 36 37 35 34 27 34 33 34 34 36 35 34 33 34 38 39 39 39 37 35 35 33 33 31 24 34 32 29 36 38 39 42 44 38 46 48 49 49 51 48 48 50 49